<?xml version='1.0' encoding='UTF-8'?><gpx version="1.1" creator="JPX - https://github.com/jenetics/jpx" xmlns="http://www.topografix.com/GPX/1/1"><trk><trkseg><trkpt lat="42.35372918974092" lon="13.4026773124634"><ele>735.0</ele><time>2026-05-03T07:06:30Z</time></trkpt><trkpt lat="42.353714400943105" lon="13.402577525639211"><ele>735.0</ele><time>2026-05-03T07:06:33Z</time></trkpt><trkpt lat="42.35369904832307" lon="13.402466883256086"><ele>735.0</ele><time>2026-05-03T07:06:37Z</time></trkpt><trkpt lat="42.353720974044435" lon="13.40238688743038"><ele>735.0</ele><time>2026-05-03T07:06:43Z</time></trkpt><trkpt lat="42.35376406799355" lon="13.402319109970504"><ele>735.0</ele><time>2026-05-03T07:06:50Z</time></trkpt><trkpt lat="42.353779709516374" lon="13.402235860972745"><ele>735.0</ele><time>2026-05-03T07:07:12Z</time></trkpt><trkpt lat="42.353819617380026" lon="13.402163750611255"><ele>735.0</ele><time>2026-05-03T07:07:21Z</time></trkpt><trkpt lat="42.35380056737145" lon="13.402058152729978"><ele>734.8</ele><time>2026-05-03T07:07:56Z</time></trkpt><trkpt lat="42.353812449700584" lon="13.40194176911974"><ele>734.6</ele><time>2026-05-03T07:07:59Z</time></trkpt><trkpt lat="42.353834078215904" lon="13.401813006904028"><ele>734.4000000000001</ele><time>2026-05-03T07:08:01Z</time></trkpt><trkpt lat="42.3539002739974" lon="13.401714071215821"><ele>734.2</ele><time>2026-05-03T07:08:03Z</time></trkpt><trkpt lat="42.35399431304027" lon="13.401696590820185"><ele>734.0</ele><time>2026-05-03T07:08:05Z</time></trkpt><trkpt lat="42.35409542407979" lon="13.401770060517414"><ele>733.5</ele><time>2026-05-03T07:08:07Z</time></trkpt><trkpt lat="42.35414848641491" lon="13.401831575040239"><ele>733.0</ele><time>2026-05-03T07:08:08Z</time></trkpt><trkpt lat="42.354207151478796" lon="13.401906194336247"><ele>732.5</ele><time>2026-05-03T07:08:09Z</time></trkpt><trkpt lat="42.35427359367469" lon="13.401987296543716"><ele>732.0</ele><time>2026-05-03T07:08:10Z</time></trkpt><trkpt lat="42.35434454930221" lon="13.402073634972444"><ele>731.5</ele><time>2026-05-03T07:08:11Z</time></trkpt><trkpt lat="42.354418300129524" lon="13.402154860506462"><ele>731.0</ele><time>2026-05-03T07:08:12Z</time></trkpt><trkpt lat="42.354492437971686" lon="13.402239887221391"><ele>731.0</ele><time>2026-05-03T07:08:13Z</time></trkpt><trkpt lat="42.35456936241413" lon="13.402327354001471"><ele>731.0</ele><time>2026-05-03T07:08:14Z</time></trkpt><trkpt lat="42.35463819706358" lon="13.40241027929066"><ele>731.0</ele><time>2026-05-03T07:08:15Z</time></trkpt><trkpt lat="42.35470670526034" lon="13.402489900822447"><ele>731.0</ele><time>2026-05-03T07:08:16Z</time></trkpt><trkpt lat="42.35475452974451" lon="13.402599385436849"><ele>731.0</ele><time>2026-05-03T07:08:17Z</time></trkpt><trkpt lat="42.35481554067905" lon="13.402671344489681"><ele>729.6666666666666</ele><time>2026-05-03T07:08:18Z</time></trkpt><trkpt lat="42.35487483949773" lon="13.402740967958088"><ele>728.3333333333333</ele><time>2026-05-03T07:08:19Z</time></trkpt><trkpt lat="42.354934015544366" lon="13.402813550452375"><ele>727.0</ele><time>2026-05-03T07:08:20Z</time></trkpt><trkpt lat="42.35499393047035" lon="13.40289369538543"><ele>725.6666666666666</ele><time>2026-05-03T07:08:21Z</time></trkpt><trkpt lat="42.35505032475921" lon="13.402975660116363"><ele>724.3333333333334</ele><time>2026-05-03T07:08:22Z</time></trkpt><trkpt lat="42.35510490754377" lon="13.40306394456408"><ele>723.0</ele><time>2026-05-03T07:08:23Z</time></trkpt><trkpt lat="42.35515371897385" lon="13.403156079150792"><ele>723.0</ele><time>2026-05-03T07:08:24Z</time></trkpt><trkpt lat="42.35519310506424" lon="13.403244828038767"><ele>723.0</ele><time>2026-05-03T07:08:25Z</time></trkpt><trkpt lat="42.355224612105445" lon="13.40332554194517"><ele>723.0</ele><time>2026-05-03T07:08:26Z</time></trkpt><trkpt lat="42.355251884429116" lon="13.403405707806147"><ele>723.0</ele><time>2026-05-03T07:08:27Z</time></trkpt><trkpt lat="42.35527899858103" lon="13.40349840863411"><ele>723.0</ele><time>2026-05-03T07:08:28Z</time></trkpt><trkpt lat="42.35530723943069" lon="13.403613081895681"><ele>723.0</ele><time>2026-05-03T07:08:29Z</time></trkpt><trkpt lat="42.35533647652737" lon="13.403740112042485"><ele>724.4</ele><time>2026-05-03T07:08:30Z</time></trkpt><trkpt lat="42.35536659545318" lon="13.403871374860202"><ele>725.8</ele><time>2026-05-03T07:08:31Z</time></trkpt><trkpt lat="42.35539621135007" lon="13.404001664228879"><ele>727.2</ele><time>2026-05-03T07:08:32Z</time></trkpt><trkpt lat="42.355426203502226" lon="13.404134197240964"><ele>728.6</ele><time>2026-05-03T07:08:33Z</time></trkpt><trkpt lat="42.35545558815957" lon="13.404264045782174"><ele>730.0</ele><time>2026-05-03T07:08:34Z</time></trkpt><trkpt lat="42.35548421856511" lon="13.404390561340259"><ele>730.0</ele><time>2026-05-03T07:08:35Z</time></trkpt><trkpt lat="42.35551156665314" lon="13.404511410436331"><ele>730.0</ele><time>2026-05-03T07:08:36Z</time></trkpt><trkpt lat="42.355539873163735" lon="13.40463649472736"><ele>730.0</ele><time>2026-05-03T07:08:37Z</time></trkpt><trkpt lat="42.35556836328022" lon="13.404762390356005"><ele>730.0</ele><time>2026-05-03T07:08:38Z</time></trkpt><trkpt lat="42.35559667309665" lon="13.404887489251626"><ele>730.0</ele><time>2026-05-03T07:08:39Z</time></trkpt><trkpt lat="42.35562407477377" lon="13.405010081493907"><ele>727.0</ele><time>2026-05-03T07:08:40Z</time></trkpt><trkpt lat="42.35565001895239" lon="13.405126359675343"><ele>724.0</ele><time>2026-05-03T07:08:41Z</time></trkpt><trkpt lat="42.35567379853817" lon="13.405232936450371"><ele>721.0</ele><time>2026-05-03T07:08:42Z</time></trkpt><trkpt lat="42.355697126862665" lon="13.40533749073437"><ele>718.0</ele><time>2026-05-03T07:08:43Z</time></trkpt><trkpt lat="42.35571975312757" lon="13.40543889848233"><ele>715.0</ele><time>2026-05-03T07:08:44Z</time></trkpt><trkpt lat="42.35573839573182" lon="13.405590767781996"><ele>712.0</ele><time>2026-05-03T07:08:46Z</time></trkpt><trkpt lat="42.35574752628812" lon="13.405707266296957"><ele>712.0</ele><time>2026-05-03T07:08:48Z</time></trkpt><trkpt lat="42.355768023110535" lon="13.405831354571859"><ele>712.0</ele><time>2026-05-03T07:08:50Z</time></trkpt><trkpt lat="42.35577319283012" lon="13.4059790087687"><ele>712.0</ele><time>2026-05-03T07:08:52Z</time></trkpt><trkpt lat="42.35576993573242" lon="13.406080015629247"><ele>712.0</ele><time>2026-05-03T07:08:53Z</time></trkpt><trkpt lat="42.35580454047983" lon="13.40617867510067"><ele>712.0</ele><time>2026-05-03T07:08:54Z</time></trkpt><trkpt lat="42.35580613819195" lon="13.406288613892235"><ele>712.0</ele><time>2026-05-03T07:08:55Z</time></trkpt><trkpt lat="42.35579100359634" lon="13.40639374292563"><ele>712.0</ele><time>2026-05-03T07:08:56Z</time></trkpt><trkpt lat="42.355758714826116" lon="13.40648305563198"><ele>712.0</ele><time>2026-05-03T07:08:57Z</time></trkpt><trkpt lat="42.35571675799321" lon="13.406581286540732"><ele>712.0</ele><time>2026-05-03T07:08:58Z</time></trkpt><trkpt lat="42.3556681882885" lon="13.40667755020547"><ele>712.0</ele><time>2026-05-03T07:08:59Z</time></trkpt><trkpt lat="42.355610776992606" lon="13.406768822379352"><ele>712.0</ele><time>2026-05-03T07:09:00Z</time></trkpt><trkpt lat="42.35553453813708" lon="13.40685566160265"><ele>712.0</ele><time>2026-05-03T07:09:01Z</time></trkpt><trkpt lat="42.35540594884587" lon="13.406898629513634"><ele>712.0</ele><time>2026-05-03T07:09:02Z</time></trkpt><trkpt lat="42.35532266629532" lon="13.407036487889288"><ele>712.0</ele><time>2026-05-03T07:09:03Z</time></trkpt><trkpt lat="42.35525265340865" lon="13.407177499630345"><ele>712.0</ele><time>2026-05-03T07:09:04Z</time></trkpt><trkpt lat="42.35518016229339" lon="13.407323502724461"><ele>712.0</ele><time>2026-05-03T07:09:05Z</time></trkpt><trkpt lat="42.35510444122212" lon="13.407476011222473"><ele>712.0</ele><time>2026-05-03T07:09:06Z</time></trkpt><trkpt lat="42.35500554532009" lon="13.407620584347862"><ele>712.0</ele><time>2026-05-03T07:09:07Z</time></trkpt><trkpt lat="42.354927007380795" lon="13.407784234069167"><ele>712.0</ele><time>2026-05-03T07:09:08Z</time></trkpt><trkpt lat="42.35484837186349" lon="13.407950505274961"><ele>712.0</ele><time>2026-05-03T07:09:09Z</time></trkpt><trkpt lat="42.354776586281105" lon="13.40810298902828"><ele>711.75</ele><time>2026-05-03T07:09:10Z</time></trkpt><trkpt lat="42.35470996854503" lon="13.408240445129385"><ele>711.5</ele><time>2026-05-03T07:09:11Z</time></trkpt><trkpt lat="42.35464857093776" lon="13.408367130248608"><ele>711.25</ele><time>2026-05-03T07:09:12Z</time></trkpt><trkpt lat="42.35458553861056" lon="13.40849718837618"><ele>711.0</ele><time>2026-05-03T07:09:13Z</time></trkpt><trkpt lat="42.3545160798382" lon="13.408638307150987"><ele>711.75</ele><time>2026-05-03T07:09:14Z</time></trkpt><trkpt lat="42.35443907828455" lon="13.408776112280393"><ele>712.5</ele><time>2026-05-03T07:09:15Z</time></trkpt><trkpt lat="42.35435708811147" lon="13.408902944642545"><ele>713.25</ele><time>2026-05-03T07:09:16Z</time></trkpt><trkpt lat="42.35427599591318" lon="13.409021333979977"><ele>714.0</ele><time>2026-05-03T07:09:17Z</time></trkpt><trkpt lat="42.3541913273698" lon="13.40914476560622"><ele>714.0</ele><time>2026-05-03T07:09:18Z</time></trkpt><trkpt lat="42.354107609828816" lon="13.409266616202679"><ele>714.0</ele><time>2026-05-03T07:09:19Z</time></trkpt><trkpt lat="42.35402429554606" lon="13.40938777912831"><ele>714.0</ele><time>2026-05-03T07:09:20Z</time></trkpt><trkpt lat="42.35394333557048" lon="13.409503870712175"><ele>714.0</ele><time>2026-05-03T07:09:21Z</time></trkpt><trkpt lat="42.353864522822356" lon="13.409618393668556"><ele>713.75</ele><time>2026-05-03T07:09:22Z</time></trkpt><trkpt lat="42.35378642839763" lon="13.409731676095175"><ele>713.5</ele><time>2026-05-03T07:09:23Z</time></trkpt><trkpt lat="42.353708237843954" lon="13.40984509796389"><ele>713.25</ele><time>2026-05-03T07:09:24Z</time></trkpt><trkpt lat="42.35362969088984" lon="13.409959036821297"><ele>713.0</ele><time>2026-05-03T07:09:25Z</time></trkpt><trkpt lat="42.353551115166745" lon="13.410072964647632"><ele>713.0</ele><time>2026-05-03T07:09:26Z</time></trkpt><trkpt lat="42.35347047843508" lon="13.410189605564572"><ele>713.0</ele><time>2026-05-03T07:09:27Z</time></trkpt><trkpt lat="42.35338923834151" lon="13.410307392125489"><ele>713.0</ele><time>2026-05-03T07:09:28Z</time></trkpt><trkpt lat="42.3533056659385" lon="13.410428660749954"><ele>713.0</ele><time>2026-05-03T07:09:29.001Z</time></trkpt><trkpt lat="42.353219966467336" lon="13.410553015879051"><ele>713.25</ele><time>2026-05-03T07:09:30.001Z</time></trkpt><trkpt lat="42.353132379079305" lon="13.410680212764552"><ele>713.5</ele><time>2026-05-03T07:09:31.001Z</time></trkpt><trkpt lat="42.35304475797644" lon="13.410807463323852"><ele>713.75</ele><time>2026-05-03T07:09:32.001Z</time></trkpt><trkpt lat="42.35295739025552" lon="13.410934345902396"><ele>714.0</ele><time>2026-05-03T07:09:33.001Z</time></trkpt><trkpt lat="42.35287002516614" lon="13.411061224666996"><ele>714.0</ele><time>2026-05-03T07:09:34.001Z</time></trkpt><trkpt lat="42.35282249725471" lon="13.411235694843523"><ele>714.0</ele><time>2026-05-03T07:09:35.001Z</time></trkpt><trkpt lat="42.352735934406795" lon="13.411351862422253"><ele>714.0</ele><time>2026-05-03T07:09:36.001Z</time></trkpt><trkpt lat="42.352659722727154" lon="13.411463085349222"><ele>714.0</ele><time>2026-05-03T07:09:37.001Z</time></trkpt><trkpt lat="42.35258306739699" lon="13.411561749357618"><ele>714.4000000000001</ele><time>2026-05-03T07:09:38.001Z</time></trkpt><trkpt lat="42.352513005822004" lon="13.411668662022072"><ele>714.8</ele><time>2026-05-03T07:09:39.001Z</time></trkpt><trkpt lat="42.35243975228385" lon="13.411778581933742"><ele>715.2</ele><time>2026-05-03T07:09:40.001Z</time></trkpt><trkpt lat="42.352364307966724" lon="13.411888034744218"><ele>715.5999999999999</ele><time>2026-05-03T07:09:41.001Z</time></trkpt><trkpt lat="42.352288075791506" lon="13.412008183281749"><ele>716.0</ele><time>2026-05-03T07:09:42.001Z</time></trkpt><trkpt lat="42.35217680102393" lon="13.412089339792285"><ele>715.8</ele><time>2026-05-03T07:09:43.001Z</time></trkpt><trkpt lat="42.352109386114364" lon="13.41220155148085"><ele>715.5999999999999</ele><time>2026-05-03T07:09:44.001Z</time></trkpt><trkpt lat="42.35204159190658" lon="13.412312840220668"><ele>715.4</ele><time>2026-05-03T07:09:45.001Z</time></trkpt><trkpt lat="42.35198540569614" lon="13.412439191392092"><ele>715.2</ele><time>2026-05-03T07:09:46.001Z</time></trkpt><trkpt lat="42.35195771324065" lon="13.412606597593113"><ele>715.0</ele><time>2026-05-03T07:09:47.001Z</time></trkpt><trkpt lat="42.35196124391738" lon="13.412765931878365"><ele>715.0</ele><time>2026-05-03T07:09:48.001Z</time></trkpt><trkpt lat="42.3519903390319" lon="13.412915072070549"><ele>715.0</ele><time>2026-05-03T07:09:49.001Z</time></trkpt><trkpt lat="42.352034816294356" lon="13.413049054613078"><ele>715.0</ele><time>2026-05-03T07:09:50.001Z</time></trkpt><trkpt lat="42.35208428696731" lon="13.413178615295605"><ele>715.0</ele><time>2026-05-03T07:09:51.001Z</time></trkpt><trkpt lat="42.352143294720456" lon="13.413322697865578"><ele>716.25</ele><time>2026-05-03T07:09:52.001Z</time></trkpt><trkpt lat="42.35221101018441" lon="13.413464314010703"><ele>717.5</ele><time>2026-05-03T07:09:53.001Z</time></trkpt><trkpt lat="42.35227315947017" lon="13.413595870580329"><ele>718.75</ele><time>2026-05-03T07:09:54.001Z</time></trkpt><trkpt lat="42.35232901328797" lon="13.413727210715916"><ele>720.0</ele><time>2026-05-03T07:09:55.001Z</time></trkpt><trkpt lat="42.352392878024276" lon="13.413859346102159"><ele>720.0</ele><time>2026-05-03T07:09:56.001Z</time></trkpt><trkpt lat="42.35243474515825" lon="13.414008783949845"><ele>720.0</ele><time>2026-05-03T07:09:57.001Z</time></trkpt><trkpt lat="42.35246012348128" lon="13.414167247300025"><ele>720.0</ele><time>2026-05-03T07:09:58.001Z</time></trkpt><trkpt lat="42.35246408681458" lon="13.41432875414555"><ele>720.0</ele><time>2026-05-03T07:09:59.001Z</time></trkpt><trkpt lat="42.35245698668144" lon="13.414492201858739"><ele>720.25</ele><time>2026-05-03T07:10:00.001Z</time></trkpt><trkpt lat="42.35244479316949" lon="13.414659062122928"><ele>720.5</ele><time>2026-05-03T07:10:01.001Z</time></trkpt><trkpt lat="42.35242105544012" lon="13.41482511416277"><ele>720.75</ele><time>2026-05-03T07:10:02.001Z</time></trkpt><trkpt lat="42.3523774073716" lon="13.414985986798197"><ele>721.0</ele><time>2026-05-03T07:10:03.001Z</time></trkpt><trkpt lat="42.35232265747785" lon="13.415145476595763"><ele>721.0</ele><time>2026-05-03T07:10:04.001Z</time></trkpt><trkpt lat="42.352259728528225" lon="13.41530031117654"><ele>721.0</ele><time>2026-05-03T07:10:05.001Z</time></trkpt><trkpt lat="42.352188314698026" lon="13.415449765317453"><ele>721.0</ele><time>2026-05-03T07:10:06.001Z</time></trkpt><trkpt lat="42.35210719999596" lon="13.415590775318664"><ele>721.0</ele><time>2026-05-03T07:10:07.001Z</time></trkpt><trkpt lat="42.35202666848491" lon="13.415731060090343"><ele>721.75</ele><time>2026-05-03T07:10:08.001Z</time></trkpt><trkpt lat="42.35194747986145" lon="13.415870138281365"><ele>722.5</ele><time>2026-05-03T07:10:09.001Z</time></trkpt><trkpt lat="42.351873486193746" lon="13.416009376838659"><ele>723.25</ele><time>2026-05-03T07:10:10.001Z</time></trkpt><trkpt lat="42.35180843752713" lon="13.416152467484874"><ele>724.0</ele><time>2026-05-03T07:10:11.001Z</time></trkpt><trkpt lat="42.351749888397805" lon="13.416303113838321"><ele>724.75</ele><time>2026-05-03T07:10:12.001Z</time></trkpt><trkpt lat="42.35170454110707" lon="13.41646711490554"><ele>725.5</ele><time>2026-05-03T07:10:13.001Z</time></trkpt><trkpt lat="42.351672274063446" lon="13.416640231678624"><ele>726.25</ele><time>2026-05-03T07:10:14.001Z</time></trkpt><trkpt lat="42.35165259609124" lon="13.416820456091687"><ele>727.0</ele><time>2026-05-03T07:10:15.001Z</time></trkpt><trkpt lat="42.35164015592922" lon="13.41700542976602"><ele>727.75</ele><time>2026-05-03T07:10:16.001Z</time></trkpt><trkpt lat="42.351629982775385" lon="13.417193631104714"><ele>728.5</ele><time>2026-05-03T07:10:17.001Z</time></trkpt><trkpt lat="42.3516190589017" lon="13.41738068546288"><ele>729.25</ele><time>2026-05-03T07:10:18.001Z</time></trkpt><trkpt lat="42.35160859920282" lon="13.417564672564216"><ele>730.0</ele><time>2026-05-03T07:10:19.001Z</time></trkpt><trkpt lat="42.35160200057895" lon="13.417742236759542"><ele>730.0</ele><time>2026-05-03T07:10:20.001Z</time></trkpt><trkpt lat="42.35160034626394" lon="13.417914696500418"><ele>730.0</ele><time>2026-05-03T07:10:21.001Z</time></trkpt><trkpt lat="42.35162070773862" lon="13.418076179442005"><ele>730.0</ele><time>2026-05-03T07:10:22.001Z</time></trkpt><trkpt lat="42.35162744168704" lon="13.418229811127588"><ele>730.0</ele><time>2026-05-03T07:10:23.001Z</time></trkpt><trkpt lat="42.351675647299274" lon="13.418359231993277"><ele>730.0</ele><time>2026-05-03T07:10:24.001Z</time></trkpt><trkpt lat="42.351734390992874" lon="13.418469120589158"><ele>730.0</ele><time>2026-05-03T07:10:25.001Z</time></trkpt><trkpt lat="42.35179480708095" lon="13.41855649929668"><ele>730.0</ele><time>2026-05-03T07:10:26.001Z</time></trkpt><trkpt lat="42.351844242431866" lon="13.418625644249149"><ele>730.0</ele><time>2026-05-03T07:10:27.001Z</time></trkpt><trkpt lat="42.351910924598016" lon="13.418752699927047"><ele>730.0</ele><time>2026-05-03T07:10:29.001Z</time></trkpt><trkpt lat="42.351941726468695" lon="13.418901470361986"><ele>730.2</ele><time>2026-05-03T07:10:31.001Z</time></trkpt><trkpt lat="42.351974480735244" lon="13.41897628150059"><ele>730.4</ele><time>2026-05-03T07:10:32.001Z</time></trkpt><trkpt lat="42.352012305081466" lon="13.419054872137318"><ele>730.5999999999999</ele><time>2026-05-03T07:10:33.001Z</time></trkpt><trkpt lat="42.352076952075954" lon="13.419121056250349"><ele>730.8</ele><time>2026-05-03T07:10:34.001Z</time></trkpt><trkpt lat="42.35200210994346" lon="13.419396865164106"><ele>731.0</ele><time>2026-05-03T07:10:35.001Z</time></trkpt><trkpt lat="42.3521880956235" lon="13.419285519935514"><ele>732.8</ele><time>2026-05-03T07:10:36.001Z</time></trkpt><trkpt lat="42.35224236534984" lon="13.419420022346635"><ele>734.5999999999999</ele><time>2026-05-03T07:10:38.001Z</time></trkpt><trkpt lat="42.352259238582256" lon="13.419529879306697"><ele>736.4</ele><time>2026-05-03T07:10:40.001Z</time></trkpt><trkpt lat="42.35231519262757" lon="13.419607817967284"><ele>738.2</ele><time>2026-05-03T07:10:43.001Z</time></trkpt><trkpt lat="42.35230327066094" lon="13.41970871554888"><ele>740.0</ele><time>2026-05-03T07:10:46.001Z</time></trkpt><trkpt lat="42.352307755941105" lon="13.419540743649206"><ele>740.1666666666666</ele><time>2026-05-03T07:10:47.001Z</time></trkpt><trkpt lat="42.3522980338608" lon="13.419436892043603"><ele>740.3333333333333</ele><time>2026-05-03T07:10:49.001Z</time></trkpt><trkpt lat="42.35227494084352" lon="13.419309510486453"><ele>740.5</ele><time>2026-05-03T07:10:51.001Z</time></trkpt><trkpt lat="42.35226018336594" lon="13.419193619270713"><ele>740.6666666666666</ele><time>2026-05-03T07:10:53.001Z</time></trkpt><trkpt lat="42.35226749741675" lon="13.419090668590853"><ele>740.8333333333334</ele><time>2026-05-03T07:10:56.001Z</time></trkpt><trkpt lat="42.35226268009549" lon="13.418980273910469"><ele>741.0</ele><time>2026-05-03T07:10:58.001Z</time></trkpt><trkpt lat="42.35225019217912" lon="13.418850511074112"><ele>739.3333333333334</ele><time>2026-05-03T07:11:00.001Z</time></trkpt><trkpt lat="42.35218958619962" lon="13.418772406951916"><ele>737.6666666666666</ele><time>2026-05-03T07:11:02.001Z</time></trkpt><trkpt lat="42.35208642832651" lon="13.418788904719538"><ele>736.0</ele><time>2026-05-03T07:11:04.001Z</time></trkpt><trkpt lat="42.35203623341228" lon="13.418868346691928"><ele>734.3333333333333</ele><time>2026-05-03T07:11:06.001Z</time></trkpt><trkpt lat="42.35198783014352" lon="13.418975244997213"><ele>732.6666666666666</ele><time>2026-05-03T07:11:09.001Z</time></trkpt><trkpt lat="42.35194353944154" lon="13.41907864405698"><ele>731.0</ele><time>2026-05-03T07:11:12.001Z</time></trkpt><trkpt lat="42.351927564462336" lon="13.419183383570596"><ele>731.0</ele><time>2026-05-03T07:11:14.001Z</time></trkpt><trkpt lat="42.35195306022067" lon="13.419290210661343"><ele>731.0</ele><time>2026-05-03T07:11:15.001Z</time></trkpt><trkpt lat="42.352009775276365" lon="13.419406715927245"><ele>731.0</ele><time>2026-05-03T07:11:16.001Z</time></trkpt><trkpt lat="42.35201708768628" lon="13.419579416274058"><ele>731.0</ele><time>2026-05-03T07:11:17.001Z</time></trkpt><trkpt lat="42.35207881782045" lon="13.419682676481754"><ele>731.0</ele><time>2026-05-03T07:11:18.001Z</time></trkpt><trkpt lat="42.352174593666376" lon="13.419750739081426"><ele>731.4</ele><time>2026-05-03T07:11:19.001Z</time></trkpt><trkpt lat="42.35220047043472" lon="13.419872086719701"><ele>731.8</ele><time>2026-05-03T07:11:20.003Z</time></trkpt><trkpt lat="42.35221884084535" lon="13.419999961473378"><ele>732.1999999999999</ele><time>2026-05-03T07:11:21.003Z</time></trkpt><trkpt lat="42.352225595597666" lon="13.420119436383724"><ele>732.5999999999999</ele><time>2026-05-03T07:11:22.003Z</time></trkpt><trkpt lat="42.35217369858918" lon="13.420219194121232"><ele>733.0</ele><time>2026-05-03T07:11:23.003Z</time></trkpt><trkpt lat="42.35217049090517" lon="13.420329101711685"><ele>733.0</ele><time>2026-05-03T07:11:24.003Z</time></trkpt><trkpt lat="42.35216929486181" lon="13.420448800932109"><ele>733.0</ele><time>2026-05-03T07:11:25.003Z</time></trkpt><trkpt lat="42.35219515831953" lon="13.42056755286226"><ele>733.0</ele><time>2026-05-03T07:11:26.003Z</time></trkpt><trkpt lat="42.352215985353375" lon="13.420693211468434"><ele>733.0</ele><time>2026-05-03T07:11:27.002Z</time></trkpt><trkpt lat="42.352246495620044" lon="13.42082402727428"><ele>733.0</ele><time>2026-05-03T07:11:28.002Z</time></trkpt><trkpt lat="42.35227482503287" lon="13.420962230265314"><ele>734.5999999999999</ele><time>2026-05-03T07:11:29.002Z</time></trkpt><trkpt lat="42.352308702386004" lon="13.421099943186933"><ele>736.1999999999999</ele><time>2026-05-03T07:11:30.002Z</time></trkpt><trkpt lat="42.352335475737995" lon="13.421237770888453"><ele>737.8</ele><time>2026-05-03T07:11:31.002Z</time></trkpt><trkpt lat="42.352369588363054" lon="13.421371338852406"><ele>739.4</ele><time>2026-05-03T07:11:32.002Z</time></trkpt><trkpt lat="42.35239362806422" lon="13.421501566214893"><ele>741.0</ele><time>2026-05-03T07:11:33.002Z</time></trkpt><trkpt lat="42.35241106851922" lon="13.421618164609681"><ele>741.5</ele><time>2026-05-03T07:11:34.002Z</time></trkpt><trkpt lat="42.352405876666616" lon="13.421728489111512"><ele>742.0</ele><time>2026-05-03T07:11:35.002Z</time></trkpt><trkpt lat="42.352373697179736" lon="13.421826080335794"><ele>742.5</ele><time>2026-05-03T07:11:36.002Z</time></trkpt><trkpt lat="42.35236553594379" lon="13.421937392385962"><ele>743.0</ele><time>2026-05-03T07:11:37.002Z</time></trkpt><trkpt lat="42.35235193458027" lon="13.422059390261612"><ele>743.5</ele><time>2026-05-03T07:11:38.002Z</time></trkpt><trkpt lat="42.352338232613754" lon="13.422212970322935"><ele>744.0</ele><time>2026-05-03T07:11:39.001Z</time></trkpt><trkpt lat="42.35234753480914" lon="13.422380504387531"><ele>742.25</ele><time>2026-05-03T07:11:40.001Z</time></trkpt><trkpt lat="42.35236571542952" lon="13.422544229677582"><ele>740.5</ele><time>2026-05-03T07:11:41.001Z</time></trkpt><trkpt lat="42.35238144516757" lon="13.422710794046319"><ele>738.75</ele><time>2026-05-03T07:11:42.001Z</time></trkpt><trkpt lat="42.35240278733773" lon="13.422881197390359"><ele>737.0</ele><time>2026-05-03T07:11:43.001Z</time></trkpt><trkpt lat="42.35242586655294" lon="13.423052560085127"><ele>734.5</ele><time>2026-05-03T07:11:44.001Z</time></trkpt><trkpt lat="42.35244224355633" lon="13.423225545074164"><ele>732.0</ele><time>2026-05-03T07:11:45.001Z</time></trkpt><trkpt lat="42.35244713560354" lon="13.423395666435608"><ele>729.5</ele><time>2026-05-03T07:11:46.001Z</time></trkpt><trkpt lat="42.352441588259666" lon="13.423560242490405"><ele>727.0</ele><time>2026-05-03T07:11:47.001Z</time></trkpt><trkpt lat="42.35241620288466" lon="13.423723637238464"><ele>725.5</ele><time>2026-05-03T07:11:48.001Z</time></trkpt><trkpt lat="42.35239095299815" lon="13.423881236362764"><ele>724.0</ele><time>2026-05-03T07:11:49.001Z</time></trkpt><trkpt lat="42.35236763683202" lon="13.424035393023555"><ele>722.5</ele><time>2026-05-03T07:11:50.001Z</time></trkpt><trkpt lat="42.35234305273642" lon="13.424185218845015"><ele>721.0</ele><time>2026-05-03T07:11:51.001Z</time></trkpt><trkpt lat="42.35231286747861" lon="13.424337405288737"><ele>721.0</ele><time>2026-05-03T07:11:52.001Z</time></trkpt><trkpt lat="42.35228124956283" lon="13.424489247926934"><ele>721.0</ele><time>2026-05-03T07:11:53.001Z</time></trkpt><trkpt lat="42.352246675338954" lon="13.424639123289403"><ele>721.0</ele><time>2026-05-03T07:11:54.001Z</time></trkpt><trkpt lat="42.35220844731494" lon="13.424784620800873"><ele>721.0</ele><time>2026-05-03T07:11:55.001Z</time></trkpt><trkpt lat="42.35218459271205" lon="13.4249383772219"><ele>719.25</ele><time>2026-05-03T07:11:56.001Z</time></trkpt><trkpt lat="42.3521228379875" lon="13.425063111516048"><ele>717.5</ele><time>2026-05-03T07:11:57.001Z</time></trkpt><trkpt lat="42.35205912795106" lon="13.425188074220802"><ele>715.75</ele><time>2026-05-03T07:11:58.001Z</time></trkpt><trkpt lat="42.35199123727239" lon="13.425316720039543"><ele>714.0</ele><time>2026-05-03T07:11:59.001Z</time></trkpt><trkpt lat="42.351922393810476" lon="13.425450136477988"><ele>715.0</ele><time>2026-05-03T07:12:00.001Z</time></trkpt><trkpt lat="42.35185332683528" lon="13.425585477798057"><ele>716.0</ele><time>2026-05-03T07:12:01.001Z</time></trkpt><trkpt lat="42.35178612544654" lon="13.425722400298172"><ele>717.0</ele><time>2026-05-03T07:12:02.001Z</time></trkpt><trkpt lat="42.35172228941915" lon="13.425859797131105"><ele>718.0</ele><time>2026-05-03T07:12:03.001Z</time></trkpt><trkpt lat="42.351661146468956" lon="13.425993732851508"><ele>718.0</ele><time>2026-05-03T07:12:04.001Z</time></trkpt><trkpt lat="42.351604406402686" lon="13.426121694686795"><ele>718.0</ele><time>2026-05-03T07:12:05.001Z</time></trkpt><trkpt lat="42.35155976309167" lon="13.426258027345087"><ele>718.0</ele><time>2026-05-03T07:12:06.001Z</time></trkpt><trkpt lat="42.35151225223117" lon="13.426389498506431"><ele>718.0</ele><time>2026-05-03T07:12:07.001Z</time></trkpt><trkpt lat="42.35147784752244" lon="13.426526444881238"><ele>718.0</ele><time>2026-05-03T07:12:08.001Z</time></trkpt><trkpt lat="42.35144280291529" lon="13.426661614860004"><ele>720.2</ele><time>2026-05-03T07:12:09.001Z</time></trkpt><trkpt lat="42.351406207091465" lon="13.426794707454242"><ele>722.4</ele><time>2026-05-03T07:12:10.001Z</time></trkpt><trkpt lat="42.35137045431603" lon="13.42692745153256"><ele>724.6</ele><time>2026-05-03T07:12:11.001Z</time></trkpt><trkpt lat="42.35135539353262" lon="13.427063361586564"><ele>726.8000000000001</ele><time>2026-05-03T07:12:12.001Z</time></trkpt><trkpt lat="42.351335090991086" lon="13.42718758629177"><ele>729.0</ele><time>2026-05-03T07:12:13.001Z</time></trkpt><trkpt lat="42.351326674267156" lon="13.427300038502548"><ele>730.0</ele><time>2026-05-03T07:12:14.001Z</time></trkpt><trkpt lat="42.351315355805276" lon="13.427398747206318"><ele>731.0</ele><time>2026-05-03T07:12:15.001Z</time></trkpt><trkpt lat="42.351297928634956" lon="13.427489005492827"><ele>732.0</ele><time>2026-05-03T07:12:16.001Z</time></trkpt><trkpt lat="42.35126028470739" lon="13.427566314462059"><ele>733.0</ele><time>2026-05-03T07:12:17.001Z</time></trkpt><trkpt lat="42.35122506810759" lon="13.427639873331609"><ele>734.0</ele><time>2026-05-03T07:12:18.001Z</time></trkpt><trkpt lat="42.351156346444924" lon="13.427762085897927"><ele>735.0</ele><time>2026-05-03T07:12:20.001Z</time></trkpt><trkpt lat="42.35109310217264" lon="13.427871494896388"><ele>735.0</ele><time>2026-05-03T07:12:22.001Z</time></trkpt><trkpt lat="42.351062244122275" lon="13.427948375438406"><ele>735.0</ele><time>2026-05-03T07:12:23.001Z</time></trkpt><trkpt lat="42.35102529037545" lon="13.428088257929387"><ele>735.0</ele><time>2026-05-03T07:12:25.001Z</time></trkpt><trkpt lat="42.35108595054577" lon="13.42817590609404"><ele>735.0</ele><time>2026-05-03T07:12:27.001Z</time></trkpt><trkpt lat="42.35115454235081" lon="13.428244911484521"><ele>735.0</ele><time>2026-05-03T07:12:45Z</time></trkpt><trkpt lat="42.3512220603349" lon="13.428281335060735"><ele>735.0</ele><time>2026-05-03T07:12:47Z</time></trkpt><trkpt lat="42.35132699659102" lon="13.428329206328273"><ele>736.0</ele><time>2026-05-03T07:12:49Z</time></trkpt><trkpt lat="42.351387978871266" lon="13.428384811949376"><ele>737.0</ele><time>2026-05-03T07:12:50Z</time></trkpt><trkpt lat="42.35146149302377" lon="13.428421651643749"><ele>738.0</ele><time>2026-05-03T07:12:51Z</time></trkpt><trkpt lat="42.351534353680215" lon="13.428453840789771"><ele>739.0</ele><time>2026-05-03T07:12:52Z</time></trkpt><trkpt lat="42.35159524441303" lon="13.428482844426759"><ele>740.0</ele><time>2026-05-03T07:12:53Z</time></trkpt><trkpt lat="42.351650921310885" lon="13.428550274706614"><ele>741.0</ele><time>2026-05-03T07:12:54Z</time></trkpt><trkpt lat="42.35170854313692" lon="13.42863250842034"><ele>741.0</ele><time>2026-05-03T07:12:54.999Z</time></trkpt><trkpt lat="42.35174835237536" lon="13.42872873177265"><ele>741.0</ele><time>2026-05-03T07:12:55.999Z</time></trkpt><trkpt lat="42.35179613016068" lon="13.428800727392971"><ele>741.0</ele><time>2026-05-03T07:12:56.999Z</time></trkpt><trkpt lat="42.35182760660491" lon="13.428874863677994"><ele>741.0</ele><time>2026-05-03T07:12:57.999Z</time></trkpt><trkpt lat="42.351890568301485" lon="13.428984396926806"><ele>741.0</ele><time>2026-05-03T07:12:59.999Z</time></trkpt><trkpt lat="42.35182598671852" lon="13.429152681194244"><ele>741.1999999999999</ele><time>2026-05-03T07:13:00.999Z</time></trkpt><trkpt lat="42.35178739258264" lon="13.429282257785053"><ele>741.4</ele><time>2026-05-03T07:13:01.999Z</time></trkpt><trkpt lat="42.35173425235256" lon="13.429426218817234"><ele>741.6</ele><time>2026-05-03T07:13:02.999Z</time></trkpt><trkpt lat="42.351682877689235" lon="13.429560798166875"><ele>741.8</ele><time>2026-05-03T07:13:03.999Z</time></trkpt><trkpt lat="42.35164119513254" lon="13.429693325370414"><ele>742.0</ele><time>2026-05-03T07:13:04.999Z</time></trkpt><trkpt lat="42.35159210821611" lon="13.429801756929384"><ele>742.3333333333334</ele><time>2026-05-03T07:13:05.999Z</time></trkpt><trkpt lat="42.35155537564676" lon="13.429908026195104"><ele>742.6666666666667</ele><time>2026-05-03T07:13:06.999Z</time></trkpt><trkpt lat="42.35150495088601" lon="13.4299743117094"><ele>743.0</ele><time>2026-05-03T07:13:08Z</time></trkpt><trkpt lat="42.35145116043368" lon="13.430023088168609"><ele>743.3333333333334</ele><time>2026-05-03T07:13:08.999Z</time></trkpt><trkpt lat="42.35138448052624" lon="13.430042942896048"><ele>743.6666666666666</ele><time>2026-05-03T07:13:09.999Z</time></trkpt><trkpt lat="42.351326065022" lon="13.430093979131634"><ele>744.0</ele><time>2026-05-03T07:13:10.999Z</time></trkpt><trkpt lat="42.35123010166888" lon="13.43002407831187"><ele>742.0</ele><time>2026-05-03T07:13:11.999Z</time></trkpt><trkpt lat="42.35114933118071" lon="13.430007817762636"><ele>740.0</ele><time>2026-05-03T07:13:12.999Z</time></trkpt><trkpt lat="42.35106202070008" lon="13.429990994592021"><ele>738.0</ele><time>2026-05-03T07:13:13.999Z</time></trkpt><trkpt lat="42.35096812830601" lon="13.4299683945328"><ele>736.0</ele><time>2026-05-03T07:13:14.999Z</time></trkpt><trkpt lat="42.350877492592936" lon="13.429949608273494"><ele>734.0</ele><time>2026-05-03T07:13:15.999Z</time></trkpt><trkpt lat="42.35081310933137" lon="13.429923452339136"><ele>732.0</ele><time>2026-05-03T07:13:16.999Z</time></trkpt><trkpt lat="42.35075031439032" lon="13.429903682179974"><ele>732.0</ele><time>2026-05-03T07:13:18.999Z</time></trkpt><trkpt lat="42.3506860463144" lon="13.430028378953306"><ele>732.0</ele><time>2026-05-03T07:13:20.999Z</time></trkpt><trkpt lat="42.350595059620375" lon="13.430116279426398"><ele>732.0</ele><time>2026-05-03T07:13:22.999Z</time></trkpt><trkpt lat="42.350530729851414" lon="13.430169642400104"><ele>732.0</ele><time>2026-05-03T07:13:23.999Z</time></trkpt><trkpt lat="42.35046383128486" lon="13.430257236528739"><ele>732.0</ele><time>2026-05-03T07:13:24.999Z</time></trkpt><trkpt lat="42.35039012321934" lon="13.430367161970029"><ele>731.0</ele><time>2026-05-03T07:13:25.999Z</time></trkpt><trkpt lat="42.35030950887551" lon="13.430488846316754"><ele>730.0</ele><time>2026-05-03T07:13:26.999Z</time></trkpt><trkpt lat="42.35023358237468" lon="13.430612390558428"><ele>729.0</ele><time>2026-05-03T07:13:27.999Z</time></trkpt><trkpt lat="42.35015789528404" lon="13.430715314767221"><ele>728.0</ele><time>2026-05-03T07:13:28.999Z</time></trkpt><trkpt lat="42.35008408885361" lon="13.430814593133277"><ele>728.0</ele><time>2026-05-03T07:13:29.999Z</time></trkpt><trkpt lat="42.349998236987624" lon="13.430885385686041"><ele>728.0</ele><time>2026-05-03T07:13:30.999Z</time></trkpt><trkpt lat="42.34990617619736" lon="13.430942081677026"><ele>728.0</ele><time>2026-05-03T07:13:31.999Z</time></trkpt><trkpt lat="42.34980934358862" lon="13.431000138617332"><ele>728.0</ele><time>2026-05-03T07:13:32.999Z</time></trkpt><trkpt lat="42.34970588339171" lon="13.431037480871192"><ele>728.0</ele><time>2026-05-03T07:13:33.999Z</time></trkpt><trkpt lat="42.34960489891531" lon="13.43104116997291"><ele>726.8333333333333</ele><time>2026-05-03T07:13:34.999Z</time></trkpt><trkpt lat="42.34951328025504" lon="13.431020761153311"><ele>725.6666666666666</ele><time>2026-05-03T07:13:35.999Z</time></trkpt><trkpt lat="42.349430571661294" lon="13.430993139112761"><ele>724.5</ele><time>2026-05-03T07:13:36.999Z</time></trkpt><trkpt lat="42.34935212099286" lon="13.430984026325595"><ele>723.3333333333334</ele><time>2026-05-03T07:13:37.999Z</time></trkpt><trkpt lat="42.34926856375863" lon="13.43099942889685"><ele>722.1666666666667</ele><time>2026-05-03T07:13:38.999Z</time></trkpt><trkpt lat="42.349178211329324" lon="13.431037678682522"><ele>721.0</ele><time>2026-05-03T07:13:39.999Z</time></trkpt><trkpt lat="42.349077747230034" lon="13.431086477022575"><ele>721.0</ele><time>2026-05-03T07:13:40.999Z</time></trkpt><trkpt lat="42.34897614067156" lon="13.431142371406809"><ele>721.0</ele><time>2026-05-03T07:13:41.999Z</time></trkpt><trkpt lat="42.348874476519434" lon="13.431179458818828"><ele>721.0</ele><time>2026-05-03T07:13:42.999Z</time></trkpt><trkpt lat="42.3487817621726" lon="13.431241891553245"><ele>721.0</ele><time>2026-05-03T07:13:43.999Z</time></trkpt><trkpt lat="42.34869072964775" lon="13.431314058221592"><ele>721.0</ele><time>2026-05-03T07:13:44.999Z</time></trkpt><trkpt lat="42.348603889550525" lon="13.431386100963604"><ele>721.0</ele><time>2026-05-03T07:13:45.999Z</time></trkpt><trkpt lat="42.34851928872053" lon="13.431444934033818"><ele>721.0</ele><time>2026-05-03T07:13:46.999Z</time></trkpt><trkpt lat="42.348431759144965" lon="13.431491519376445"><ele>721.0</ele><time>2026-05-03T07:13:47.999Z</time></trkpt><trkpt lat="42.348343137852886" lon="13.43153516657093"><ele>721.0</ele><time>2026-05-03T07:13:48.999Z</time></trkpt><trkpt lat="42.348254433848794" lon="13.431572755150588"><ele>721.0</ele><time>2026-05-03T07:13:49.999Z</time></trkpt><trkpt lat="42.348165660819866" lon="13.431605094397419"><ele>721.0</ele><time>2026-05-03T07:13:50.999Z</time></trkpt><trkpt lat="42.34807592672868" lon="13.43163510437041"><ele>721.0</ele><time>2026-05-03T07:13:51.999Z</time></trkpt><trkpt lat="42.34799056418515" lon="13.431673750287745"><ele>721.0</ele><time>2026-05-03T07:13:52.999Z</time></trkpt><trkpt lat="42.34790807066781" lon="13.431714948563233"><ele>721.0</ele><time>2026-05-03T07:13:53.999Z</time></trkpt><trkpt lat="42.34782748106758" lon="13.43175845977285"><ele>721.0</ele><time>2026-05-03T07:13:54.999Z</time></trkpt><trkpt lat="42.34774658645423" lon="13.431805368942218"><ele>721.0</ele><time>2026-05-03T07:13:55.999Z</time></trkpt><trkpt lat="42.34766763416799" lon="13.43184783845491"><ele>719.0</ele><time>2026-05-03T07:13:56.999Z</time></trkpt><trkpt lat="42.34758377911831" lon="13.431906251822745"><ele>717.0</ele><time>2026-05-03T07:13:57.999Z</time></trkpt><trkpt lat="42.34750509995851" lon="13.431960089211033"><ele>715.0</ele><time>2026-05-03T07:13:58.999Z</time></trkpt><trkpt lat="42.34741779027996" lon="13.432009620654945"><ele>713.0</ele><time>2026-05-03T07:13:59.999Z</time></trkpt><trkpt lat="42.34732615603332" lon="13.432060495642547"><ele>711.0</ele><time>2026-05-03T07:14:00.999Z</time></trkpt><trkpt lat="42.34723700302577" lon="13.432109377323915"><ele>711.4</ele><time>2026-05-03T07:14:01.999Z</time></trkpt><trkpt lat="42.34714556108378" lon="13.432157325923955"><ele>711.8</ele><time>2026-05-03T07:14:02.999Z</time></trkpt><trkpt lat="42.34705142769403" lon="13.432206851957579"><ele>712.1999999999999</ele><time>2026-05-03T07:14:03.999Z</time></trkpt><trkpt lat="42.34695599278859" lon="13.432259248184119"><ele>712.5999999999999</ele><time>2026-05-03T07:14:04.999Z</time></trkpt><trkpt lat="42.34686447983923" lon="13.432317794767815"><ele>713.0</ele><time>2026-05-03T07:14:05.999Z</time></trkpt><trkpt lat="42.34677510636711" lon="13.432393943542742"><ele>713.0</ele><time>2026-05-03T07:14:06.999Z</time></trkpt><trkpt lat="42.34673508084158" lon="13.432547455378039"><ele>713.0</ele><time>2026-05-03T07:14:07.999Z</time></trkpt><trkpt lat="42.34665662671836" lon="13.43263097481881"><ele>713.0</ele><time>2026-05-03T07:14:08.999Z</time></trkpt><trkpt lat="42.34657611379086" lon="13.43271273489789"><ele>713.0</ele><time>2026-05-03T07:14:09.999Z</time></trkpt><trkpt lat="42.34649593567522" lon="13.432791579398028"><ele>713.0</ele><time>2026-05-03T07:14:10.999Z</time></trkpt><trkpt lat="42.3464157373426" lon="13.43286541442973"><ele>713.1666666666666</ele><time>2026-05-03T07:14:11.999Z</time></trkpt><trkpt lat="42.346336616689925" lon="13.432933334174228"><ele>713.3333333333333</ele><time>2026-05-03T07:14:12.999Z</time></trkpt><trkpt lat="42.34625814674386" lon="13.432980749799421"><ele>713.5</ele><time>2026-05-03T07:14:13.999Z</time></trkpt><trkpt lat="42.34618827757558" lon="13.433028536352259"><ele>713.6666666666666</ele><time>2026-05-03T07:14:14.999Z</time></trkpt><trkpt lat="42.34611675378526" lon="13.433069068967447"><ele>713.8333333333334</ele><time>2026-05-03T07:14:15.999Z</time></trkpt><trkpt lat="42.34605205593374" lon="13.433113476561688"><ele>714.0</ele><time>2026-05-03T07:14:16.999Z</time></trkpt><trkpt lat="42.345989357078196" lon="13.433155957787287"><ele>714.0</ele><time>2026-05-03T07:14:17.999Z</time></trkpt><trkpt lat="42.34593191008341" lon="13.433199071201688"><ele>714.0</ele><time>2026-05-03T07:14:18.999Z</time></trkpt><trkpt lat="42.34585576595569" lon="13.4331337108806"><ele>714.0</ele><time>2026-05-03T07:14:19.999Z</time></trkpt><trkpt lat="42.345794749184414" lon="13.433166534309779"><ele>714.0</ele><time>2026-05-03T07:14:21.999Z</time></trkpt><trkpt lat="42.345705375865826" lon="13.433207969982385"><ele>714.0</ele><time>2026-05-03T07:14:25.999Z</time></trkpt><trkpt lat="42.34563395989135" lon="13.433231131899822"><ele>714.0</ele><time>2026-05-03T07:14:27.999Z</time></trkpt><trkpt lat="42.34555297711505" lon="13.433248084285616"><ele>709.6666666666666</ele><time>2026-05-03T07:14:29.999Z</time></trkpt><trkpt lat="42.345443575424504" lon="13.433271960435077"><ele>705.3333333333333</ele><time>2026-05-03T07:14:31.999Z</time></trkpt><trkpt lat="42.34536871059507" lon="13.433256757200795"><ele>701.0</ele><time>2026-05-03T07:14:33.999Z</time></trkpt><trkpt lat="42.345315800130535" lon="13.433712564239098"><ele>701.0</ele><time>2026-05-03T07:14:34.999Z</time></trkpt><trkpt lat="42.3452660566699" lon="13.4338045795091"><ele>701.0</ele><time>2026-05-03T07:14:35.999Z</time></trkpt><trkpt lat="42.34520956483639" lon="13.43390815996773"><ele>701.0</ele><time>2026-05-03T07:14:36.999Z</time></trkpt><trkpt lat="42.345163126980864" lon="13.434028341564199"><ele>701.0</ele><time>2026-05-03T07:14:37.999Z</time></trkpt><trkpt lat="42.34511337117031" lon="13.434151277652111"><ele>701.0</ele><time>2026-05-03T07:14:38.999Z</time></trkpt><trkpt lat="42.34505576955585" lon="13.434271065595917"><ele>702.1999999999999</ele><time>2026-05-03T07:14:39.999Z</time></trkpt><trkpt lat="42.345000519889055" lon="13.434390729589035"><ele>703.4</ele><time>2026-05-03T07:14:40.999Z</time></trkpt><trkpt lat="42.344948813744864" lon="13.43451187829968"><ele>704.6</ele><time>2026-05-03T07:14:41.999Z</time></trkpt><trkpt lat="42.34489013794289" lon="13.434627808128916"><ele>705.8</ele><time>2026-05-03T07:14:42.999Z</time></trkpt><trkpt lat="42.3448328575255" lon="13.434739837403646"><ele>707.0</ele><time>2026-05-03T07:14:43.999Z</time></trkpt><trkpt lat="42.34478986886904" lon="13.434847678613076"><ele>708.1666666666666</ele><time>2026-05-03T07:14:44.999Z</time></trkpt><trkpt lat="42.34474647912743" lon="13.434940889329525"><ele>709.3333333333333</ele><time>2026-05-03T07:14:45.999Z</time></trkpt><trkpt lat="42.34470650034666" lon="13.43503374484093"><ele>710.5</ele><time>2026-05-03T07:14:46.999Z</time></trkpt><trkpt lat="42.34466122239391" lon="13.435133938582368"><ele>711.6666666666666</ele><time>2026-05-03T07:14:47.999Z</time></trkpt><trkpt lat="42.344615629839865" lon="13.435238019930209"><ele>712.8333333333334</ele><time>2026-05-03T07:14:48.999Z</time></trkpt><trkpt lat="42.34457420830797" lon="13.43534402746855"><ele>714.0</ele><time>2026-05-03T07:14:49.999Z</time></trkpt><trkpt lat="42.34453494953271" lon="13.435447994049808"><ele>711.1666666666666</ele><time>2026-05-03T07:14:50.999Z</time></trkpt><trkpt lat="42.34449242734279" lon="13.435544377665908"><ele>708.3333333333334</ele><time>2026-05-03T07:14:51.999Z</time></trkpt><trkpt lat="42.34444415590223" lon="13.435632839985507"><ele>705.5</ele><time>2026-05-03T07:14:52.999Z</time></trkpt><trkpt lat="42.34440565479629" lon="13.435718707794873"><ele>702.6666666666667</ele><time>2026-05-03T07:14:53.999Z</time></trkpt><trkpt lat="42.34437621391841" lon="13.435810625890008"><ele>699.8333333333334</ele><time>2026-05-03T07:14:54.999Z</time></trkpt><trkpt lat="42.344352763291745" lon="13.435915341175058"><ele>697.0</ele><time>2026-05-03T07:14:55.999Z</time></trkpt><trkpt lat="42.34432816600639" lon="13.436028023339851"><ele>697.0</ele><time>2026-05-03T07:14:56.999Z</time></trkpt><trkpt lat="42.34430484528923" lon="13.436131082816026"><ele>697.0</ele><time>2026-05-03T07:14:57.999Z</time></trkpt><trkpt lat="42.34429006360406" lon="13.436218407035117"><ele>697.0</ele><time>2026-05-03T07:14:58.999Z</time></trkpt><trkpt lat="42.344285562400735" lon="13.436353886715281"><ele>697.0</ele><time>2026-05-03T07:15:00.999Z</time></trkpt><trkpt lat="42.34427720344279" lon="13.436455052329784"><ele>697.0</ele><time>2026-05-03T07:15:02.999Z</time></trkpt><trkpt lat="42.344275690879776" lon="13.436568293799148"><ele>697.0</ele><time>2026-05-03T07:15:04.999Z</time></trkpt><trkpt lat="42.344244354123894" lon="13.43674126761188"><ele>696.8</ele><time>2026-05-03T07:15:06.999Z</time></trkpt><trkpt lat="42.344230783086" lon="13.43684078755314"><ele>696.6</ele><time>2026-05-03T07:15:07.999Z</time></trkpt><trkpt lat="42.34421097084497" lon="13.436942155410746"><ele>696.4</ele><time>2026-05-03T07:15:08.999Z</time></trkpt><trkpt lat="42.344180464108284" lon="13.437033900107133"><ele>696.1999999999999</ele><time>2026-05-03T07:15:09.999Z</time></trkpt><trkpt lat="42.34415081201636" lon="13.43718419407071"><ele>696.0</ele><time>2026-05-03T07:15:11.999Z</time></trkpt><trkpt lat="42.34413477242644" lon="13.437335203982935"><ele>697.1666666666666</ele><time>2026-05-03T07:15:13.999Z</time></trkpt><trkpt lat="42.344100218126776" lon="13.437512675784186"><ele>698.3333333333334</ele><time>2026-05-03T07:15:15.999Z</time></trkpt><trkpt lat="42.344079528959355" lon="13.437613853235973"><ele>699.5</ele><time>2026-05-03T07:15:16.999Z</time></trkpt><trkpt lat="42.34406621978243" lon="13.4377122189729"><ele>700.6666666666667</ele><time>2026-05-03T07:15:17.999Z</time></trkpt><trkpt lat="42.34404352629653" lon="13.437812257558214"><ele>701.8333333333334</ele><time>2026-05-03T07:15:18.999Z</time></trkpt><trkpt lat="42.34403705566088" lon="13.437917053804615"><ele>703.0</ele><time>2026-05-03T07:15:19.999Z</time></trkpt><trkpt lat="42.344023587221606" lon="13.43802324869663"><ele>704.1428571428571</ele><time>2026-05-03T07:15:20.999Z</time></trkpt><trkpt lat="42.34401347297625" lon="13.438128219291261"><ele>705.2857142857143</ele><time>2026-05-03T07:15:21.999Z</time></trkpt><trkpt lat="42.34400088201717" lon="13.438214952886383"><ele>706.4285714285714</ele><time>2026-05-03T07:15:22.999Z</time></trkpt><trkpt lat="42.343980039741325" lon="13.43830053710334"><ele>707.5714285714286</ele><time>2026-05-03T07:15:23.999Z</time></trkpt><trkpt lat="42.343946269908166" lon="13.438386734814122"><ele>708.7142857142857</ele><time>2026-05-03T07:15:24.999Z</time></trkpt><trkpt lat="42.34391422117757" lon="13.438479745239308"><ele>709.8571428571429</ele><time>2026-05-03T07:15:25.999Z</time></trkpt><trkpt lat="42.3438784347942" lon="13.438568961835268"><ele>711.0</ele><time>2026-05-03T07:15:26.999Z</time></trkpt><trkpt lat="42.34382461520567" lon="13.43863264719799"><ele>708.5</ele><time>2026-05-03T07:15:27.999Z</time></trkpt><trkpt lat="42.343756828279645" lon="13.438683444618773"><ele>706.0</ele><time>2026-05-03T07:15:28.999Z</time></trkpt><trkpt lat="42.34368335096948" lon="13.438720520764798"><ele>703.5</ele><time>2026-05-03T07:15:29.999Z</time></trkpt><trkpt lat="42.343612512758966" lon="13.438767082303697"><ele>701.0</ele><time>2026-05-03T07:15:30.999Z</time></trkpt><trkpt lat="42.34354469373635" lon="13.43884568901594"><ele>698.5</ele><time>2026-05-03T07:15:31.999Z</time></trkpt><trkpt lat="42.34347617539161" lon="13.438932298731562"><ele>696.0</ele><time>2026-05-03T07:15:32.999Z</time></trkpt><trkpt lat="42.343423611490344" lon="13.43901256104616"><ele>696.0</ele><time>2026-05-03T07:15:33.999Z</time></trkpt><trkpt lat="42.34336636957192" lon="13.439075921564141"><ele>696.0</ele><time>2026-05-03T07:15:34.999Z</time></trkpt><trkpt lat="42.343311575012926" lon="13.439141132727343"><ele>696.0</ele><time>2026-05-03T07:15:35.999Z</time></trkpt><trkpt lat="42.343268443433665" lon="13.439221771800462"><ele>696.0</ele><time>2026-05-03T07:15:36.999Z</time></trkpt><trkpt lat="42.34322582796933" lon="13.439297881450491"><ele>696.0</ele><time>2026-05-03T07:15:37.999Z</time></trkpt><trkpt lat="42.34317910345468" lon="13.439366575728855"><ele>696.0</ele><time>2026-05-03T07:15:38.999Z</time></trkpt><trkpt lat="42.34313189187713" lon="13.43942982657751"><ele>696.0</ele><time>2026-05-03T07:15:39.999Z</time></trkpt><trkpt lat="42.34308910723028" lon="13.439493014942913"><ele>695.5999999999999</ele><time>2026-05-03T07:15:40.999Z</time></trkpt><trkpt lat="42.342986217184716" lon="13.439569783920412"><ele>695.2</ele><time>2026-05-03T07:15:42.999Z</time></trkpt><trkpt lat="42.342871351440934" lon="13.439619200943755"><ele>694.8</ele><time>2026-05-03T07:15:44.999Z</time></trkpt><trkpt lat="42.34274614022055" lon="13.439636555226878"><ele>694.4000000000001</ele><time>2026-05-03T07:15:46.999Z</time></trkpt><trkpt lat="42.3426802704707" lon="13.43963412363774"><ele>694.0</ele><time>2026-05-03T07:15:47.999Z</time></trkpt><trkpt lat="42.3425783467629" lon="13.439630527875233"><ele>694.0</ele><time>2026-05-03T07:15:49.999Z</time></trkpt><trkpt lat="42.34249898097754" lon="13.439673295904168"><ele>694.0</ele><time>2026-05-03T07:15:51.999Z</time></trkpt><trkpt lat="42.34240986293277" lon="13.439746898594356"><ele>694.0</ele><time>2026-05-03T07:15:53.999Z</time></trkpt><trkpt lat="42.34230276226996" lon="13.439810192637553"><ele>694.0</ele><time>2026-05-03T07:15:55.999Z</time></trkpt><trkpt lat="42.34219070514816" lon="13.439859759005708"><ele>694.0</ele><time>2026-05-03T07:15:57.999Z</time></trkpt><trkpt lat="42.342085543045684" lon="13.439901962914384"><ele>692.0</ele><time>2026-05-03T07:15:59.999Z</time></trkpt><trkpt lat="42.34196841372998" lon="13.4399290520943"><ele>690.0</ele><time>2026-05-03T07:16:01.999Z</time></trkpt><trkpt lat="42.341869790606864" lon="13.439969966089686"><ele>688.0</ele><time>2026-05-03T07:16:03.999Z</time></trkpt><trkpt lat="42.341778426820206" lon="13.439981476654811"><ele>686.0</ele><time>2026-05-03T07:16:05.999Z</time></trkpt><trkpt lat="42.34165665357879" lon="13.43997013976591"><ele>684.0</ele><time>2026-05-03T07:16:07.999Z</time></trkpt><trkpt lat="42.341592496866674" lon="13.439954490409852"><ele>684.0</ele><time>2026-05-03T07:16:08.999Z</time></trkpt><trkpt lat="42.341511236535865" lon="13.439982717482437"><ele>684.0</ele><time>2026-05-03T07:16:10.999Z</time></trkpt><trkpt lat="42.341414839661596" lon="13.440038083446014"><ele>684.0</ele><time>2026-05-03T07:16:13.999Z</time></trkpt><trkpt lat="42.34135063046925" lon="13.440114931742235"><ele>684.0</ele><time>2026-05-03T07:16:15.999Z</time></trkpt><trkpt lat="42.341269096598644" lon="13.440130638416026"><ele>684.0</ele><time>2026-05-03T07:16:17.999Z</time></trkpt><trkpt lat="42.34121440392985" lon="13.440214077392556"><ele>684.0</ele><time>2026-05-03T07:16:19.999Z</time></trkpt><trkpt lat="42.34113552476372" lon="13.440284731986516"><ele>681.8000000000001</ele><time>2026-05-03T07:16:21.999Z</time></trkpt><trkpt lat="42.34102838346551" lon="13.440315459379702"><ele>679.6</ele><time>2026-05-03T07:16:23.999Z</time></trkpt><trkpt lat="42.34090471685319" lon="13.440375103622026"><ele>677.4</ele><time>2026-05-03T07:16:25.999Z</time></trkpt><trkpt lat="42.34082782877597" lon="13.440416959854193"><ele>675.2</ele><time>2026-05-03T07:16:26.999Z</time></trkpt><trkpt lat="42.34076367643533" lon="13.440445300137277"><ele>673.0</ele><time>2026-05-03T07:16:27.999Z</time></trkpt><trkpt lat="42.34070824813921" lon="13.44048775890257"><ele>672.5</ele><time>2026-05-03T07:16:28.999Z</time></trkpt><trkpt lat="42.34060317616167" lon="13.440592552448837"><ele>672.0</ele><time>2026-05-03T07:16:30.999Z</time></trkpt><trkpt lat="42.340557458294896" lon="13.440670503033944"><ele>671.5</ele><time>2026-05-03T07:16:31.999Z</time></trkpt><trkpt lat="42.34051023579405" lon="13.44074647064108"><ele>671.0</ele><time>2026-05-03T07:16:32.999Z</time></trkpt><trkpt lat="42.340469969034366" lon="13.440846399955706"><ele>670.5</ele><time>2026-05-03T07:16:33.999Z</time></trkpt><trkpt lat="42.34043620695445" lon="13.440939512391095"><ele>670.0</ele><time>2026-05-03T07:16:34.999Z</time></trkpt><trkpt lat="42.340398000327" lon="13.441029375037775"><ele>668.5</ele><time>2026-05-03T07:16:35.999Z</time></trkpt><trkpt lat="42.34034518623463" lon="13.441136038597946"><ele>667.0</ele><time>2026-05-03T07:16:37.999Z</time></trkpt><trkpt lat="42.340315469798256" lon="13.44122976291737"><ele>665.5</ele><time>2026-05-03T07:16:39.999Z</time></trkpt><trkpt lat="42.340299737064846" lon="13.441347930677603"><ele>664.0</ele><time>2026-05-03T07:16:40.999Z</time></trkpt><trkpt lat="42.340284699280346" lon="13.441448566280906"><ele>662.5</ele><time>2026-05-03T07:16:41.999Z</time></trkpt><trkpt lat="42.34025120947482" lon="13.441540195130129"><ele>661.0</ele><time>2026-05-03T07:16:42.999Z</time></trkpt><trkpt lat="42.34021680161513" lon="13.441638664196828"><ele>660.1666666666667</ele><time>2026-05-03T07:16:43.999Z</time></trkpt><trkpt lat="42.34017906215382" lon="13.44174749569216"><ele>659.3333333333334</ele><time>2026-05-03T07:16:44.999Z</time></trkpt><trkpt lat="42.34014136046331" lon="13.441863907844755"><ele>658.5</ele><time>2026-05-03T07:16:45.999Z</time></trkpt><trkpt lat="42.34010350761853" lon="13.44196564909958"><ele>657.6666666666666</ele><time>2026-05-03T07:16:46.999Z</time></trkpt><trkpt lat="42.3400649220473" lon="13.442067658970915"><ele>656.8333333333333</ele><time>2026-05-03T07:16:47.999Z</time></trkpt><trkpt lat="42.34003793401939" lon="13.44219187862498"><ele>656.0</ele><time>2026-05-03T07:16:48.999Z</time></trkpt><trkpt lat="42.34000027683624" lon="13.442316436868163"><ele>655.5</ele><time>2026-05-03T07:16:49.999Z</time></trkpt><trkpt lat="42.33996785472316" lon="13.442438472899667"><ele>655.0</ele><time>2026-05-03T07:16:50.999Z</time></trkpt><trkpt lat="42.339940387533424" lon="13.442546410638547"><ele>654.5</ele><time>2026-05-03T07:16:51.999Z</time></trkpt><trkpt lat="42.33991229671697" lon="13.44264310016705"><ele>654.0</ele><time>2026-05-03T07:16:52.999Z</time></trkpt><trkpt lat="42.339888345299656" lon="13.44274755909422"><ele>653.5</ele><time>2026-05-03T07:16:53.999Z</time></trkpt><trkpt lat="42.33986643540461" lon="13.442872952796952"><ele>653.0</ele><time>2026-05-03T07:16:54.999Z</time></trkpt><trkpt lat="42.339842351468306" lon="13.442982151038438"><ele>653.0</ele><time>2026-05-03T07:16:55.999Z</time></trkpt><trkpt lat="42.33982431017297" lon="13.443078125479909"><ele>653.0</ele><time>2026-05-03T07:16:56.999Z</time></trkpt><trkpt lat="42.339800834089374" lon="13.44318150723423"><ele>653.0</ele><time>2026-05-03T07:16:57.999Z</time></trkpt><trkpt lat="42.339762270465656" lon="13.443284442564998"><ele>653.0</ele><time>2026-05-03T07:16:58.999Z</time></trkpt><trkpt lat="42.33971529270654" lon="13.44337217107686"><ele>653.0</ele><time>2026-05-03T07:16:59.999Z</time></trkpt><trkpt lat="42.339644569202676" lon="13.443452276591351"><ele>653.0</ele><time>2026-05-03T07:17:00.999Z</time></trkpt><trkpt lat="42.33955422767899" lon="13.443529717514549"><ele>653.0</ele><time>2026-05-03T07:17:01.999Z</time></trkpt><trkpt lat="42.33947464639782" lon="13.443607085751298"><ele>653.0</ele><time>2026-05-03T07:17:02.999Z</time></trkpt><trkpt lat="42.339396325839395" lon="13.443687267427203"><ele>653.0</ele><time>2026-05-03T07:17:03.999Z</time></trkpt><trkpt lat="42.339323172858" lon="13.443768803635436"><ele>653.0</ele><time>2026-05-03T07:17:04.999Z</time></trkpt><trkpt lat="42.33926472526769" lon="13.443831858571798"><ele>653.0</ele><time>2026-05-03T07:17:05.999Z</time></trkpt><trkpt lat="42.339209000874405" lon="13.443895596335944"><ele>653.0</ele><time>2026-05-03T07:17:06.999Z</time></trkpt><trkpt lat="42.33914010786008" lon="13.443978405224348"><ele>653.0</ele><time>2026-05-03T07:17:07.999Z</time></trkpt><trkpt lat="42.3390827454977" lon="13.444056946942483"><ele>653.0</ele><time>2026-05-03T07:17:08.999Z</time></trkpt><trkpt lat="42.33903879717449" lon="13.444153382326695"><ele>653.0</ele><time>2026-05-03T07:17:09.999Z</time></trkpt><trkpt lat="42.339009940637816" lon="13.444240905136523"><ele>653.0</ele><time>2026-05-03T07:17:10.999Z</time></trkpt><trkpt lat="42.33898107557042" lon="13.444385960953264"><ele>653.0</ele><time>2026-05-03T07:17:12.999Z</time></trkpt><trkpt lat="42.33897876514696" lon="13.444530814596463"><ele>652.8</ele><time>2026-05-03T07:17:14.999Z</time></trkpt><trkpt lat="42.33899748661822" lon="13.444665510158778"><ele>652.5999999999999</ele><time>2026-05-03T07:17:16.999Z</time></trkpt><trkpt lat="42.33899757074638" lon="13.444829521903873"><ele>652.4000000000001</ele><time>2026-05-03T07:17:18.999Z</time></trkpt><trkpt lat="42.33898307695612" lon="13.444927175151056"><ele>652.2</ele><time>2026-05-03T07:17:19.999Z</time></trkpt><trkpt lat="42.33895955738271" lon="13.445065419558933"><ele>652.0</ele><time>2026-05-03T07:17:20.999Z</time></trkpt><trkpt lat="42.33895447597904" lon="13.445175544592225"><ele>652.0</ele><time>2026-05-03T07:17:21.999Z</time></trkpt><trkpt lat="42.33893933001478" lon="13.445312783098625"><ele>652.0</ele><time>2026-05-03T07:17:22.999Z</time></trkpt><trkpt lat="42.33891797735374" lon="13.445454914378672"><ele>652.0</ele><time>2026-05-03T07:17:23.999Z</time></trkpt><trkpt lat="42.338886411062546" lon="13.445599338521856"><ele>652.0</ele><time>2026-05-03T07:17:24.999Z</time></trkpt><trkpt lat="42.338846374373254" lon="13.445759729960795"><ele>652.0</ele><time>2026-05-03T07:17:25.999Z</time></trkpt><trkpt lat="42.33880714732813" lon="13.445898334985143"><ele>649.0</ele><time>2026-05-03T07:17:26.999Z</time></trkpt><trkpt lat="42.338752587723704" lon="13.446032611345915"><ele>646.0</ele><time>2026-05-03T07:17:27.999Z</time></trkpt><trkpt lat="42.33869988219597" lon="13.446163732423836"><ele>643.0</ele><time>2026-05-03T07:17:28.999Z</time></trkpt><trkpt lat="42.338641747329646" lon="13.446301386692621"><ele>640.0</ele><time>2026-05-03T07:17:29.999Z</time></trkpt><trkpt lat="42.33858397780539" lon="13.446451599187894"><ele>640.0</ele><time>2026-05-03T07:17:30.999Z</time></trkpt><trkpt lat="42.33852525890589" lon="13.44661334650395"><ele>640.0</ele><time>2026-05-03T07:17:31.999Z</time></trkpt><trkpt lat="42.33847202031137" lon="13.446797481255997"><ele>640.0</ele><time>2026-05-03T07:17:32.999Z</time></trkpt><trkpt lat="42.33841025898605" lon="13.44697961361142"><ele>640.0</ele><time>2026-05-03T07:17:33.999Z</time></trkpt><trkpt lat="42.33835531194623" lon="13.447171898642345"><ele>640.25</ele><time>2026-05-03T07:17:34.999Z</time></trkpt><trkpt lat="42.33830651887865" lon="13.44736736682813"><ele>640.5</ele><time>2026-05-03T07:17:35.999Z</time></trkpt><trkpt lat="42.33825295565218" lon="13.447533945166384"><ele>640.75</ele><time>2026-05-03T07:17:36.999Z</time></trkpt><trkpt lat="42.338207567809924" lon="13.447695956873506"><ele>641.0</ele><time>2026-05-03T07:17:37.999Z</time></trkpt><trkpt lat="42.33816394476143" lon="13.447852216984288"><ele>641.0</ele><time>2026-05-03T07:17:38.999Z</time></trkpt><trkpt lat="42.338124713104676" lon="13.448006600614073"><ele>641.0</ele><time>2026-05-03T07:17:39.999Z</time></trkpt><trkpt lat="42.33808346440421" lon="13.448158230697368"><ele>641.0</ele><time>2026-05-03T07:17:40.999Z</time></trkpt><trkpt lat="42.33803788459012" lon="13.448305807343148"><ele>641.0</ele><time>2026-05-03T07:17:41.999Z</time></trkpt><trkpt lat="42.33799720670163" lon="13.44845777203708"><ele>637.0</ele><time>2026-05-03T07:17:42.999Z</time></trkpt><trkpt lat="42.337951029125826" lon="13.448613843484704"><ele>633.0</ele><time>2026-05-03T07:17:43.999Z</time></trkpt><trkpt lat="42.33790521556493" lon="13.448762919435861"><ele>629.0</ele><time>2026-05-03T07:17:44.999Z</time></trkpt><trkpt lat="42.337867503062725" lon="13.448902486792988"><ele>625.0</ele><time>2026-05-03T07:17:45.999Z</time></trkpt><trkpt lat="42.337829595248" lon="13.449036455388075"><ele>625.0</ele><time>2026-05-03T07:17:46.999Z</time></trkpt><trkpt lat="42.337795013766836" lon="13.449162580747979"><ele>625.0</ele><time>2026-05-03T07:17:47.999Z</time></trkpt><trkpt lat="42.33777086741063" lon="13.449287005975922"><ele>625.0</ele><time>2026-05-03T07:17:48.999Z</time></trkpt><trkpt lat="42.33775759224086" lon="13.449419967797452"><ele>625.0</ele><time>2026-05-03T07:17:49.999Z</time></trkpt><trkpt lat="42.33773985623666" lon="13.449561620570533"><ele>625.0</ele><time>2026-05-03T07:17:50.999Z</time></trkpt><trkpt lat="42.33775016584764" lon="13.44970353048224"><ele>624.75</ele><time>2026-05-03T07:17:51.999Z</time></trkpt><trkpt lat="42.337768545812516" lon="13.44985198308116"><ele>624.5</ele><time>2026-05-03T07:17:52.999Z</time></trkpt><trkpt lat="42.33777925680441" lon="13.450003593658769"><ele>624.25</ele><time>2026-05-03T07:17:53.999Z</time></trkpt><trkpt lat="42.337788637052114" lon="13.450159784216734"><ele>624.0</ele><time>2026-05-03T07:17:54.999Z</time></trkpt><trkpt lat="42.33781061154226" lon="13.450320344899628"><ele>623.5</ele><time>2026-05-03T07:17:55.999Z</time></trkpt><trkpt lat="42.337828672466635" lon="13.450485410595533"><ele>623.0</ele><time>2026-05-03T07:17:56.999Z</time></trkpt><trkpt lat="42.33783926974042" lon="13.450654827468458"><ele>622.5</ele><time>2026-05-03T07:17:57.999Z</time></trkpt><trkpt lat="42.33784548044132" lon="13.450818794454417"><ele>622.0</ele><time>2026-05-03T07:17:58.999Z</time></trkpt><trkpt lat="42.33784977889656" lon="13.45096985682462"><ele>622.0</ele><time>2026-05-03T07:17:59.999Z</time></trkpt><trkpt lat="42.33785636090545" lon="13.45111169922756"><ele>622.0</ele><time>2026-05-03T07:18:00.999Z</time></trkpt><trkpt lat="42.33786674907788" lon="13.451251136155355"><ele>622.0</ele><time>2026-05-03T07:18:01.999Z</time></trkpt><trkpt lat="42.337871658014706" lon="13.451393404485877"><ele>622.0</ele><time>2026-05-03T07:18:02.999Z</time></trkpt><trkpt lat="42.337877703822855" lon="13.451539107657485"><ele>622.0</ele><time>2026-05-03T07:18:03.999Z</time></trkpt><trkpt lat="42.33788555691345" lon="13.451679767696595"><ele>621.6</ele><time>2026-05-03T07:18:04.999Z</time></trkpt><trkpt lat="42.33789207809918" lon="13.451813824855462"><ele>621.2</ele><time>2026-05-03T07:18:05.999Z</time></trkpt><trkpt lat="42.33789972878362" lon="13.451938339849997"><ele>620.8</ele><time>2026-05-03T07:18:06.999Z</time></trkpt><trkpt lat="42.337913628506264" lon="13.452066142947448"><ele>620.4</ele><time>2026-05-03T07:18:07.999Z</time></trkpt><trkpt lat="42.33790729299487" lon="13.452201752750694"><ele>620.0</ele><time>2026-05-03T07:18:08.999Z</time></trkpt><trkpt lat="42.33791112324225" lon="13.452332773858297"><ele>619.3333333333333</ele><time>2026-05-03T07:18:09.999Z</time></trkpt><trkpt lat="42.337914630426525" lon="13.452452743947108"><ele>618.6666666666666</ele><time>2026-05-03T07:18:10.999Z</time></trkpt><trkpt lat="42.33791787769604" lon="13.452560211366114"><ele>618.0</ele><time>2026-05-03T07:18:11.999Z</time></trkpt><trkpt lat="42.33794184077217" lon="13.45269842333929"><ele>617.3333333333334</ele><time>2026-05-03T07:18:13.999Z</time></trkpt><trkpt lat="42.33793805021174" lon="13.45281710749918"><ele>616.6666666666667</ele><time>2026-05-03T07:18:16.999Z</time></trkpt><trkpt lat="42.33794395032509" lon="13.452923556341375"><ele>616.0</ele><time>2026-05-03T07:18:19.999Z</time></trkpt><trkpt lat="42.33796449276121" lon="13.453030394465475"><ele>615.4</ele><time>2026-05-03T07:18:22.999Z</time></trkpt><trkpt lat="42.337959244186614" lon="13.453185628681195"><ele>614.8</ele><time>2026-05-03T07:18:24.999Z</time></trkpt><trkpt lat="42.33797922850298" lon="13.453325654207509"><ele>614.1999999999999</ele><time>2026-05-03T07:18:27.001Z</time></trkpt><trkpt lat="42.338027776092495" lon="13.453443716065921"><ele>613.6</ele><time>2026-05-03T07:18:29.001Z</time></trkpt><trkpt lat="42.33807034205383" lon="13.453597742203728"><ele>613.0</ele><time>2026-05-03T07:18:31.001Z</time></trkpt><trkpt lat="42.33808034267369" lon="13.453694485143478"><ele>615.0</ele><time>2026-05-03T07:18:32.001Z</time></trkpt><trkpt lat="42.33810018871704" lon="13.453789074221838"><ele>617.0</ele><time>2026-05-03T07:18:33.001Z</time></trkpt><trkpt lat="42.33811034820618" lon="13.453881116400042"><ele>619.0</ele><time>2026-05-03T07:18:34.001Z</time></trkpt><trkpt lat="42.33811552195365" lon="13.453979823307098"><ele>621.0</ele><time>2026-05-03T07:18:35.001Z</time></trkpt><trkpt lat="42.33810709039676" lon="13.454078640794107"><ele>623.0</ele><time>2026-05-03T07:18:36.001Z</time></trkpt><trkpt lat="42.338099086686825" lon="13.45417857671229"><ele>625.0</ele><time>2026-05-03T07:18:37.001Z</time></trkpt><trkpt lat="42.338079128910884" lon="13.45427597686078"><ele>627.0</ele><time>2026-05-03T07:18:38Z</time></trkpt><trkpt lat="42.338071350291834" lon="13.45436861259913"><ele>627.0</ele><time>2026-05-03T07:18:39Z</time></trkpt><trkpt lat="42.33808009239049" lon="13.454457797211196"><ele>627.0</ele><time>2026-05-03T07:18:40Z</time></trkpt><trkpt lat="42.3380876288794" lon="13.45454591427077"><ele>627.0</ele><time>2026-05-03T07:18:41Z</time></trkpt><trkpt lat="42.33809609184631" lon="13.4546334099086"><ele>627.0</ele><time>2026-05-03T07:18:42Z</time></trkpt><trkpt lat="42.338095215202024" lon="13.454731337572284"><ele>627.0</ele><time>2026-05-03T07:18:43Z</time></trkpt><trkpt lat="42.33812715166461" lon="13.45481706108085"><ele>627.0</ele><time>2026-05-03T07:18:44Z</time></trkpt><trkpt lat="42.33815920388278" lon="13.454900436223754"><ele>627.0</ele><time>2026-05-03T07:18:45Z</time></trkpt><trkpt lat="42.338184964659824" lon="13.45498632330203"><ele>626.0</ele><time>2026-05-03T07:18:46Z</time></trkpt><trkpt lat="42.33822823168035" lon="13.45511165442166"><ele>625.0</ele><time>2026-05-03T07:18:48Z</time></trkpt><trkpt lat="42.338232935568634" lon="13.455197412610586"><ele>624.0</ele><time>2026-05-03T07:18:50Z</time></trkpt><trkpt lat="42.33816895279132" lon="13.455252135682802"><ele>623.0</ele><time>2026-05-03T07:18:53Z</time></trkpt><trkpt lat="42.33821633315495" lon="13.455323053287296"><ele>622.0</ele><time>2026-05-03T07:18:58Z</time></trkpt><trkpt lat="42.33828886944267" lon="13.455346835348507"><ele>621.0</ele><time>2026-05-03T07:18:59Z</time></trkpt><trkpt lat="42.338368899818846" lon="13.455401468362806"><ele>615.6666666666666</ele><time>2026-05-03T07:19:00Z</time></trkpt><trkpt lat="42.33840931318556" lon="13.455715832604797"><ele>610.3333333333333</ele><time>2026-05-03T07:19:01Z</time></trkpt><trkpt lat="42.338509320790365" lon="13.455749423183027"><ele>605.0</ele><time>2026-05-03T07:19:02Z</time></trkpt><trkpt lat="42.338657622553164" lon="13.455539343928246"><ele>605.0</ele><time>2026-05-03T07:19:03Z</time></trkpt><trkpt lat="42.338757652775534" lon="13.455606841974326"><ele>605.0</ele><time>2026-05-03T07:19:04Z</time></trkpt><trkpt lat="42.33885324271431" lon="13.455674653685751"><ele>605.0</ele><time>2026-05-03T07:19:05Z</time></trkpt><trkpt lat="42.33895165592246" lon="13.455717972132575"><ele>605.0</ele><time>2026-05-03T07:19:06Z</time></trkpt><trkpt lat="42.33901091743505" lon="13.455927915972456"><ele>606.0</ele><time>2026-05-03T07:19:07Z</time></trkpt><trkpt lat="42.339107331095946" lon="13.455961763066025"><ele>607.0</ele><time>2026-05-03T07:19:08Z</time></trkpt><trkpt lat="42.33921679847661" lon="13.455996446627456"><ele>608.0</ele><time>2026-05-03T07:19:09Z</time></trkpt><trkpt lat="42.33932072886849" lon="13.456002531546206"><ele>609.0</ele><time>2026-05-03T07:19:10Z</time></trkpt><trkpt lat="42.33939879833527" lon="13.456000931271001"><ele>610.0</ele><time>2026-05-03T07:19:11Z</time></trkpt><trkpt lat="42.33947064037591" lon="13.456001631372619"><ele>610.0</ele><time>2026-05-03T07:19:12Z</time></trkpt><trkpt lat="42.339536335344754" lon="13.455996803475829"><ele>610.0</ele><time>2026-05-03T07:19:13Z</time></trkpt><trkpt lat="42.33959753006332" lon="13.456017374247875"><ele>610.0</ele><time>2026-05-03T07:19:14Z</time></trkpt><trkpt lat="42.339639224243605" lon="13.456081223088457"><ele>610.0</ele><time>2026-05-03T07:19:15Z</time></trkpt><trkpt lat="42.339692838474036" lon="13.456251555287722"><ele>610.0</ele><time>2026-05-03T07:19:17Z</time></trkpt><trkpt lat="42.33970270652978" lon="13.456341140970023"><ele>610.0</ele><time>2026-05-03T07:19:18Z</time></trkpt><trkpt lat="42.33971067711378" lon="13.456440661971799"><ele>608.2</ele><time>2026-05-03T07:19:20Z</time></trkpt><trkpt lat="42.339751359409405" lon="13.456542908187679"><ele>606.4</ele><time>2026-05-03T07:19:34Z</time></trkpt><trkpt lat="42.33985829441727" lon="13.456696164701356"><ele>604.6</ele><time>2026-05-03T07:19:36Z</time></trkpt><trkpt lat="42.339952332211496" lon="13.456714753883253"><ele>602.8</ele><time>2026-05-03T07:19:37Z</time></trkpt><trkpt lat="42.34005229595889" lon="13.456742021425992"><ele>601.0</ele><time>2026-05-03T07:19:38Z</time></trkpt><trkpt lat="42.340155477485816" lon="13.456773227573708"><ele>601.0</ele><time>2026-05-03T07:19:39Z</time></trkpt><trkpt lat="42.34025960135018" lon="13.456807929664992"><ele>601.0</ele><time>2026-05-03T07:19:40Z</time></trkpt><trkpt lat="42.34036992876148" lon="13.456847168493645"><ele>601.0</ele><time>2026-05-03T07:19:41Z</time></trkpt><trkpt lat="42.34048660221599" lon="13.45687187269793"><ele>601.0</ele><time>2026-05-03T07:19:42Z</time></trkpt><trkpt lat="42.34060082949323" lon="13.456926090436065"><ele>600.75</ele><time>2026-05-03T07:19:43Z</time></trkpt><trkpt lat="42.340721041014156" lon="13.456965285074215"><ele>600.5</ele><time>2026-05-03T07:19:44Z</time></trkpt><trkpt lat="42.340836392332555" lon="13.45701468291726"><ele>600.25</ele><time>2026-05-03T07:19:45Z</time></trkpt><trkpt lat="42.34094367876837" lon="13.45707020070416"><ele>600.0</ele><time>2026-05-03T07:19:46Z</time></trkpt><trkpt lat="42.34103972521901" lon="13.45714020687354"><ele>600.25</ele><time>2026-05-03T07:19:47Z</time></trkpt><trkpt lat="42.34113187185965" lon="13.457218215918065"><ele>600.5</ele><time>2026-05-03T07:19:48Z</time></trkpt><trkpt lat="42.3412241145112" lon="13.457309068528474"><ele>600.75</ele><time>2026-05-03T07:19:49Z</time></trkpt><trkpt lat="42.3413140407029" lon="13.457416143401582"><ele>601.0</ele><time>2026-05-03T07:19:50Z</time></trkpt><trkpt lat="42.34140246838993" lon="13.457528600344778"><ele>601.0</ele><time>2026-05-03T07:19:51Z</time></trkpt><trkpt lat="42.341511783970326" lon="13.457620541017056"><ele>601.0</ele><time>2026-05-03T07:19:52Z</time></trkpt><trkpt lat="42.34160873455406" lon="13.457727518059436"><ele>601.0</ele><time>2026-05-03T07:19:53Z</time></trkpt><trkpt lat="42.34170490970959" lon="13.457841522087937"><ele>601.0</ele><time>2026-05-03T07:19:54Z</time></trkpt><trkpt lat="42.34179914950521" lon="13.457965861623116"><ele>601.0</ele><time>2026-05-03T07:19:55Z</time></trkpt><trkpt lat="42.34188875847971" lon="13.458095619624276"><ele>601.0</ele><time>2026-05-03T07:19:56Z</time></trkpt><trkpt lat="42.34197770574169" lon="13.45822649613226"><ele>601.0</ele><time>2026-05-03T07:19:57Z</time></trkpt><trkpt lat="42.34207093658985" lon="13.458349853814173"><ele>601.0</ele><time>2026-05-03T07:19:58Z</time></trkpt><trkpt lat="42.342162138290675" lon="13.458478215219506"><ele>601.0</ele><time>2026-05-03T07:19:59Z</time></trkpt><trkpt lat="42.34225535622014" lon="13.458604054507514"><ele>601.0</ele><time>2026-05-03T07:20:00Z</time></trkpt><trkpt lat="42.342350278688166" lon="13.458729469323671"><ele>601.0</ele><time>2026-05-03T07:20:01Z</time></trkpt><trkpt lat="42.34244539934189" lon="13.458856421420313"><ele>601.0</ele><time>2026-05-03T07:20:02Z</time></trkpt><trkpt lat="42.342540732167066" lon="13.458981508553899"><ele>601.0</ele><time>2026-05-03T07:20:03Z</time></trkpt><trkpt lat="42.34263351519278" lon="13.459105028967619"><ele>601.0</ele><time>2026-05-03T07:20:04Z</time></trkpt><trkpt lat="42.34272429654358" lon="13.459221849508568"><ele>601.0</ele><time>2026-05-03T07:20:05Z</time></trkpt><trkpt lat="42.342812045957174" lon="13.459337008356826"><ele>601.0</ele><time>2026-05-03T07:20:06Z</time></trkpt><trkpt lat="42.34290204290808" lon="13.459454863424318"><ele>601.0</ele><time>2026-05-03T07:20:07Z</time></trkpt><trkpt lat="42.34299267249925" lon="13.45957801510255"><ele>601.0</ele><time>2026-05-03T07:20:08Z</time></trkpt><trkpt lat="42.34308388879463" lon="13.45970115913074"><ele>601.0</ele><time>2026-05-03T07:20:09Z</time></trkpt><trkpt lat="42.34317785345779" lon="13.459821492471857"><ele>601.0</ele><time>2026-05-03T07:20:10Z</time></trkpt><trkpt lat="42.343272735590304" lon="13.459943974398712"><ele>602.25</ele><time>2026-05-03T07:20:11Z</time></trkpt><trkpt lat="42.34336872950278" lon="13.46006766204205"><ele>603.5</ele><time>2026-05-03T07:20:12Z</time></trkpt><trkpt lat="42.343465009153554" lon="13.460192849020782"><ele>604.75</ele><time>2026-05-03T07:20:13Z</time></trkpt><trkpt lat="42.34356021302236" lon="13.460319094248808"><ele>606.0</ele><time>2026-05-03T07:20:14Z</time></trkpt><trkpt lat="42.34365428928971" lon="13.460445005034115"><ele>606.25</ele><time>2026-05-03T07:20:15Z</time></trkpt><trkpt lat="42.343747793349756" lon="13.460568507283476"><ele>606.5</ele><time>2026-05-03T07:20:16Z</time></trkpt><trkpt lat="42.3438412026476" lon="13.460691662843491"><ele>606.75</ele><time>2026-05-03T07:20:17Z</time></trkpt><trkpt lat="42.3439351569095" lon="13.460816026935943"><ele>607.0</ele><time>2026-05-03T07:20:18Z</time></trkpt><trkpt lat="42.34403379264714" lon="13.460935515782994"><ele>607.5</ele><time>2026-05-03T07:20:19Z</time></trkpt><trkpt lat="42.34413373068666" lon="13.461056135979096"><ele>608.0</ele><time>2026-05-03T07:20:20Z</time></trkpt><trkpt lat="42.34423953079462" lon="13.461169766437317"><ele>608.5</ele><time>2026-05-03T07:20:21Z</time></trkpt><trkpt lat="42.344341784409515" lon="13.46128769779524"><ele>609.0</ele><time>2026-05-03T07:20:22Z</time></trkpt><trkpt lat="42.34444386824371" lon="13.461406272086528"><ele>609.0</ele><time>2026-05-03T07:20:23Z</time></trkpt><trkpt lat="42.344547920792024" lon="13.461521041765826"><ele>609.0</ele><time>2026-05-03T07:20:24Z</time></trkpt><trkpt lat="42.344651305289226" lon="13.461636965179762"><ele>609.0</ele><time>2026-05-03T07:20:25Z</time></trkpt><trkpt lat="42.344755718151994" lon="13.461751250144248"><ele>609.0</ele><time>2026-05-03T07:20:26Z</time></trkpt><trkpt lat="42.34486126908964" lon="13.461863016122061"><ele>609.75</ele><time>2026-05-03T07:20:27Z</time></trkpt><trkpt lat="42.34496957969226" lon="13.461970864111013"><ele>610.5</ele><time>2026-05-03T07:20:28Z</time></trkpt><trkpt lat="42.34508360378372" lon="13.46207301147588"><ele>611.25</ele><time>2026-05-03T07:20:29Z</time></trkpt><trkpt lat="42.345197980154474" lon="13.462175382339218"><ele>612.0</ele><time>2026-05-03T07:20:30Z</time></trkpt><trkpt lat="42.34530248609594" lon="13.462270732173158"><ele>612.0</ele><time>2026-05-03T07:20:31Z</time></trkpt><trkpt lat="42.345387912829686" lon="13.462348301219784"><ele>612.0</ele><time>2026-05-03T07:20:32Z</time></trkpt><trkpt lat="42.345457383614836" lon="13.462412597132287"><ele>612.0</ele><time>2026-05-03T07:20:33Z</time></trkpt><trkpt lat="42.345512072787784" lon="13.462464552097886"><ele>612.0</ele><time>2026-05-03T07:20:34Z</time></trkpt><trkpt lat="42.34558130272486" lon="13.462511424088039"><ele>612.0</ele><time>2026-05-03T07:20:36Z</time></trkpt><trkpt lat="42.345561820187285" lon="13.462628860724942"><ele>612.0</ele><time>2026-05-03T07:20:40Z</time></trkpt><trkpt lat="42.34551731949107" lon="13.462729341192533"><ele>612.0</ele><time>2026-05-03T07:20:41Z</time></trkpt><trkpt lat="42.34544894316772" lon="13.462822294751856"><ele>612.0</ele><time>2026-05-03T07:20:42Z</time></trkpt><trkpt lat="42.34537667443474" lon="13.462930902533008"><ele>612.0</ele><time>2026-05-03T07:20:43Z</time></trkpt><trkpt lat="42.34530207025232" lon="13.463052412977719"><ele>612.0</ele><time>2026-05-03T07:20:44Z</time></trkpt><trkpt lat="42.34523085447719" lon="13.463175707154857"><ele>612.0</ele><time>2026-05-03T07:20:45Z</time></trkpt><trkpt lat="42.34515820620171" lon="13.463299785473986"><ele>612.5</ele><time>2026-05-03T07:20:46Z</time></trkpt><trkpt lat="42.345093178810515" lon="13.463434650959135"><ele>613.0</ele><time>2026-05-03T07:20:47Z</time></trkpt><trkpt lat="42.345032538933175" lon="13.463572017842141"><ele>613.5</ele><time>2026-05-03T07:20:48Z</time></trkpt><trkpt lat="42.344991920288585" lon="13.463723407372742"><ele>614.0</ele><time>2026-05-03T07:20:49Z</time></trkpt><trkpt lat="42.34495718396331" lon="13.463884990641873"><ele>614.25</ele><time>2026-05-03T07:20:50Z</time></trkpt><trkpt lat="42.34492335925309" lon="13.46404426236528"><ele>614.5</ele><time>2026-05-03T07:20:51Z</time></trkpt><trkpt lat="42.34488867558479" lon="13.464196514261156"><ele>614.75</ele><time>2026-05-03T07:20:52Z</time></trkpt><trkpt lat="42.34485009545029" lon="13.46434507829031"><ele>615.0</ele><time>2026-05-03T07:20:53Z</time></trkpt><trkpt lat="42.34481686532077" lon="13.464497456846976"><ele>615.0</ele><time>2026-05-03T07:20:54Z</time></trkpt><trkpt lat="42.344796358420936" lon="13.464657782436134"><ele>615.0</ele><time>2026-05-03T07:20:55Z</time></trkpt><trkpt lat="42.34476130866033" lon="13.46480566901959"><ele>615.0</ele><time>2026-05-03T07:20:56Z</time></trkpt><trkpt lat="42.34473009231891" lon="13.464944088057182"><ele>615.0</ele><time>2026-05-03T07:20:57Z</time></trkpt><trkpt lat="42.34469845174499" lon="13.465073089310273"><ele>615.0</ele><time>2026-05-03T07:20:58Z</time></trkpt><trkpt lat="42.344653075456534" lon="13.465189673741063"><ele>614.8333333333334</ele><time>2026-05-03T07:20:59Z</time></trkpt><trkpt lat="42.344636145339315" lon="13.465324186618052"><ele>614.6666666666666</ele><time>2026-05-03T07:21:00Z</time></trkpt><trkpt lat="42.34458364168125" lon="13.465450474498073"><ele>614.5</ele><time>2026-05-03T07:21:01Z</time></trkpt><trkpt lat="42.344548405145" lon="13.465561433360483"><ele>614.3333333333333</ele><time>2026-05-03T07:21:02Z</time></trkpt><trkpt lat="42.3445084271664" lon="13.46565395952311"><ele>614.1666666666666</ele><time>2026-05-03T07:21:03Z</time></trkpt><trkpt lat="42.34447183760847" lon="13.46573045022519"><ele>614.0</ele><time>2026-05-03T07:21:04Z</time></trkpt><trkpt lat="42.344431953048684" lon="13.465843621902707"><ele>614.0</ele><time>2026-05-03T07:21:06Z</time></trkpt><trkpt lat="42.34437216391583" lon="13.466046693779125"><ele>614.0</ele><time>2026-05-03T07:21:08Z</time></trkpt><trkpt lat="42.34450097556764" lon="13.466146575513669"><ele>614.0</ele><time>2026-05-03T07:21:10Z</time></trkpt><trkpt lat="42.34459079507765" lon="13.466187813198191"><ele>614.0</ele><time>2026-05-03T07:21:11Z</time></trkpt><trkpt lat="42.34470214576916" lon="13.466232713030601"><ele>614.25</ele><time>2026-05-03T07:21:12Z</time></trkpt><trkpt lat="42.344827984790285" lon="13.466274714637958"><ele>614.5</ele><time>2026-05-03T07:21:13Z</time></trkpt><trkpt lat="42.344942655669136" lon="13.466298183433047"><ele>614.75</ele><time>2026-05-03T07:21:14Z</time></trkpt><trkpt lat="42.34505285776852" lon="13.466313408100408"><ele>615.0</ele><time>2026-05-03T07:21:15Z</time></trkpt><trkpt lat="42.34516327151031" lon="13.466316733252874"><ele>615.0</ele><time>2026-05-03T07:21:16Z</time></trkpt><trkpt lat="42.34526335683679" lon="13.46629773230508"><ele>615.0</ele><time>2026-05-03T07:21:17Z</time></trkpt><trkpt lat="42.3453493015199" lon="13.46628773619173"><ele>615.0</ele><time>2026-05-03T07:21:18Z</time></trkpt><trkpt lat="42.34543185631931" lon="13.466261434834724"><ele>615.0</ele><time>2026-05-03T07:21:19Z</time></trkpt><trkpt lat="42.34551498189139" lon="13.466316213579148"><ele>615.0</ele><time>2026-05-03T07:21:20Z</time></trkpt><trkpt lat="42.34560988585563" lon="13.466365905564617"><ele>616.0</ele><time>2026-05-03T07:21:21Z</time></trkpt><trkpt lat="42.345712912550184" lon="13.466427355228115"><ele>617.0</ele><time>2026-05-03T07:21:22Z</time></trkpt><trkpt lat="42.345821122472934" lon="13.466491896397722"><ele>618.0</ele><time>2026-05-03T07:21:23Z</time></trkpt><trkpt lat="42.34592992747141" lon="13.46655683205914"><ele>619.0</ele><time>2026-05-03T07:21:24Z</time></trkpt><trkpt lat="42.34603431625291" lon="13.466623636847068"><ele>619.0</ele><time>2026-05-03T07:21:25Z</time></trkpt><trkpt lat="42.346127854061955" lon="13.466687201249139"><ele>619.0</ele><time>2026-05-03T07:21:26Z</time></trkpt><trkpt lat="42.34620903217492" lon="13.466747439086802"><ele>619.0</ele><time>2026-05-03T07:21:27Z</time></trkpt><trkpt lat="42.34629914768469" lon="13.466797034147044"><ele>619.0</ele><time>2026-05-03T07:21:28Z</time></trkpt><trkpt lat="42.34637625353458" lon="13.466888370475626"><ele>619.0</ele><time>2026-05-03T07:21:29Z</time></trkpt><trkpt lat="42.3464518385441" lon="13.466993322108662"><ele>619.4</ele><time>2026-05-03T07:21:30Z</time></trkpt><trkpt lat="42.346522861876515" lon="13.46710550095989"><ele>619.8</ele><time>2026-05-03T07:21:31Z</time></trkpt><trkpt lat="42.346592117778144" lon="13.46721686973661"><ele>620.2</ele><time>2026-05-03T07:21:32Z</time></trkpt><trkpt lat="42.346660588569726" lon="13.467333767587867"><ele>620.6</ele><time>2026-05-03T07:21:33Z</time></trkpt><trkpt lat="42.34673099346888" lon="13.467452624895818"><ele>621.0</ele><time>2026-05-03T07:21:34Z</time></trkpt><trkpt lat="42.346796837230116" lon="13.467565773226735"><ele>621.0</ele><time>2026-05-03T07:21:35Z</time></trkpt><trkpt lat="42.34685554065766" lon="13.467662751687788"><ele>621.0</ele><time>2026-05-03T07:21:36Z</time></trkpt><trkpt lat="42.346901977841924" lon="13.467742901040916"><ele>621.0</ele><time>2026-05-03T07:21:37Z</time></trkpt><trkpt lat="42.34700452608115" lon="13.467864401671905"><ele>621.0</ele><time>2026-05-03T07:21:39Z</time></trkpt><trkpt lat="42.347088664596214" lon="13.467886027795757"><ele>621.0</ele><time>2026-05-03T07:21:40Z</time></trkpt><trkpt lat="42.34718048420516" lon="13.467873683185482"><ele>621.4</ele><time>2026-05-03T07:21:41Z</time></trkpt><trkpt lat="42.34727418134812" lon="13.467851825339789"><ele>621.8</ele><time>2026-05-03T07:21:42Z</time></trkpt><trkpt lat="42.3473622460566" lon="13.467835523953484"><ele>622.1999999999999</ele><time>2026-05-03T07:21:43Z</time></trkpt><trkpt lat="42.34745103918578" lon="13.467831818120622"><ele>622.6</ele><time>2026-05-03T07:21:44Z</time></trkpt><trkpt lat="42.347537808426964" lon="13.467823080325886"><ele>623.0</ele><time>2026-05-03T07:21:45Z</time></trkpt><trkpt lat="42.34762283865522" lon="13.467866127268595"><ele>623.0</ele><time>2026-05-03T07:21:46Z</time></trkpt><trkpt lat="42.34771278732074" lon="13.467905383778803"><ele>623.0</ele><time>2026-05-03T07:21:47Z</time></trkpt><trkpt lat="42.34780994491612" lon="13.467950884724347"><ele>623.0</ele><time>2026-05-03T07:21:48Z</time></trkpt><trkpt lat="42.34791324001757" lon="13.467983433593403"><ele>623.0</ele><time>2026-05-03T07:21:49Z</time></trkpt><trkpt lat="42.348027130603775" lon="13.46801805511036"><ele>623.0</ele><time>2026-05-03T07:21:49.999Z</time></trkpt><trkpt lat="42.34815437068895" lon="13.468061995474523"><ele>623.5</ele><time>2026-05-03T07:21:50.999Z</time></trkpt><trkpt lat="42.348287935691275" lon="13.468111362950184"><ele>624.0</ele><time>2026-05-03T07:21:51.999Z</time></trkpt><trkpt lat="42.348420998633" lon="13.46817114335471"><ele>624.5</ele><time>2026-05-03T07:21:52.999Z</time></trkpt><trkpt lat="42.34855794630483" lon="13.468227447057217"><ele>625.0</ele><time>2026-05-03T07:21:53.999Z</time></trkpt><trkpt lat="42.34868506419325" lon="13.468307983826316"><ele>625.0</ele><time>2026-05-03T07:21:54.999Z</time></trkpt><trkpt lat="42.34881277151748" lon="13.468331294821338"><ele>625.0</ele><time>2026-05-03T07:21:55.999Z</time></trkpt><trkpt lat="42.34892337622032" lon="13.468368132405622"><ele>625.0</ele><time>2026-05-03T07:21:56.999Z</time></trkpt><trkpt lat="42.349024402629624" lon="13.46840600963595"><ele>625.0</ele><time>2026-05-03T07:21:57.999Z</time></trkpt><trkpt lat="42.349117072941304" lon="13.46843406252046"><ele>625.0</ele><time>2026-05-03T07:21:58.999Z</time></trkpt><trkpt lat="42.349204816130836" lon="13.46845138633178"><ele>625.6</ele><time>2026-05-03T07:21:59.999Z</time></trkpt><trkpt lat="42.34929277937866" lon="13.468462254851456"><ele>626.2</ele><time>2026-05-03T07:22:00.999Z</time></trkpt><trkpt lat="42.349381039248705" lon="13.468465309046442"><ele>626.8</ele><time>2026-05-03T07:22:01.999Z</time></trkpt><trkpt lat="42.349468392058824" lon="13.468503044528187"><ele>627.4</ele><time>2026-05-03T07:22:02.999Z</time></trkpt><trkpt lat="42.34957461348469" lon="13.468491031453137"><ele>628.0</ele><time>2026-05-03T07:22:03.999Z</time></trkpt><trkpt lat="42.34967739634587" lon="13.46849432427447"><ele>628.1999999999999</ele><time>2026-05-03T07:22:04.999Z</time></trkpt><trkpt lat="42.34977881932585" lon="13.468495901505113"><ele>628.4</ele><time>2026-05-03T07:22:05.999Z</time></trkpt><trkpt lat="42.34987895935173" lon="13.468493969836066"><ele>628.5999999999999</ele><time>2026-05-03T07:22:06.999Z</time></trkpt><trkpt lat="42.34997915922377" lon="13.468484329047199"><ele>628.8</ele><time>2026-05-03T07:22:07.999Z</time></trkpt><trkpt lat="42.35007060033472" lon="13.468543124807583"><ele>629.0</ele><time>2026-05-03T07:22:08.999Z</time></trkpt><trkpt lat="42.35016298347513" lon="13.468603907968381"><ele>629.0</ele><time>2026-05-03T07:22:09.999Z</time></trkpt><trkpt lat="42.350260680201956" lon="13.468670589377748"><ele>629.0</ele><time>2026-05-03T07:22:10.999Z</time></trkpt><trkpt lat="42.350343702984695" lon="13.468763585016758"><ele>629.0</ele><time>2026-05-03T07:22:11.999Z</time></trkpt><trkpt lat="42.35042919045434" lon="13.468841932139616"><ele>629.0</ele><time>2026-05-03T07:22:12.999Z</time></trkpt><trkpt lat="42.350516357164686" lon="13.468915412924424"><ele>629.0</ele><time>2026-05-03T07:22:13.999Z</time></trkpt><trkpt lat="42.35061099709426" lon="13.46897466444592"><ele>629.4</ele><time>2026-05-03T07:22:14.999Z</time></trkpt><trkpt lat="42.350707583096515" lon="13.469013035426798"><ele>629.8</ele><time>2026-05-03T07:22:15.999Z</time></trkpt><trkpt lat="42.350799962813106" lon="13.469048686304262"><ele>630.2</ele><time>2026-05-03T07:22:16.999Z</time></trkpt><trkpt lat="42.35089386477894" lon="13.46906178168548"><ele>630.6</ele><time>2026-05-03T07:22:17.999Z</time></trkpt><trkpt lat="42.35099110262715" lon="13.469064259208242"><ele>631.0</ele><time>2026-05-03T07:22:18.999Z</time></trkpt><trkpt lat="42.351087140987325" lon="13.469038981617445"><ele>631.0</ele><time>2026-05-03T07:22:19.999Z</time></trkpt><trkpt lat="42.351179089142654" lon="13.468999735537698"><ele>631.0</ele><time>2026-05-03T07:22:20.999Z</time></trkpt><trkpt lat="42.35126531164195" lon="13.468950542105631"><ele>631.0</ele><time>2026-05-03T07:22:21.999Z</time></trkpt><trkpt lat="42.35133974063872" lon="13.46889795982266"><ele>631.0</ele><time>2026-05-03T07:22:22.999Z</time></trkpt><trkpt lat="42.351413902792935" lon="13.468837186275335"><ele>631.0</ele><time>2026-05-03T07:22:23.999Z</time></trkpt><trkpt lat="42.351474683906105" lon="13.468763310353966"><ele>631.0</ele><time>2026-05-03T07:22:24.999Z</time></trkpt><trkpt lat="42.35155430151913" lon="13.468647125370754"><ele>632.0</ele><time>2026-05-03T07:22:26.999Z</time></trkpt><trkpt lat="42.35161987991874" lon="13.46866146159063"><ele>633.0</ele><time>2026-05-03T07:22:27.999Z</time></trkpt><trkpt lat="42.35169328046967" lon="13.468706236834047"><ele>634.0</ele><time>2026-05-03T07:22:28.999Z</time></trkpt><trkpt lat="42.35176324467428" lon="13.46879256975547"><ele>635.0</ele><time>2026-05-03T07:22:29.999Z</time></trkpt><trkpt lat="42.3518434552543" lon="13.46888881289849"><ele>636.0</ele><time>2026-05-03T07:22:30.999Z</time></trkpt><trkpt lat="42.35193014197192" lon="13.468992840553641"><ele>636.0</ele><time>2026-05-03T07:22:31.999Z</time></trkpt><trkpt lat="42.35202257585526" lon="13.469102420227168"><ele>636.0</ele><time>2026-05-03T07:22:32.999Z</time></trkpt><trkpt lat="42.352115039230156" lon="13.469215736602521"><ele>636.0</ele><time>2026-05-03T07:22:33.999Z</time></trkpt><trkpt lat="42.352203011455195" lon="13.469318371442816"><ele>636.0</ele><time>2026-05-03T07:22:34.999Z</time></trkpt><trkpt lat="42.35227614524098" lon="13.469428044093334"><ele>636.2</ele><time>2026-05-03T07:22:35.999Z</time></trkpt><trkpt lat="42.35235533477878" lon="13.469519835179709"><ele>636.4000000000001</ele><time>2026-05-03T07:22:36.999Z</time></trkpt><trkpt lat="42.35243497388756" lon="13.469612147987606"><ele>636.6</ele><time>2026-05-03T07:22:37.999Z</time></trkpt><trkpt lat="42.352515910831784" lon="13.469701557419832"><ele>636.8000000000001</ele><time>2026-05-03T07:22:38.999Z</time></trkpt><trkpt lat="42.35259388801528" lon="13.469787812473292"><ele>637.0</ele><time>2026-05-03T07:22:39.999Z</time></trkpt><trkpt lat="42.35266964408922" lon="13.469871562389345"><ele>637.4</ele><time>2026-05-03T07:22:40.999Z</time></trkpt><trkpt lat="42.35274470700761" lon="13.469954953116694"><ele>637.8000000000001</ele><time>2026-05-03T07:22:41.999Z</time></trkpt><trkpt lat="42.352817062749" lon="13.470041461900687"><ele>638.2</ele><time>2026-05-03T07:22:42.999Z</time></trkpt><trkpt lat="42.35288701454892" lon="13.470134501742654"><ele>638.6</ele><time>2026-05-03T07:22:43.999Z</time></trkpt><trkpt lat="42.35295306755807" lon="13.470233698352907"><ele>639.0</ele><time>2026-05-03T07:22:44.999Z</time></trkpt><trkpt lat="42.35302210533166" lon="13.470335692803937"><ele>639.6</ele><time>2026-05-03T07:22:45.999Z</time></trkpt><trkpt lat="42.35309200023614" lon="13.47044560907988"><ele>640.2</ele><time>2026-05-03T07:22:46.999Z</time></trkpt><trkpt lat="42.353157277726105" lon="13.47056104250037"><ele>640.8000000000001</ele><time>2026-05-03T07:22:47.999Z</time></trkpt><trkpt lat="42.35321769051792" lon="13.470674757865423"><ele>641.4</ele><time>2026-05-03T07:22:48.999Z</time></trkpt><trkpt lat="42.35326839021809" lon="13.470779305150698"><ele>642.0</ele><time>2026-05-03T07:22:49.999Z</time></trkpt><trkpt lat="42.353312235540315" lon="13.470881694123396"><ele>642.0</ele><time>2026-05-03T07:22:50.999Z</time></trkpt><trkpt lat="42.3533547445416" lon="13.470979018514797"><ele>642.0</ele><time>2026-05-03T07:22:51.999Z</time></trkpt><trkpt lat="42.35339929357715" lon="13.47107139862663"><ele>642.0</ele><time>2026-05-03T07:22:52.999Z</time></trkpt><trkpt lat="42.35344647409579" lon="13.471163902772787"><ele>642.0</ele><time>2026-05-03T07:22:53.999Z</time></trkpt><trkpt lat="42.35349986186988" lon="13.471252065915651"><ele>642.0</ele><time>2026-05-03T07:22:54.999Z</time></trkpt><trkpt lat="42.3535530504755" lon="13.471323865197393"><ele>642.0</ele><time>2026-05-03T07:22:55.999Z</time></trkpt><trkpt lat="42.35360036926516" lon="13.471385494798623"><ele>642.0</ele><time>2026-05-03T07:22:56.999Z</time></trkpt><trkpt lat="42.35366105714527" lon="13.47146453666326"><ele>642.0</ele><time>2026-05-03T07:22:58.999Z</time></trkpt><trkpt lat="42.3537003711108" lon="13.47154402667979"><ele>642.0</ele><time>2026-05-03T07:23:02.999Z</time></trkpt><trkpt lat="42.35385316977161" lon="13.4715406615928"><ele>642.0</ele><time>2026-05-03T07:23:03.999Z</time></trkpt><trkpt lat="42.35393362527946" lon="13.471522516481185"><ele>642.0</ele><time>2026-05-03T07:23:04.999Z</time></trkpt><trkpt lat="42.35401350405142" lon="13.471504502210495"><ele>642.3333333333334</ele><time>2026-05-03T07:23:05.999Z</time></trkpt><trkpt lat="42.35409541545496" lon="13.471485773930745"><ele>642.6666666666666</ele><time>2026-05-03T07:23:06.999Z</time></trkpt><trkpt lat="42.35418155462407" lon="13.47146618357021"><ele>643.0</ele><time>2026-05-03T07:23:07.999Z</time></trkpt><trkpt lat="42.35426273606394" lon="13.471446588235915"><ele>643.3333333333333</ele><time>2026-05-03T07:23:08.999Z</time></trkpt><trkpt lat="42.35433328493309" lon="13.471429335309198"><ele>643.6666666666666</ele><time>2026-05-03T07:23:09.999Z</time></trkpt><trkpt lat="42.35439875794499" lon="13.471413323706575"><ele>644.0</ele><time>2026-05-03T07:23:10.999Z</time></trkpt><trkpt lat="42.35446262676091" lon="13.471403186625874"><ele>644.0</ele><time>2026-05-03T07:23:11.999Z</time></trkpt><trkpt lat="42.35452590408316" lon="13.47145101570532"><ele>644.0</ele><time>2026-05-03T07:23:12.999Z</time></trkpt><trkpt lat="42.354657119178555" lon="13.471597389463286"><ele>644.0</ele><time>2026-05-03T07:23:14.999Z</time></trkpt><trkpt lat="42.354729674228096" lon="13.471683952318331"><ele>644.0</ele><time>2026-05-03T07:23:15.999Z</time></trkpt><trkpt lat="42.35480499309304" lon="13.471790101340357"><ele>644.0</ele><time>2026-05-03T07:23:16.999Z</time></trkpt><trkpt lat="42.35488656641144" lon="13.471894479944217"><ele>644.75</ele><time>2026-05-03T07:23:17.999Z</time></trkpt><trkpt lat="42.3549714247738" lon="13.472001988153295"><ele>645.5</ele><time>2026-05-03T07:23:18.999Z</time></trkpt><trkpt lat="42.35506047853589" lon="13.47211001627459"><ele>646.25</ele><time>2026-05-03T07:23:19.999Z</time></trkpt><trkpt lat="42.35514401308783" lon="13.472223066971473"><ele>647.0</ele><time>2026-05-03T07:23:20.999Z</time></trkpt><trkpt lat="42.35522710494569" lon="13.472321862931969"><ele>647.0</ele><time>2026-05-03T07:23:21.999Z</time></trkpt><trkpt lat="42.35530625437984" lon="13.47241167124983"><ele>647.0</ele><time>2026-05-03T07:23:22.999Z</time></trkpt><trkpt lat="42.355381653424814" lon="13.472499325163852"><ele>647.0</ele><time>2026-05-03T07:23:23.999Z</time></trkpt><trkpt lat="42.355458289271375" lon="13.472587270863173"><ele>647.0</ele><time>2026-05-03T07:23:24.999Z</time></trkpt><trkpt lat="42.355535796867365" lon="13.472669053643418"><ele>647.0</ele><time>2026-05-03T07:23:25.999Z</time></trkpt><trkpt lat="42.35560408844981" lon="13.472746817098129"><ele>647.2857142857142</ele><time>2026-05-03T07:23:26.999Z</time></trkpt><trkpt lat="42.35566628972619" lon="13.472810823012129"><ele>647.5714285714286</ele><time>2026-05-03T07:23:27.999Z</time></trkpt><trkpt lat="42.35572579420475" lon="13.472869375005457"><ele>647.8571428571429</ele><time>2026-05-03T07:23:28.999Z</time></trkpt><trkpt lat="42.355782843285155" lon="13.472927687092588"><ele>648.1428571428571</ele><time>2026-05-03T07:23:29.999Z</time></trkpt><trkpt lat="42.35583913874535" lon="13.47298470519279"><ele>648.4285714285714</ele><time>2026-05-03T07:23:30.999Z</time></trkpt><trkpt lat="42.355891337954624" lon="13.47304255093085"><ele>648.7142857142857</ele><time>2026-05-03T07:23:31.999Z</time></trkpt><trkpt lat="42.35594252906818" lon="13.473098949646722"><ele>649.0</ele><time>2026-05-03T07:23:32.999Z</time></trkpt><trkpt lat="42.35599700021004" lon="13.473151435191474"><ele>649.1666666666667</ele><time>2026-05-03T07:23:33.999Z</time></trkpt><trkpt lat="42.35604884030891" lon="13.473205851908608"><ele>649.3333333333334</ele><time>2026-05-03T07:23:34.999Z</time></trkpt><trkpt lat="42.35610012492881" lon="13.47325757955433"><ele>649.5</ele><time>2026-05-03T07:23:35.999Z</time></trkpt><trkpt lat="42.356183640373736" lon="13.473370485437046"><ele>649.6666666666666</ele><time>2026-05-03T07:23:37.998Z</time></trkpt><trkpt lat="42.35627344719011" lon="13.473439252393824"><ele>649.8333333333333</ele><time>2026-05-03T07:23:39.998Z</time></trkpt><trkpt lat="42.35635711878109" lon="13.473492141612502"><ele>650.0</ele><time>2026-05-03T07:23:41.998Z</time></trkpt><trkpt lat="42.356441631324344" lon="13.473546606073825"><ele>650.5</ele><time>2026-05-03T07:23:43.998Z</time></trkpt><trkpt lat="42.35653920031143" lon="13.473582155335366"><ele>651.0</ele><time>2026-05-03T07:23:45.998Z</time></trkpt><trkpt lat="42.3565818184574" lon="13.473657240466792"><ele>651.5</ele><time>2026-05-03T07:23:46.998Z</time></trkpt><trkpt lat="42.356618822772845" lon="13.47375277229943"><ele>652.0</ele><time>2026-05-03T07:23:47.998Z</time></trkpt><trkpt lat="42.356655632514716" lon="13.473856054305282"><ele>652.5</ele><time>2026-05-03T07:23:48.998Z</time></trkpt><trkpt lat="42.35669250175928" lon="13.473963130501389"><ele>653.0</ele><time>2026-05-03T07:23:49.998Z</time></trkpt><trkpt lat="42.35672170161612" lon="13.47404893544182"><ele>653.75</ele><time>2026-05-03T07:23:50.998Z</time></trkpt><trkpt lat="42.35676471077606" lon="13.474183187418625"><ele>654.5</ele><time>2026-05-03T07:23:52.998Z</time></trkpt><trkpt lat="42.356815957523196" lon="13.474348798045778"><ele>655.25</ele><time>2026-05-03T07:23:54.998Z</time></trkpt><trkpt lat="42.3568563694368" lon="13.474469983054282"><ele>656.0</ele><time>2026-05-03T07:23:55.998Z</time></trkpt><trkpt lat="42.3569054221476" lon="13.47461295869262"><ele>657.8</ele><time>2026-05-03T07:23:56.998Z</time></trkpt><trkpt lat="42.35699077003145" lon="13.47474401491609"><ele>659.5999999999999</ele><time>2026-05-03T07:23:57.998Z</time></trkpt><trkpt lat="42.35703772561202" lon="13.474882277479805"><ele>661.4</ele><time>2026-05-03T07:23:58.998Z</time></trkpt><trkpt lat="42.35707783264601" lon="13.475012693971067"><ele>663.2</ele><time>2026-05-03T07:23:59.998Z</time></trkpt><trkpt lat="42.35710949943412" lon="13.47514531229693"><ele>665.0</ele><time>2026-05-03T07:24:00.998Z</time></trkpt><trkpt lat="42.357118697959315" lon="13.475287209481063"><ele>665.0</ele><time>2026-05-03T07:24:01.998Z</time></trkpt><trkpt lat="42.35714540453496" lon="13.475423983557599"><ele>665.0</ele><time>2026-05-03T07:24:02.998Z</time></trkpt><trkpt lat="42.35717320904349" lon="13.475556957305248"><ele>665.0</ele><time>2026-05-03T07:24:03.998Z</time></trkpt><trkpt lat="42.357206499208296" lon="13.47567883080899"><ele>665.0</ele><time>2026-05-03T07:24:04.998Z</time></trkpt><trkpt lat="42.3572287433924" lon="13.475802024244413"><ele>665.0</ele><time>2026-05-03T07:24:05.998Z</time></trkpt><trkpt lat="42.35725086704792" lon="13.47592894698301"><ele>667.2</ele><time>2026-05-03T07:24:06.998Z</time></trkpt><trkpt lat="42.3572469280737" lon="13.476070886079578"><ele>669.4</ele><time>2026-05-03T07:24:07.998Z</time></trkpt><trkpt lat="42.35723432973425" lon="13.47621718330846"><ele>671.5999999999999</ele><time>2026-05-03T07:24:08.998Z</time></trkpt><trkpt lat="42.35722181765506" lon="13.476371158673297"><ele>673.8</ele><time>2026-05-03T07:24:09.998Z</time></trkpt><trkpt lat="42.35722827512322" lon="13.47653382294484"><ele>676.0</ele><time>2026-05-03T07:24:10.998Z</time></trkpt><trkpt lat="42.35723861233428" lon="13.476695062382579"><ele>677.4</ele><time>2026-05-03T07:24:11.998Z</time></trkpt><trkpt lat="42.35726028905692" lon="13.476844279706382"><ele>678.8</ele><time>2026-05-03T07:24:12.998Z</time></trkpt><trkpt lat="42.357262706235886" lon="13.476974559979924"><ele>680.1999999999999</ele><time>2026-05-03T07:24:13.998Z</time></trkpt><trkpt lat="42.35728311746155" lon="13.47709009973689"><ele>681.5999999999999</ele><time>2026-05-03T07:24:14.998Z</time></trkpt><trkpt lat="42.357287796854585" lon="13.47720651026467"><ele>683.0</ele><time>2026-05-03T07:24:15.998Z</time></trkpt><trkpt lat="42.35731375611247" lon="13.477324845043041"><ele>684.2</ele><time>2026-05-03T07:24:16.998Z</time></trkpt><trkpt lat="42.35734917925812" lon="13.477444253366265"><ele>685.4</ele><time>2026-05-03T07:24:17.998Z</time></trkpt><trkpt lat="42.357387955657416" lon="13.477558578582098"><ele>686.6</ele><time>2026-05-03T07:24:18.998Z</time></trkpt><trkpt lat="42.35743177117011" lon="13.477672750410628"><ele>687.8000000000001</ele><time>2026-05-03T07:24:19.998Z</time></trkpt><trkpt lat="42.35747510946137" lon="13.477771075482565"><ele>689.0</ele><time>2026-05-03T07:24:20.998Z</time></trkpt><trkpt lat="42.357522889778124" lon="13.477867633336638"><ele>690.3333333333333</ele><time>2026-05-03T07:24:21.998Z</time></trkpt><trkpt lat="42.35758488553605" lon="13.47794914839908"><ele>691.6666666666666</ele><time>2026-05-03T07:24:22.998Z</time></trkpt><trkpt lat="42.357659591217846" lon="13.478008113437774"><ele>693.0</ele><time>2026-05-03T07:24:23.998Z</time></trkpt><trkpt lat="42.357720176136674" lon="13.478044315586795"><ele>694.3333333333334</ele><time>2026-05-03T07:24:24.998Z</time></trkpt><trkpt lat="42.357783864331594" lon="13.478078506306991"><ele>695.6666666666667</ele><time>2026-05-03T07:24:26.998Z</time></trkpt><trkpt lat="42.357797857431166" lon="13.478187190635799"><ele>697.0</ele><time>2026-05-03T07:24:33.998Z</time></trkpt><trkpt lat="42.35773021147229" lon="13.478272395600234"><ele>697.0</ele><time>2026-05-03T07:24:35.998Z</time></trkpt><trkpt lat="42.35768594029838" lon="13.478337099100768"><ele>697.0</ele><time>2026-05-03T07:24:37.998Z</time></trkpt><trkpt lat="42.357635084773285" lon="13.478411425858146"><ele>697.0</ele><time>2026-05-03T07:24:39.998Z</time></trkpt><trkpt lat="42.35752579118011" lon="13.478558694780437"><ele>697.0</ele><time>2026-05-03T07:24:40.998Z</time></trkpt><trkpt lat="42.35754917266739" lon="13.47866186063034"><ele>697.0</ele><time>2026-05-03T07:24:42.998Z</time></trkpt><trkpt lat="42.35756356670839" lon="13.478811700430478"><ele>698.8</ele><time>2026-05-03T07:24:44.998Z</time></trkpt><trkpt lat="42.357579484067855" lon="13.478958752242344"><ele>700.6</ele><time>2026-05-03T07:24:46.998Z</time></trkpt><trkpt lat="42.357600105581426" lon="13.479140536161912"><ele>702.4</ele><time>2026-05-03T07:24:48.998Z</time></trkpt><trkpt lat="42.35761406151765" lon="13.479251229410629"><ele>704.1999999999999</ele><time>2026-05-03T07:24:49.998Z</time></trkpt><trkpt lat="42.35762971321099" lon="13.479375373060744"><ele>706.0</ele><time>2026-05-03T07:24:50.998Z</time></trkpt><trkpt lat="42.35766068410194" lon="13.479511020080084"><ele>707.8</ele><time>2026-05-03T07:24:51.998Z</time></trkpt><trkpt lat="42.357679602926545" lon="13.479656803587744"><ele>709.5999999999999</ele><time>2026-05-03T07:24:52.998Z</time></trkpt><trkpt lat="42.35768357843525" lon="13.479798418981499"><ele>711.4</ele><time>2026-05-03T07:24:53.998Z</time></trkpt><trkpt lat="42.35770215722378" lon="13.479923174344512"><ele>713.2</ele><time>2026-05-03T07:24:54.998Z</time></trkpt><trkpt lat="42.35773049766252" lon="13.480052133777132"><ele>715.0</ele><time>2026-05-03T07:24:55.998Z</time></trkpt><trkpt lat="42.35773855085972" lon="13.480165895619983"><ele>715.0</ele><time>2026-05-03T07:24:56.998Z</time></trkpt><trkpt lat="42.35773477786696" lon="13.480277965043117"><ele>715.0</ele><time>2026-05-03T07:24:57.998Z</time></trkpt><trkpt lat="42.35771452938655" lon="13.480380981096365"><ele>715.0</ele><time>2026-05-03T07:24:58.998Z</time></trkpt><trkpt lat="42.35771296004215" lon="13.480484676327844"><ele>715.0</ele><time>2026-05-03T07:24:59.998Z</time></trkpt><trkpt lat="42.35765903677578" lon="13.480579337155808"><ele>715.0</ele><time>2026-05-03T07:25:00.998Z</time></trkpt><trkpt lat="42.35766026165113" lon="13.48072616697131"><ele>715.0</ele><time>2026-05-03T07:25:02.998Z</time></trkpt><trkpt lat="42.35767708720838" lon="13.480890832810505"><ele>716.1428571428572</ele><time>2026-05-03T07:25:04.998Z</time></trkpt><trkpt lat="42.357690720985026" lon="13.480983082725583"><ele>717.2857142857142</ele><time>2026-05-03T07:25:05.998Z</time></trkpt><trkpt lat="42.35770497448218" lon="13.481079525925121"><ele>718.4285714285714</ele><time>2026-05-03T07:25:06.998Z</time></trkpt><trkpt lat="42.35771922627795" lon="13.481175957527944"><ele>719.5714285714287</ele><time>2026-05-03T07:25:07.998Z</time></trkpt><trkpt lat="42.35775992121114" lon="13.481262835033517"><ele>720.7142857142858</ele><time>2026-05-03T07:25:08.998Z</time></trkpt><trkpt lat="42.357773589128215" lon="13.481349414990062"><ele>721.8571428571429</ele><time>2026-05-03T07:25:09.998Z</time></trkpt><trkpt lat="42.3577512222484" lon="13.48143814771987"><ele>723.0</ele><time>2026-05-03T07:25:10.998Z</time></trkpt><trkpt lat="42.357738048461634" lon="13.481529857328097"><ele>724.4285714285714</ele><time>2026-05-03T07:25:11.998Z</time></trkpt><trkpt lat="42.35770375134272" lon="13.481618577159683"><ele>725.8571428571429</ele><time>2026-05-03T07:25:12.998Z</time></trkpt><trkpt lat="42.357674931431745" lon="13.481708234894146"><ele>727.2857142857142</ele><time>2026-05-03T07:25:13.998Z</time></trkpt><trkpt lat="42.357648421081045" lon="13.481805250909515"><ele>728.7142857142858</ele><time>2026-05-03T07:25:14.998Z</time></trkpt><trkpt lat="42.3576319597962" lon="13.481903448871716"><ele>730.1428571428571</ele><time>2026-05-03T07:25:15.998Z</time></trkpt><trkpt lat="42.357623906282896" lon="13.481997772051079"><ele>731.5714285714286</ele><time>2026-05-03T07:25:16.998Z</time></trkpt><trkpt lat="42.35762222683108" lon="13.48209971854861"><ele>733.0</ele><time>2026-05-03T07:25:17.998Z</time></trkpt><trkpt lat="42.357630300618474" lon="13.482211781451504"><ele>734.6666666666667</ele><time>2026-05-03T07:25:18.998Z</time></trkpt><trkpt lat="42.357639783736204" lon="13.482322766801076"><ele>736.3333333333334</ele><time>2026-05-03T07:25:19.998Z</time></trkpt><trkpt lat="42.35764988011321" lon="13.482436909036386"><ele>738.0</ele><time>2026-05-03T07:25:20.998Z</time></trkpt><trkpt lat="42.357660067424106" lon="13.482555194473326"><ele>739.6666666666666</ele><time>2026-05-03T07:25:21.998Z</time></trkpt><trkpt lat="42.35766200243747" lon="13.482674946522407"><ele>741.3333333333333</ele><time>2026-05-03T07:25:22.998Z</time></trkpt><trkpt lat="42.35767242179012" lon="13.482796296571049"><ele>743.0</ele><time>2026-05-03T07:25:23.998Z</time></trkpt><trkpt lat="42.357673444757864" lon="13.482917304964698"><ele>744.1666666666666</ele><time>2026-05-03T07:25:24.998Z</time></trkpt><trkpt lat="42.35769373620111" lon="13.483025888902828"><ele>745.3333333333333</ele><time>2026-05-03T07:25:25.998Z</time></trkpt><trkpt lat="42.35770531399241" lon="13.483121096005256"><ele>746.5</ele><time>2026-05-03T07:25:26.998Z</time></trkpt><trkpt lat="42.35771542153168" lon="13.483212528079937"><ele>747.6666666666666</ele><time>2026-05-03T07:25:27.998Z</time></trkpt><trkpt lat="42.357733869127706" lon="13.483309031120175"><ele>748.8333333333334</ele><time>2026-05-03T07:25:28.998Z</time></trkpt><trkpt lat="42.357746870287066" lon="13.483413974979975"><ele>750.0</ele><time>2026-05-03T07:25:29.998Z</time></trkpt><trkpt lat="42.35776589632547" lon="13.483524527292946"><ele>750.0</ele><time>2026-05-03T07:25:30.998Z</time></trkpt><trkpt lat="42.35778898863338" lon="13.483638259756834"><ele>750.0</ele><time>2026-05-03T07:25:31.999Z</time></trkpt><trkpt lat="42.357817260337804" lon="13.48375655336734"><ele>750.0</ele><time>2026-05-03T07:25:32.999Z</time></trkpt><trkpt lat="42.357836313697554" lon="13.483886431511351"><ele>750.0</ele><time>2026-05-03T07:25:33.999Z</time></trkpt><trkpt lat="42.35785162613086" lon="13.4840251173147"><ele>750.0</ele><time>2026-05-03T07:25:34.999Z</time></trkpt><trkpt lat="42.35785255597071" lon="13.4841757642109"><ele>750.8</ele><time>2026-05-03T07:25:35.999Z</time></trkpt><trkpt lat="42.357830354461925" lon="13.484329383933655"><ele>751.6</ele><time>2026-05-03T07:25:36.999Z</time></trkpt><trkpt lat="42.35781056366005" lon="13.484480706311588"><ele>752.4000000000001</ele><time>2026-05-03T07:25:37.999Z</time></trkpt><trkpt lat="42.357782540703504" lon="13.484621765525993"><ele>753.2</ele><time>2026-05-03T07:25:38.999Z</time></trkpt><trkpt lat="42.35776736721987" lon="13.48474414611691"><ele>754.0</ele><time>2026-05-03T07:25:39.999Z</time></trkpt><trkpt lat="42.35775079578126" lon="13.484848618453253"><ele>754.5</ele><time>2026-05-03T07:25:40.999Z</time></trkpt><trkpt lat="42.35773268622507" lon="13.484947830582621"><ele>755.0</ele><time>2026-05-03T07:25:41.999Z</time></trkpt><trkpt lat="42.35772400578429" lon="13.48503941980178"><ele>755.5</ele><time>2026-05-03T07:25:42.999Z</time></trkpt><trkpt lat="42.3577270306909" lon="13.485208625177"><ele>756.0</ele><time>2026-05-03T07:25:44.999Z</time></trkpt><trkpt lat="42.357744782632885" lon="13.485309218966796"><ele>756.5</ele><time>2026-05-03T07:25:45.999Z</time></trkpt><trkpt lat="42.357769831490785" lon="13.485418403549264"><ele>757.0</ele><time>2026-05-03T07:25:46.999Z</time></trkpt><trkpt lat="42.35781578631761" lon="13.485520491963536"><ele>757.0</ele><time>2026-05-03T07:25:47.999Z</time></trkpt><trkpt lat="42.35785174704553" lon="13.485623095918493"><ele>757.0</ele><time>2026-05-03T07:25:49Z</time></trkpt><trkpt lat="42.35789737283826" lon="13.485704818707422"><ele>757.0</ele><time>2026-05-03T07:25:50Z</time></trkpt><trkpt lat="42.357938045340674" lon="13.48578295758365"><ele>757.0</ele><time>2026-05-03T07:25:51Z</time></trkpt><trkpt lat="42.357984389612305" lon="13.485864437360394"><ele>757.0</ele><time>2026-05-03T07:25:52Z</time></trkpt><trkpt lat="42.35805616634453" lon="13.485942258382183"><ele>757.0</ele><time>2026-05-03T07:25:53Z</time></trkpt><trkpt lat="42.358128424196536" lon="13.486029986134811"><ele>758.6</ele><time>2026-05-03T07:25:54Z</time></trkpt><trkpt lat="42.35820028600797" lon="13.486119160249988"><ele>760.2</ele><time>2026-05-03T07:25:55Z</time></trkpt><trkpt lat="42.35827499295766" lon="13.486211960698075"><ele>761.8</ele><time>2026-05-03T07:25:56Z</time></trkpt><trkpt lat="42.3583536141154" lon="13.486304066403093"><ele>763.4</ele><time>2026-05-03T07:25:57Z</time></trkpt><trkpt lat="42.35842887254283" lon="13.486397546343131"><ele>765.0</ele><time>2026-05-03T07:25:58Z</time></trkpt><trkpt lat="42.35850371700055" lon="13.486497872573674"><ele>765.0</ele><time>2026-05-03T07:25:59Z</time></trkpt><trkpt lat="42.35857022925566" lon="13.48659310382814"><ele>765.0</ele><time>2026-05-03T07:26:00Z</time></trkpt><trkpt lat="42.35863435998406" lon="13.486687605774044"><ele>765.0</ele><time>2026-05-03T07:26:01Z</time></trkpt><trkpt lat="42.35869987281095" lon="13.486781455744334"><ele>765.0</ele><time>2026-05-03T07:26:02Z</time></trkpt><trkpt lat="42.35876324865969" lon="13.486902667933391"><ele>765.0</ele><time>2026-05-03T07:26:03Z</time></trkpt><trkpt lat="42.35883113468834" lon="13.487026916712848"><ele>768.3333333333334</ele><time>2026-05-03T07:26:04Z</time></trkpt><trkpt lat="42.358889084035425" lon="13.48715035744582"><ele>771.6666666666667</ele><time>2026-05-03T07:26:05Z</time></trkpt><trkpt lat="42.3589443806325" lon="13.487248838562502"><ele>775.0</ele><time>2026-05-03T07:26:06Z</time></trkpt><trkpt lat="42.35899974830029" lon="13.48732149876824"><ele>778.3333333333334</ele><time>2026-05-03T07:26:07Z</time></trkpt><trkpt lat="42.35904278646479" lon="13.487384858328285"><ele>781.6666666666667</ele><time>2026-05-03T07:26:08Z</time></trkpt><trkpt lat="42.35909860427194" lon="13.487465375674613"><ele>785.0</ele><time>2026-05-03T07:26:09Z</time></trkpt><trkpt lat="42.35916506589241" lon="13.487559199220822"><ele>785.0000000000001</ele><time>2026-05-03T07:26:10Z</time></trkpt><trkpt lat="42.35922591836491" lon="13.487639616507145"><ele>785.0</ele><time>2026-05-03T07:26:11Z</time></trkpt><trkpt lat="42.359281619691636" lon="13.487723540412754"><ele>785.0</ele><time>2026-05-03T07:26:12Z</time></trkpt><trkpt lat="42.35934141933663" lon="13.487808227783418"><ele>785.0</ele><time>2026-05-03T07:26:13Z</time></trkpt><trkpt lat="42.359403139129306" lon="13.487901296851726"><ele>785.0000000000001</ele><time>2026-05-03T07:26:14Z</time></trkpt><trkpt lat="42.359464994768736" lon="13.488010448346095"><ele>785.0</ele><time>2026-05-03T07:26:15Z</time></trkpt><trkpt lat="42.359515875155964" lon="13.488120905138882"><ele>784.0</ele><time>2026-05-03T07:26:16Z</time></trkpt><trkpt lat="42.359570267755004" lon="13.488252744769744"><ele>783.0</ele><time>2026-05-03T07:26:17Z</time></trkpt><trkpt lat="42.359618517119856" lon="13.488355621761023"><ele>782.0</ele><time>2026-05-03T07:26:18Z</time></trkpt><trkpt lat="42.35966832673019" lon="13.488440041145571"><ele>781.0</ele><time>2026-05-03T07:26:19Z</time></trkpt><trkpt lat="42.35973977700185" lon="13.488557916816786"><ele>780.0</ele><time>2026-05-03T07:26:20Z</time></trkpt><trkpt lat="42.35981264194351" lon="13.488674267539013"><ele>782.4</ele><time>2026-05-03T07:26:21Z</time></trkpt><trkpt lat="42.35989935668213" lon="13.488802421617416"><ele>784.8</ele><time>2026-05-03T07:26:22Z</time></trkpt><trkpt lat="42.35998219630563" lon="13.48890014280494"><ele>787.2</ele><time>2026-05-03T07:26:23Z</time></trkpt><trkpt lat="42.360058591762254" lon="13.488973961267487"><ele>789.6</ele><time>2026-05-03T07:26:24Z</time></trkpt><trkpt lat="42.36013966385304" lon="13.48905871903824"><ele>792.0</ele><time>2026-05-03T07:26:25Z</time></trkpt><trkpt lat="42.36021124780808" lon="13.48913480313426"><ele>792.0</ele><time>2026-05-03T07:26:26Z</time></trkpt><trkpt lat="42.360264806926665" lon="13.48918973599883"><ele>792.0</ele><time>2026-05-03T07:26:27Z</time></trkpt><trkpt lat="42.360323547198156" lon="13.48926812671422"><ele>792.0</ele><time>2026-05-03T07:26:28Z</time></trkpt><trkpt lat="42.36038744109317" lon="13.48937503434248"><ele>792.0</ele><time>2026-05-03T07:26:29Z</time></trkpt><trkpt lat="42.36045092141874" lon="13.489463486138467"><ele>792.0</ele><time>2026-05-03T07:26:30Z</time></trkpt><trkpt lat="42.360509361571296" lon="13.489565425912286"><ele>792.0</ele><time>2026-05-03T07:26:31Z</time></trkpt><trkpt lat="42.36057544353714" lon="13.489678934661393"><ele>793.3333333333334</ele><time>2026-05-03T07:26:32Z</time></trkpt><trkpt lat="42.36064651293568" lon="13.48977065790177"><ele>794.6666666666667</ele><time>2026-05-03T07:26:33Z</time></trkpt><trkpt lat="42.360706192838535" lon="13.489853942192985"><ele>796.0</ele><time>2026-05-03T07:26:34Z</time></trkpt><trkpt lat="42.360773357654956" lon="13.489944636785216"><ele>797.3333333333334</ele><time>2026-05-03T07:26:35Z</time></trkpt><trkpt lat="42.36082975651499" lon="13.49002629238201"><ele>798.6666666666667</ele><time>2026-05-03T07:26:36Z</time></trkpt><trkpt lat="42.36087971807836" lon="13.49009619127721"><ele>800.0</ele><time>2026-05-03T07:26:36.999Z</time></trkpt><trkpt lat="42.360944141525955" lon="13.490151962925943"><ele>800.0000000000001</ele><time>2026-05-03T07:26:37.999Z</time></trkpt><trkpt lat="42.36101812400354" lon="13.49019868012554"><ele>800.0</ele><time>2026-05-03T07:26:38.999Z</time></trkpt><trkpt lat="42.361087941393045" lon="13.490236854568616"><ele>800.0</ele><time>2026-05-03T07:26:39.999Z</time></trkpt><trkpt lat="42.36116742132928" lon="13.490282932517749"><ele>800.0</ele><time>2026-05-03T07:26:40.999Z</time></trkpt><trkpt lat="42.36124922719872" lon="13.490352776408923"><ele>800.0000000000001</ele><time>2026-05-03T07:26:41.999Z</time></trkpt><trkpt lat="42.36133106308092" lon="13.490440019389467"><ele>800.0</ele><time>2026-05-03T07:26:42.999Z</time></trkpt><trkpt lat="42.36141896517758" lon="13.490528349451157"><ele>802.0000000000001</ele><time>2026-05-03T07:26:43.999Z</time></trkpt><trkpt lat="42.36150029948281" lon="13.490608270902117"><ele>804.0</ele><time>2026-05-03T07:26:44.999Z</time></trkpt><trkpt lat="42.361575964641034" lon="13.490676866446622"><ele>806.0</ele><time>2026-05-03T07:26:45.999Z</time></trkpt><trkpt lat="42.361645071050646" lon="13.490731949026927"><ele>808.0</ele><time>2026-05-03T07:26:46.999Z</time></trkpt><trkpt lat="42.361709266716424" lon="13.490799334897902"><ele>810.0000000000001</ele><time>2026-05-03T07:26:47.999Z</time></trkpt><trkpt lat="42.361787023977506" lon="13.49084978185843"><ele>812.0</ele><time>2026-05-03T07:26:48.999Z</time></trkpt><trkpt lat="42.361855874120536" lon="13.49090211404296"><ele>812.0000000000001</ele><time>2026-05-03T07:26:49.999Z</time></trkpt><trkpt lat="42.36191537734472" lon="13.49095451412274"><ele>812.0</ele><time>2026-05-03T07:26:50.999Z</time></trkpt><trkpt lat="42.36196683008543" lon="13.49101804700878"><ele>812.0</ele><time>2026-05-03T07:26:51.999Z</time></trkpt><trkpt lat="42.362016041260596" lon="13.491114279098417"><ele>812.0</ele><time>2026-05-03T07:26:52.999Z</time></trkpt><trkpt lat="42.36205976710843" lon="13.491202853115277"><ele>812.0000000000001</ele><time>2026-05-03T07:26:53.999Z</time></trkpt><trkpt lat="42.36211642128034" lon="13.491280294562099"><ele>812.0</ele><time>2026-05-03T07:26:54.999Z</time></trkpt><trkpt lat="42.36217682965074" lon="13.491357663529516"><ele>813.4000000000001</ele><time>2026-05-03T07:26:55.999Z</time></trkpt><trkpt lat="42.36224159878444" lon="13.491444716308871"><ele>814.8000000000001</ele><time>2026-05-03T07:26:56.999Z</time></trkpt><trkpt lat="42.362305203934746" lon="13.491532516524835"><ele>816.2</ele><time>2026-05-03T07:26:57.999Z</time></trkpt><trkpt lat="42.362371389027594" lon="13.49163190868266"><ele>817.6</ele><time>2026-05-03T07:26:58.999Z</time></trkpt><trkpt lat="42.362438999030964" lon="13.49173859238138"><ele>819.0</ele><time>2026-05-03T07:26:59.999Z</time></trkpt><trkpt lat="42.36249349683458" lon="13.491846663122562"><ele>819.0</ele><time>2026-05-03T07:27:00.999Z</time></trkpt><trkpt lat="42.36252698492705" lon="13.491934387957699"><ele>819.0</ele><time>2026-05-03T07:27:01.999Z</time></trkpt><trkpt lat="42.36256443808509" lon="13.492027329547806"><ele>819.0</ele><time>2026-05-03T07:27:02.999Z</time></trkpt><trkpt lat="42.36260077014764" lon="13.492119167808742"><ele>819.0</ele><time>2026-05-03T07:27:03.999Z</time></trkpt><trkpt lat="42.36263427019098" lon="13.49222318876142"><ele>819.0</ele><time>2026-05-03T07:27:04.999Z</time></trkpt><trkpt lat="42.36266183592066" lon="13.492341150115442"><ele>819.0</ele><time>2026-05-03T07:27:05.999Z</time></trkpt><trkpt lat="42.36268783143065" lon="13.492441240149999"><ele>820.5</ele><time>2026-05-03T07:27:06.999Z</time></trkpt><trkpt lat="42.362723419754836" lon="13.49256545178977"><ele>822.0</ele><time>2026-05-03T07:27:07.999Z</time></trkpt><trkpt lat="42.36276271752527" lon="13.492689999263291"><ele>823.5</ele><time>2026-05-03T07:27:08.999Z</time></trkpt><trkpt lat="42.36279351948425" lon="13.492808261470424"><ele>825.0</ele><time>2026-05-03T07:27:09.999Z</time></trkpt><trkpt lat="42.36281157957784" lon="13.492904648716102"><ele>826.5</ele><time>2026-05-03T07:27:10.999Z</time></trkpt><trkpt lat="42.362811494406166" lon="13.493016791627731"><ele>828.0</ele><time>2026-05-03T07:27:11.999Z</time></trkpt><trkpt lat="42.36280036366248" lon="13.493128861434077"><ele>831.2</ele><time>2026-05-03T07:27:12.999Z</time></trkpt><trkpt lat="42.362791719439514" lon="13.493251670062255"><ele>834.4</ele><time>2026-05-03T07:27:13.999Z</time></trkpt><trkpt lat="42.36279596008191" lon="13.49335847620439"><ele>837.6</ele><time>2026-05-03T07:27:14.999Z</time></trkpt><trkpt lat="42.36280854461373" lon="13.493446737445446"><ele>840.8000000000001</ele><time>2026-05-03T07:27:15.999Z</time></trkpt><trkpt lat="42.362849690146646" lon="13.493578560210318"><ele>844.0</ele><time>2026-05-03T07:27:17.999Z</time></trkpt><trkpt lat="42.36290131451376" lon="13.493740586993471"><ele>846.6</ele><time>2026-05-03T07:27:19.999Z</time></trkpt><trkpt lat="42.36294284424654" lon="13.493931698433068"><ele>849.2</ele><time>2026-05-03T07:27:21.999Z</time></trkpt><trkpt lat="42.362962154406716" lon="13.494062681645927"><ele>851.8000000000001</ele><time>2026-05-03T07:27:22.999Z</time></trkpt><trkpt lat="42.36296920443207" lon="13.49418744862405"><ele>854.4000000000001</ele><time>2026-05-03T07:27:23.999Z</time></trkpt><trkpt lat="42.362984905957504" lon="13.494278853674361"><ele>857.0</ele><time>2026-05-03T07:27:24.999Z</time></trkpt><trkpt lat="42.36299464276046" lon="13.494383910563165"><ele>857.0000000000001</ele><time>2026-05-03T07:27:25.999Z</time></trkpt><trkpt lat="42.363000694077634" lon="13.494496130037517"><ele>857.0</ele><time>2026-05-03T07:27:26.999Z</time></trkpt><trkpt lat="42.362999804999795" lon="13.494593735615782"><ele>857.0</ele><time>2026-05-03T07:27:27.999Z</time></trkpt><trkpt lat="42.36300335174636" lon="13.49467951962047"><ele>857.0</ele><time>2026-05-03T07:27:28.999Z</time></trkpt><trkpt lat="42.36299809296754" lon="13.49477736585127"><ele>857.0000000000001</ele><time>2026-05-03T07:27:29.999Z</time></trkpt><trkpt lat="42.36299242514081" lon="13.494900790842012"><ele>857.0</ele><time>2026-05-03T07:27:30.999Z</time></trkpt><trkpt lat="42.362981614307415" lon="13.495030338815091"><ele>858.0000000000001</ele><time>2026-05-03T07:27:31.999Z</time></trkpt><trkpt lat="42.36296529894181" lon="13.495152527365457"><ele>859.0</ele><time>2026-05-03T07:27:32.999Z</time></trkpt><trkpt lat="42.36294860458891" lon="13.495257843503023"><ele>860.0</ele><time>2026-05-03T07:27:33.999Z</time></trkpt><trkpt lat="42.362942782812915" lon="13.495369085622052"><ele>861.0</ele><time>2026-05-03T07:27:34.999Z</time></trkpt><trkpt lat="42.36292982105376" lon="13.495489738012424"><ele>862.0000000000001</ele><time>2026-05-03T07:27:35.999Z</time></trkpt><trkpt lat="42.36291320824851" lon="13.495616265735455"><ele>863.0</ele><time>2026-05-03T07:27:36.999Z</time></trkpt><trkpt lat="42.36289901779013" lon="13.495757304231477"><ele>863.3333333333334</ele><time>2026-05-03T07:27:37.999Z</time></trkpt><trkpt lat="42.362887161825746" lon="13.495873531492853"><ele>863.6666666666667</ele><time>2026-05-03T07:27:38.999Z</time></trkpt><trkpt lat="42.36288016493993" lon="13.495991661316134"><ele>864.0</ele><time>2026-05-03T07:27:39.999Z</time></trkpt><trkpt lat="42.3628676819501" lon="13.496127874146598"><ele>864.3333333333333</ele><time>2026-05-03T07:27:40.999Z</time></trkpt><trkpt lat="42.36286349856255" lon="13.496239004265753"><ele>864.6666666666666</ele><time>2026-05-03T07:27:41.999Z</time></trkpt><trkpt lat="42.36285968549335" lon="13.496348051398911"><ele>865.0</ele><time>2026-05-03T07:27:42.999Z</time></trkpt><trkpt lat="42.36285000046858" lon="13.496437314156351"><ele>865.9999999999999</ele><time>2026-05-03T07:27:43.999Z</time></trkpt><trkpt lat="42.362844498405394" lon="13.49652370232428"><ele>867.0</ele><time>2026-05-03T07:27:44.999Z</time></trkpt><trkpt lat="42.36283421409046" lon="13.49666821267522"><ele>868.0</ele><time>2026-05-03T07:27:46.999Z</time></trkpt><trkpt lat="42.36284416368267" lon="13.49676077945729"><ele>869.0</ele><time>2026-05-03T07:27:47.999Z</time></trkpt><trkpt lat="42.36285716857615" lon="13.496873315063814"><ele>869.9999999999999</ele><time>2026-05-03T07:27:48.999Z</time></trkpt><trkpt lat="42.36288479553483" lon="13.49698420589641"><ele>871.0</ele><time>2026-05-03T07:27:49.999Z</time></trkpt><trkpt lat="42.36289832385435" lon="13.49708377289895"><ele>871.6666666666666</ele><time>2026-05-03T07:27:50.999Z</time></trkpt><trkpt lat="42.3629047693556" lon="13.497195739330424"><ele>872.3333333333333</ele><time>2026-05-03T07:27:51.999Z</time></trkpt><trkpt lat="42.36289494981719" lon="13.497318992434716"><ele>873.0</ele><time>2026-05-03T07:27:52.999Z</time></trkpt><trkpt lat="42.36289200257825" lon="13.497439239168315"><ele>873.6666666666667</ele><time>2026-05-03T07:27:53.999Z</time></trkpt><trkpt lat="42.362896378245686" lon="13.497533325774342"><ele>874.3333333333334</ele><time>2026-05-03T07:27:54.999Z</time></trkpt><trkpt lat="42.362916727784956" lon="13.497625496091874"><ele>875.0</ele><time>2026-05-03T07:27:55.999Z</time></trkpt><trkpt lat="42.36293720569311" lon="13.497710781404148"><ele>875.0000000000001</ele><time>2026-05-03T07:27:56.999Z</time></trkpt><trkpt lat="42.3629821654329" lon="13.49779362035835"><ele>875.0</ele><time>2026-05-03T07:27:57.999Z</time></trkpt><trkpt lat="42.36302689927281" lon="13.497872282063048"><ele>875.0</ele><time>2026-05-03T07:27:58.999Z</time></trkpt><trkpt lat="42.36307739787386" lon="13.49794773147052"><ele>875.0</ele><time>2026-05-03T07:27:59.999Z</time></trkpt><trkpt lat="42.36312477506204" lon="13.498010850954156"><ele>875.0000000000001</ele><time>2026-05-03T07:28:00.999Z</time></trkpt><trkpt lat="42.36321422549876" lon="13.498094854496031"><ele>875.0</ele><time>2026-05-03T07:28:02.999Z</time></trkpt><trkpt lat="42.363267527650535" lon="13.498140229089032"><ele>878.6</ele><time>2026-05-03T07:28:03.999Z</time></trkpt><trkpt lat="42.36332289267041" lon="13.49818588688867"><ele>882.2</ele><time>2026-05-03T07:28:04.999Z</time></trkpt><trkpt lat="42.363402624471675" lon="13.498258197534813"><ele>885.8</ele><time>2026-05-03T07:28:06.999Z</time></trkpt><trkpt lat="42.363481969747376" lon="13.498338646819757"><ele>889.4</ele><time>2026-05-03T07:28:08.999Z</time></trkpt><trkpt lat="42.36354210883308" lon="13.498399180463982"><ele>893.0</ele><time>2026-05-03T07:28:10.999Z</time></trkpt><trkpt lat="42.363638854066" lon="13.498515884914928"><ele>893.0</ele><time>2026-05-03T07:28:12.999Z</time></trkpt><trkpt lat="42.363672368669185" lon="13.498588218962555"><ele>893.0</ele><time>2026-05-03T07:28:13.999Z</time></trkpt><trkpt lat="42.363702808884405" lon="13.498728492123428"><ele>893.0</ele><time>2026-05-03T07:28:15.999Z</time></trkpt><trkpt lat="42.36374627188001" lon="13.49888111020705"><ele>893.0</ele><time>2026-05-03T07:28:17.999Z</time></trkpt><trkpt lat="42.36378057023177" lon="13.499006991909976"><ele>893.0</ele><time>2026-05-03T07:28:19.999Z</time></trkpt><trkpt lat="42.363828591067936" lon="13.499088658399808"><ele>895.5999999999999</ele><time>2026-05-03T07:28:21.999Z</time></trkpt><trkpt lat="42.363913826305215" lon="13.499205147460566"><ele>898.1999999999999</ele><time>2026-05-03T07:28:23.999Z</time></trkpt><trkpt lat="42.36397693751174" lon="13.49933672667488"><ele>900.8</ele><time>2026-05-03T07:28:25.999Z</time></trkpt><trkpt lat="42.36404732183127" lon="13.49941490273686"><ele>903.4</ele><time>2026-05-03T07:28:27.999Z</time></trkpt><trkpt lat="42.364096013714814" lon="13.499477790267933"><ele>906.0</ele><time>2026-05-03T07:28:28.999Z</time></trkpt><trkpt lat="42.364168687540314" lon="13.49958855750411"><ele>906.2857142857142</ele><time>2026-05-03T07:28:30.999Z</time></trkpt><trkpt lat="42.36420771592265" lon="13.49966761482102"><ele>906.5714285714286</ele><time>2026-05-03T07:28:31.999Z</time></trkpt><trkpt lat="42.36425182180921" lon="13.499743800500037"><ele>906.8571428571429</ele><time>2026-05-03T07:28:32.999Z</time></trkpt><trkpt lat="42.364296859974935" lon="13.49982009738518"><ele>907.1428571428571</ele><time>2026-05-03T07:28:33.999Z</time></trkpt><trkpt lat="42.364328883733236" lon="13.499900233721096"><ele>907.4285714285716</ele><time>2026-05-03T07:28:34.999Z</time></trkpt><trkpt lat="42.36436742418013" lon="13.499976581791667"><ele>907.7142857142858</ele><time>2026-05-03T07:28:35.999Z</time></trkpt><trkpt lat="42.36441658285921" lon="13.500067831825543"><ele>908.0</ele><time>2026-05-03T07:28:36.999Z</time></trkpt><trkpt lat="42.36445930612278" lon="13.500165913806446"><ele>908.0000000000001</ele><time>2026-05-03T07:28:37.999Z</time></trkpt><trkpt lat="42.36450115924901" lon="13.500262170972439"><ele>908.0</ele><time>2026-05-03T07:28:38.999Z</time></trkpt><trkpt lat="42.36453182248805" lon="13.50035007868819"><ele>908.0</ele><time>2026-05-03T07:28:39.999Z</time></trkpt><trkpt lat="42.36456864286443" lon="13.500447607576879"><ele>908.0</ele><time>2026-05-03T07:28:40.999Z</time></trkpt><trkpt lat="42.36462917389701" lon="13.500571413555425"><ele>908.0000000000001</ele><time>2026-05-03T07:28:42.999Z</time></trkpt><trkpt lat="42.36466882665773" lon="13.50069492512426"><ele>908.0</ele><time>2026-05-03T07:28:44.999Z</time></trkpt><trkpt lat="42.364712267938295" lon="13.500824553517512"><ele>910.4</ele><time>2026-05-03T07:28:46.999Z</time></trkpt><trkpt lat="42.36474098767851" lon="13.5009051408793"><ele>912.8</ele><time>2026-05-03T07:28:47.999Z</time></trkpt><trkpt lat="42.36479254356063" lon="13.501071628944"><ele>915.2</ele><time>2026-05-03T07:28:49.999Z</time></trkpt><trkpt lat="42.36482206139638" lon="13.501175114551378"><ele>917.6</ele><time>2026-05-03T07:28:50.999Z</time></trkpt><trkpt lat="42.36485567953154" lon="13.501330948913862"><ele>920.0</ele><time>2026-05-03T07:28:52.999Z</time></trkpt><trkpt lat="42.364875461604576" lon="13.501416462556524"><ele>921.4</ele><time>2026-05-03T07:28:53.999Z</time></trkpt><trkpt lat="42.36489391867631" lon="13.501511942747861"><ele>922.8</ele><time>2026-05-03T07:28:54.999Z</time></trkpt><trkpt lat="42.36493524912881" lon="13.501657387224512"><ele>924.2</ele><time>2026-05-03T07:28:56.999Z</time></trkpt><trkpt lat="42.36497632289224" lon="13.501783845895469"><ele>925.6</ele><time>2026-05-03T07:28:58.999Z</time></trkpt><trkpt lat="42.36501274954723" lon="13.501928837024797"><ele>927.0</ele><time>2026-05-03T07:29:00.999Z</time></trkpt><trkpt lat="42.36504019069989" lon="13.502021338287534"><ele>928.5</ele><time>2026-05-03T07:29:01.999Z</time></trkpt><trkpt lat="42.365081448988775" lon="13.502181603112478"><ele>930.0</ele><time>2026-05-03T07:29:03.999Z</time></trkpt><trkpt lat="42.36511722615823" lon="13.502328861260354"><ele>931.5</ele><time>2026-05-03T07:29:05.999Z</time></trkpt><trkpt lat="42.36514647642138" lon="13.502479960899265"><ele>933.0</ele><time>2026-05-03T07:29:07.999Z</time></trkpt><trkpt lat="42.36517809374618" lon="13.502645550267664"><ele>933.0</ele><time>2026-05-03T07:29:09.999Z</time></trkpt><trkpt lat="42.36522487371181" lon="13.502792113972234"><ele>933.0</ele><time>2026-05-03T07:29:11.999Z</time></trkpt><trkpt lat="42.365276586653735" lon="13.50293126833917"><ele>933.0</ele><time>2026-05-03T07:29:13.999Z</time></trkpt><trkpt lat="42.36533172429125" lon="13.503079490239166"><ele>933.0</ele><time>2026-05-03T07:29:15.999Z</time></trkpt><trkpt lat="42.365371801723256" lon="13.503147970330328"><ele>933.0</ele><time>2026-05-03T07:29:16.999Z</time></trkpt><trkpt lat="42.36542589717468" lon="13.503245104087265"><ele>934.5999999999999</ele><time>2026-05-03T07:29:17.999Z</time></trkpt><trkpt lat="42.36548211120946" lon="13.50335925645645"><ele>936.1999999999999</ele><time>2026-05-03T07:29:18.999Z</time></trkpt><trkpt lat="42.36554121287571" lon="13.503469925831105"><ele>937.8</ele><time>2026-05-03T07:29:19.999Z</time></trkpt><trkpt lat="42.36559612201027" lon="13.503570469761188"><ele>939.4</ele><time>2026-05-03T07:29:20.999Z</time></trkpt><trkpt lat="42.36564578703277" lon="13.50366268686062"><ele>941.0</ele><time>2026-05-03T07:29:21.999Z</time></trkpt><trkpt lat="42.365686681019184" lon="13.503756292994481"><ele>941.6666666666667</ele><time>2026-05-03T07:29:22.999Z</time></trkpt><trkpt lat="42.36571723522881" lon="13.503847081849768"><ele>942.3333333333334</ele><time>2026-05-03T07:29:23.999Z</time></trkpt><trkpt lat="42.365747127892305" lon="13.50394021531397"><ele>943.0</ele><time>2026-05-03T07:29:24.999Z</time></trkpt><trkpt lat="42.3657728632132" lon="13.504031159343498"><ele>943.6666666666667</ele><time>2026-05-03T07:29:25.999Z</time></trkpt><trkpt lat="42.36580448865272" lon="13.50419276700494"><ele>944.3333333333334</ele><time>2026-05-03T07:29:27.999Z</time></trkpt><trkpt lat="42.36581137745993" lon="13.504324444335321"><ele>945.0</ele><time>2026-05-03T07:29:29.999Z</time></trkpt><trkpt lat="42.36580722669016" lon="13.504465997044727"><ele>945.1666666666666</ele><time>2026-05-03T07:29:31.999Z</time></trkpt><trkpt lat="42.36580441863195" lon="13.504612471511171"><ele>945.3333333333333</ele><time>2026-05-03T07:29:33.999Z</time></trkpt><trkpt lat="42.36579787614568" lon="13.504698778716248"><ele>945.5</ele><time>2026-05-03T07:29:34.999Z</time></trkpt><trkpt lat="42.365795593192296" lon="13.504784812166656"><ele>945.6666666666666</ele><time>2026-05-03T07:29:35.999Z</time></trkpt><trkpt lat="42.365794219460895" lon="13.504873411695376"><ele>945.8333333333333</ele><time>2026-05-03T07:29:36.999Z</time></trkpt><trkpt lat="42.36580991282336" lon="13.505055444760918"><ele>946.0</ele><time>2026-05-03T07:29:38.999Z</time></trkpt><trkpt lat="42.36583107490511" lon="13.505159125030005"><ele>946.0</ele><time>2026-05-03T07:29:39.999Z</time></trkpt><trkpt lat="42.36585761388469" lon="13.505278752555048"><ele>945.9999999999999</ele><time>2026-05-03T07:29:40.999Z</time></trkpt><trkpt lat="42.365884479972" lon="13.505420705439086"><ele>945.9999999999999</ele><time>2026-05-03T07:29:41.999Z</time></trkpt><trkpt lat="42.365907801609694" lon="13.505527441586375"><ele>946.0</ele><time>2026-05-03T07:29:42.999Z</time></trkpt><trkpt lat="42.36592515878408" lon="13.505643595358388"><ele>946.0</ele><time>2026-05-03T07:29:43.999Z</time></trkpt><trkpt lat="42.36593907726332" lon="13.505755271748695"><ele>946.1666666666666</ele><time>2026-05-03T07:29:44.999Z</time></trkpt><trkpt lat="42.36596019623215" lon="13.505839288311854"><ele>946.3333333333333</ele><time>2026-05-03T07:29:45.999Z</time></trkpt><trkpt lat="42.36598265855737" lon="13.505983673253754"><ele>946.5</ele><time>2026-05-03T07:29:47.999Z</time></trkpt><trkpt lat="42.365992623314845" lon="13.506152497839132"><ele>946.6666666666667</ele><time>2026-05-03T07:29:49.999Z</time></trkpt><trkpt lat="42.36600365268737" lon="13.506258542933283"><ele>946.8333333333334</ele><time>2026-05-03T07:29:50.999Z</time></trkpt><trkpt lat="42.36601840320233" lon="13.506345409432578"><ele>947.0</ele><time>2026-05-03T07:29:51.999Z</time></trkpt><trkpt lat="42.3660560029715" lon="13.506481544157621"><ele>947.3333333333334</ele><time>2026-05-03T07:29:53.999Z</time></trkpt><trkpt lat="42.36612359316284" lon="13.506582947299034"><ele>947.6666666666667</ele><time>2026-05-03T07:29:55.999Z</time></trkpt><trkpt lat="42.36615678342778" lon="13.506656652614824"><ele>948.0</ele><time>2026-05-03T07:29:56.999Z</time></trkpt><trkpt lat="42.36619371091904" lon="13.506732611492772"><ele>948.3333333333333</ele><time>2026-05-03T07:29:57.999Z</time></trkpt><trkpt lat="42.36627654742262" lon="13.506867468003804"><ele>948.6666666666666</ele><time>2026-05-03T07:29:59.999Z</time></trkpt><trkpt lat="42.36633063026345" lon="13.506929657468133"><ele>949.0</ele><time>2026-05-03T07:30:00.999Z</time></trkpt><trkpt lat="42.3663966130244" lon="13.50700685929224"><ele>949.3333333333333</ele><time>2026-05-03T07:30:01.999Z</time></trkpt><trkpt lat="42.36644315727214" lon="13.507072489821384"><ele>949.6666666666666</ele><time>2026-05-03T07:30:02.999Z</time></trkpt><trkpt lat="42.366495356921355" lon="13.507167486076531"><ele>950.0</ele><time>2026-05-03T07:30:03.999Z</time></trkpt><trkpt lat="42.36654774812058" lon="13.50725916065304"><ele>950.3333333333333</ele><time>2026-05-03T07:30:04.999Z</time></trkpt><trkpt lat="42.366591901213546" lon="13.507348247261834"><ele>950.6666666666666</ele><time>2026-05-03T07:30:05.999Z</time></trkpt><trkpt lat="42.36663995164758" lon="13.507447255728147"><ele>951.0</ele><time>2026-05-03T07:30:06.999Z</time></trkpt><trkpt lat="42.366678631665835" lon="13.507530551805589"><ele>950.8333333333334</ele><time>2026-05-03T07:30:07.999Z</time></trkpt><trkpt lat="42.36671990891471" lon="13.507602434055215"><ele>950.6666666666667</ele><time>2026-05-03T07:30:08.999Z</time></trkpt><trkpt lat="42.3666313871841" lon="13.507657575231395"><ele>950.5</ele><time>2026-05-03T07:30:49.999Z</time></trkpt><trkpt lat="42.366503248131146" lon="13.507742185035692"><ele>950.3333333333334</ele><time>2026-05-03T07:30:51.999Z</time></trkpt><trkpt lat="42.366436040851546" lon="13.50778206354282"><ele>950.1666666666667</ele><time>2026-05-03T07:30:52.999Z</time></trkpt><trkpt lat="42.366379094924746" lon="13.507831024208727"><ele>950.0</ele><time>2026-05-03T07:30:53.999Z</time></trkpt><trkpt lat="42.36632730761294" lon="13.507881551423935"><ele>950.6</ele><time>2026-05-03T07:30:54.999Z</time></trkpt><trkpt lat="42.366272512765775" lon="13.507938453101684"><ele>951.2</ele><time>2026-05-03T07:30:55.999Z</time></trkpt><trkpt lat="42.3661666577695" lon="13.5080260249327"><ele>951.8</ele><time>2026-05-03T07:30:57.999Z</time></trkpt><trkpt lat="42.366080694863925" lon="13.508118647991676"><ele>952.4</ele><time>2026-05-03T07:30:59.999Z</time></trkpt><trkpt lat="42.3660111639196" lon="13.508245859840066"><ele>953.0</ele><time>2026-05-03T07:31:01.999Z</time></trkpt><trkpt lat="42.3659798541006" lon="13.5083296865624"><ele>953.0000000000001</ele><time>2026-05-03T07:31:02.999Z</time></trkpt><trkpt lat="42.36594690186385" lon="13.508415675246221"><ele>953.0</ele><time>2026-05-03T07:31:03.999Z</time></trkpt><trkpt lat="42.365872863392205" lon="13.508522764769923"><ele>953.0</ele><time>2026-05-03T07:31:05.999Z</time></trkpt><trkpt lat="42.36580153904457" lon="13.508558768043383"><ele>953.0</ele><time>2026-05-03T07:31:07.999Z</time></trkpt><trkpt lat="42.36576543471463" lon="13.508647184333725"><ele>953.0000000000001</ele><time>2026-05-03T07:31:10.999Z</time></trkpt><trkpt lat="42.36575745176072" lon="13.508758122440312"><ele>953.0</ele><time>2026-05-03T07:31:12.999Z</time></trkpt><trkpt lat="42.365726337255296" lon="13.508849697933732"><ele>954.0000000000001</ele><time>2026-05-03T07:31:13.999Z</time></trkpt><trkpt lat="42.36569317537866" lon="13.508940901633451"><ele>955.0</ele><time>2026-05-03T07:31:14.999Z</time></trkpt><trkpt lat="42.36566914948827" lon="13.509023751567751"><ele>956.0</ele><time>2026-05-03T07:31:15.999Z</time></trkpt><trkpt lat="42.3656365349005" lon="13.509151234148504"><ele>957.0</ele><time>2026-05-03T07:31:17.999Z</time></trkpt><trkpt lat="42.36562316384663" lon="13.509236194842742"><ele>958.0000000000001</ele><time>2026-05-03T07:31:18.999Z</time></trkpt><trkpt lat="42.36562090399127" lon="13.509321409931317"><ele>959.0</ele><time>2026-05-03T07:31:19.999Z</time></trkpt><trkpt lat="42.36562324762168" lon="13.509475833608333"><ele>958.6666666666667</ele><time>2026-05-03T07:31:21.999Z</time></trkpt><trkpt lat="42.36563131629651" lon="13.509599296895418"><ele>958.3333333333334</ele><time>2026-05-03T07:31:23.999Z</time></trkpt><trkpt lat="42.36568440577797" lon="13.509707935088642"><ele>958.0</ele><time>2026-05-03T07:31:25.999Z</time></trkpt><trkpt lat="42.36573411731982" lon="13.509771638454831"><ele>957.6666666666667</ele><time>2026-05-03T07:31:26.999Z</time></trkpt><trkpt lat="42.365800028773585" lon="13.509812275014498"><ele>957.3333333333334</ele><time>2026-05-03T07:31:27.999Z</time></trkpt><trkpt lat="42.365867242823796" lon="13.509861434885444"><ele>957.0</ele><time>2026-05-03T07:31:28.999Z</time></trkpt><trkpt lat="42.36593298417749" lon="13.5098815402299"><ele>957.0</ele><time>2026-05-03T07:31:29.999Z</time></trkpt><trkpt lat="42.365999033729324" lon="13.509907989012058"><ele>957.0</ele><time>2026-05-03T07:31:30.999Z</time></trkpt><trkpt lat="42.36605553618635" lon="13.51000875983803"><ele>957.0</ele><time>2026-05-03T07:31:32.999Z</time></trkpt><trkpt lat="42.3660555079332" lon="13.510100773752454"><ele>957.0</ele><time>2026-05-03T07:31:33.999Z</time></trkpt><trkpt lat="42.366018883135965" lon="13.510213833078668"><ele>957.0</ele><time>2026-05-03T07:31:34.999Z</time></trkpt><trkpt lat="42.36597945807946" lon="13.510339815075755"><ele>957.0</ele><time>2026-05-03T07:31:35.999Z</time></trkpt><trkpt lat="42.36595183715452" lon="13.510446615668272"><ele>956.8333333333334</ele><time>2026-05-03T07:31:36.999Z</time></trkpt><trkpt lat="42.3659098903851" lon="13.510534501560501"><ele>956.6666666666667</ele><time>2026-05-03T07:31:37.999Z</time></trkpt><trkpt lat="42.36584909210424" lon="13.510600047581823"><ele>956.5</ele><time>2026-05-03T07:31:38.999Z</time></trkpt><trkpt lat="42.3657735598171" lon="13.510664513211841"><ele>956.3333333333334</ele><time>2026-05-03T07:31:39.999Z</time></trkpt><trkpt lat="42.36571400076638" lon="13.510741010044665"><ele>956.1666666666667</ele><time>2026-05-03T07:31:40.999Z</time></trkpt><trkpt lat="42.36565315000396" lon="13.510824638201926"><ele>956.0</ele><time>2026-05-03T07:31:41.999Z</time></trkpt><trkpt lat="42.36560824975682" lon="13.510929693263236"><ele>956.0000000000001</ele><time>2026-05-03T07:31:42.999Z</time></trkpt><trkpt lat="42.36558091310701" lon="13.511020908214265"><ele>956.0</ele><time>2026-05-03T07:31:43.999Z</time></trkpt><trkpt lat="42.365565001228674" lon="13.511108556431886"><ele>956.0000000000001</ele><time>2026-05-03T07:31:44.999Z</time></trkpt><trkpt lat="42.36555724951396" lon="13.511193405310557"><ele>956.0000000000001</ele><time>2026-05-03T07:31:45.999Z</time></trkpt><trkpt lat="42.36555349726285" lon="13.511282224982866"><ele>956.0</ele><time>2026-05-03T07:31:46.999Z</time></trkpt><trkpt lat="42.365538313083626" lon="13.511384077252803"><ele>956.0000000000001</ele><time>2026-05-03T07:31:47.999Z</time></trkpt><trkpt lat="42.36551289508195" lon="13.511476357978049"><ele>956.0000000000001</ele><time>2026-05-03T07:31:48.999Z</time></trkpt><trkpt lat="42.36548827121291" lon="13.511558986075947"><ele>956.1666666666667</ele><time>2026-05-03T07:31:49.999Z</time></trkpt><trkpt lat="42.36545711320798" lon="13.511648278681513"><ele>956.3333333333334</ele><time>2026-05-03T07:31:50.999Z</time></trkpt><trkpt lat="42.36542557572051" lon="13.511749228119243"><ele>956.5</ele><time>2026-05-03T07:31:51.999Z</time></trkpt><trkpt lat="42.36539962911595" lon="13.511859509077949"><ele>956.6666666666667</ele><time>2026-05-03T07:31:52.999Z</time></trkpt><trkpt lat="42.36538282563561" lon="13.511980645664405"><ele>956.8333333333334</ele><time>2026-05-03T07:31:53.999Z</time></trkpt><trkpt lat="42.365376313274105" lon="13.512136823902965"><ele>957.0</ele><time>2026-05-03T07:31:55.999Z</time></trkpt><trkpt lat="42.36537025943817" lon="13.512248903803048"><ele>957.0</ele><time>2026-05-03T07:31:57.999Z</time></trkpt><trkpt lat="42.36535691691434" lon="13.512375114494203"><ele>957.0</ele><time>2026-05-03T07:31:59.999Z</time></trkpt><trkpt lat="42.36538334906675" lon="13.51248786925855"><ele>957.0</ele><time>2026-05-03T07:32:01.999Z</time></trkpt><trkpt lat="42.36541480461598" lon="13.51258681421381"><ele>957.0</ele><time>2026-05-03T07:32:02.999Z</time></trkpt><trkpt lat="42.36545772052434" lon="13.512709682156151"><ele>957.0</ele><time>2026-05-03T07:32:03.999Z</time></trkpt><trkpt lat="42.36548376693811" lon="13.512828431368339"><ele>959.1666666666666</ele><time>2026-05-03T07:32:04.999Z</time></trkpt><trkpt lat="42.36550122253962" lon="13.512939100498649"><ele>961.3333333333333</ele><time>2026-05-03T07:32:05.999Z</time></trkpt><trkpt lat="42.36550836233758" lon="13.513033939833791"><ele>963.5</ele><time>2026-05-03T07:32:06.999Z</time></trkpt><trkpt lat="42.36551477318194" lon="13.513168966316229"><ele>965.6666666666666</ele><time>2026-05-03T07:32:08.999Z</time></trkpt><trkpt lat="42.36544741106202" lon="13.513185778729962"><ele>967.8333333333333</ele><time>2026-05-03T07:32:12.999Z</time></trkpt><trkpt lat="42.365384495944916" lon="13.513139497965774"><ele>970.0</ele><time>2026-05-03T07:32:17.999Z</time></trkpt><trkpt lat="42.365288293120464" lon="13.5130002925998"><ele>967.8333333333333</ele><time>2026-05-03T07:32:19.999Z</time></trkpt><trkpt lat="42.36524081123328" lon="13.51290185920237"><ele>965.6666666666666</ele><time>2026-05-03T07:32:20.999Z</time></trkpt><trkpt lat="42.36518044038582" lon="13.512812361581966"><ele>963.5</ele><time>2026-05-03T07:32:21.999Z</time></trkpt><trkpt lat="42.36511911424127" lon="13.512725218179426"><ele>961.3333333333333</ele><time>2026-05-03T07:32:22.999Z</time></trkpt><trkpt lat="42.36506129973534" lon="13.51263763499299"><ele>959.1666666666666</ele><time>2026-05-03T07:32:23.999Z</time></trkpt><trkpt lat="42.36500687417381" lon="13.512555642484976"><ele>957.0</ele><time>2026-05-03T07:32:24.999Z</time></trkpt><trkpt lat="42.36495245648923" lon="13.5124603891409"><ele>957.0</ele><time>2026-05-03T07:32:25.999Z</time></trkpt><trkpt lat="42.36490678638651" lon="13.512379392688333"><ele>957.0</ele><time>2026-05-03T07:32:26.999Z</time></trkpt><trkpt lat="42.364857069914784" lon="13.512297269553834"><ele>957.0</ele><time>2026-05-03T07:32:27.999Z</time></trkpt><trkpt lat="42.364801722025035" lon="13.512217049388473"><ele>957.0</ele><time>2026-05-03T07:32:28.999Z</time></trkpt><trkpt lat="42.36475409257263" lon="13.512145178711101"><ele>957.0</ele><time>2026-05-03T07:32:29.999Z</time></trkpt><trkpt lat="42.36469207106232" lon="13.512078526037186"><ele>957.0</ele><time>2026-05-03T07:32:30.999Z</time></trkpt><trkpt lat="42.36461729119651" lon="13.512012934087002"><ele>955.1666666666666</ele><time>2026-05-03T07:32:31.999Z</time></trkpt><trkpt lat="42.364541484303324" lon="13.511938874518389"><ele>953.3333333333333</ele><time>2026-05-03T07:32:32.999Z</time></trkpt><trkpt lat="42.3644705635248" lon="13.511862167090557"><ele>951.5</ele><time>2026-05-03T07:32:33.999Z</time></trkpt><trkpt lat="42.364407544485765" lon="13.511793062532817"><ele>949.6666666666666</ele><time>2026-05-03T07:32:34.999Z</time></trkpt><trkpt lat="42.36434982049312" lon="13.511727451121729"><ele>947.8333333333333</ele><time>2026-05-03T07:32:35.999Z</time></trkpt><trkpt lat="42.364293832967014" lon="13.511667359638457"><ele>946.0</ele><time>2026-05-03T07:32:37Z</time></trkpt><trkpt lat="42.364240169069426" lon="13.51161235174898"><ele>945.9999999999999</ele><time>2026-05-03T07:32:38Z</time></trkpt><trkpt lat="42.36415169326581" lon="13.511516134183346"><ele>946.0</ele><time>2026-05-03T07:32:40Z</time></trkpt><trkpt lat="42.36404712744692" lon="13.51145400844705"><ele>946.0</ele><time>2026-05-03T07:32:42Z</time></trkpt><trkpt lat="42.36397368332109" lon="13.511431871439378"><ele>946.0</ele><time>2026-05-03T07:32:43Z</time></trkpt><trkpt lat="42.36390361763505" lon="13.511412192008114"><ele>945.9999999999999</ele><time>2026-05-03T07:32:44Z</time></trkpt><trkpt lat="42.363835934917255" lon="13.511385711668511"><ele>946.0</ele><time>2026-05-03T07:32:45Z</time></trkpt><trkpt lat="42.36376586106834" lon="13.511358886326681"><ele>946.1666666666666</ele><time>2026-05-03T07:32:46Z</time></trkpt><trkpt lat="42.36368301336204" lon="13.511337494751368"><ele>946.3333333333333</ele><time>2026-05-03T07:32:47Z</time></trkpt><trkpt lat="42.36360875064716" lon="13.511310384954621"><ele>946.5</ele><time>2026-05-03T07:32:48Z</time></trkpt><trkpt lat="42.363542180464044" lon="13.51128789010431"><ele>946.6666666666667</ele><time>2026-05-03T07:32:49Z</time></trkpt><trkpt lat="42.363423266709134" lon="13.511261234048481"><ele>946.8333333333334</ele><time>2026-05-03T07:32:51Z</time></trkpt><trkpt lat="42.363350976233384" lon="13.51124797348443"><ele>947.0</ele><time>2026-05-03T07:32:52Z</time></trkpt><trkpt lat="42.36327519284593" lon="13.511229539557565"><ele>946.0000000000001</ele><time>2026-05-03T07:32:53Z</time></trkpt><trkpt lat="42.36320439658158" lon="13.511208653723488"><ele>945.0</ele><time>2026-05-03T07:32:54Z</time></trkpt><trkpt lat="42.36314578967125" lon="13.511176039174138"><ele>944.0</ele><time>2026-05-03T07:32:55Z</time></trkpt><trkpt lat="42.36309345687509" lon="13.511115115109973"><ele>943.0</ele><time>2026-05-03T07:32:56Z</time></trkpt><trkpt lat="42.36303180195098" lon="13.511040644197912"><ele>942.0000000000001</ele><time>2026-05-03T07:32:57Z</time></trkpt><trkpt lat="42.36296406378903" lon="13.5109526705034"><ele>941.0</ele><time>2026-05-03T07:32:58Z</time></trkpt><trkpt lat="42.362900265724484" lon="13.51086276975989"><ele>939.5000000000001</ele><time>2026-05-03T07:32:59Z</time></trkpt><trkpt lat="42.36283953667406" lon="13.510782612761778"><ele>938.0</ele><time>2026-05-03T07:33:00Z</time></trkpt><trkpt lat="42.36279661599533" lon="13.510708568638842"><ele>936.5</ele><time>2026-05-03T07:33:01Z</time></trkpt><trkpt lat="42.36274751970875" lon="13.510633659777922"><ele>935.0</ele><time>2026-05-03T07:33:02Z</time></trkpt><trkpt lat="42.362660893697075" lon="13.510529198023244"><ele>933.5000000000001</ele><time>2026-05-03T07:33:04Z</time></trkpt><trkpt lat="42.3625700333992" lon="13.510488704140833"><ele>932.0</ele><time>2026-05-03T07:33:06Z</time></trkpt><trkpt lat="42.36249875507715" lon="13.510504153969507"><ele>932.0000000000001</ele><time>2026-05-03T07:33:07Z</time></trkpt><trkpt lat="42.36240194902968" lon="13.510519937290535"><ele>932.0</ele><time>2026-05-03T07:33:08Z</time></trkpt><trkpt lat="42.36231886301313" lon="13.510537898648627"><ele>932.0</ele><time>2026-05-03T07:33:09Z</time></trkpt><trkpt lat="42.36225141200703" lon="13.510550776536418"><ele>932.0</ele><time>2026-05-03T07:33:10Z</time></trkpt><trkpt lat="42.36218766456808" lon="13.510579489470409"><ele>932.0000000000001</ele><time>2026-05-03T07:33:11Z</time></trkpt><trkpt lat="42.36212048759029" lon="13.510613850101036"><ele>932.0</ele><time>2026-05-03T07:33:12Z</time></trkpt><trkpt lat="42.36199532378285" lon="13.510628202683733"><ele>930.6666666666667</ele><time>2026-05-03T07:33:14Z</time></trkpt><trkpt lat="42.361928783219035" lon="13.510623812528367"><ele>929.3333333333334</ele><time>2026-05-03T07:33:15Z</time></trkpt><trkpt lat="42.36186371827035" lon="13.510640450179755"><ele>928.0</ele><time>2026-05-03T07:33:16Z</time></trkpt><trkpt lat="42.361803128828704" lon="13.510678855119142"><ele>926.6666666666667</ele><time>2026-05-03T07:33:17Z</time></trkpt><trkpt lat="42.361695323024826" lon="13.510712011545507"><ele>925.3333333333334</ele><time>2026-05-03T07:33:19Z</time></trkpt><trkpt lat="42.36157868706039" lon="13.510715311671888"><ele>924.0</ele><time>2026-05-03T07:33:21Z</time></trkpt><trkpt lat="42.36149976794544" lon="13.510709587936296"><ele>924.0</ele><time>2026-05-03T07:33:22Z</time></trkpt><trkpt lat="42.3614310200403" lon="13.510710734425572"><ele>924.0</ele><time>2026-05-03T07:33:23Z</time></trkpt><trkpt lat="42.361311086899235" lon="13.510680222349471"><ele>924.0</ele><time>2026-05-03T07:33:25Z</time></trkpt><trkpt lat="42.36124256205824" lon="13.51064431135457"><ele>924.0</ele><time>2026-05-03T07:33:26Z</time></trkpt><trkpt lat="42.36116031708048" lon="13.510607535396712"><ele>924.0</ele><time>2026-05-03T07:33:27Z</time></trkpt><trkpt lat="42.36108449205386" lon="13.510577741099558"><ele>924.0</ele><time>2026-05-03T07:33:28Z</time></trkpt><trkpt lat="42.36098897690862" lon="13.51054458550554"><ele>923.1666666666666</ele><time>2026-05-03T07:33:29Z</time></trkpt><trkpt lat="42.36091231099776" lon="13.510519400464906"><ele>922.3333333333333</ele><time>2026-05-03T07:33:30Z</time></trkpt><trkpt lat="42.360849046948424" lon="13.51049413885886"><ele>921.5</ele><time>2026-05-03T07:33:31Z</time></trkpt><trkpt lat="42.36078813234804" lon="13.510471664569282"><ele>920.6666666666666</ele><time>2026-05-03T07:33:32Z</time></trkpt><trkpt lat="42.360726960616184" lon="13.510434918061685"><ele>919.8333333333333</ele><time>2026-05-03T07:33:33Z</time></trkpt><trkpt lat="42.36063134595413" lon="13.510351931351218"><ele>919.0</ele><time>2026-05-03T07:33:35Z</time></trkpt><trkpt lat="42.360557829408506" lon="13.510276556074983"><ele>916.4000000000001</ele><time>2026-05-03T07:33:37Z</time></trkpt><trkpt lat="42.36049463837782" lon="13.510238648114612"><ele>913.8000000000001</ele><time>2026-05-03T07:33:39Z</time></trkpt><trkpt lat="42.36043626378475" lon="13.510172543650366"><ele>911.1999999999999</ele><time>2026-05-03T07:33:41Z</time></trkpt><trkpt lat="42.36038147734384" lon="13.510095594377399"><ele>908.5999999999999</ele><time>2026-05-03T07:33:43Z</time></trkpt><trkpt lat="42.36030234450815" lon="13.509996843883183"><ele>906.0</ele><time>2026-05-03T07:33:45Z</time></trkpt><trkpt lat="42.36020983390567" lon="13.509877607311493"><ele>906.0</ele><time>2026-05-03T07:33:47Z</time></trkpt><trkpt lat="42.36013849447831" lon="13.509800723282172"><ele>905.9999999999999</ele><time>2026-05-03T07:33:49Z</time></trkpt><trkpt lat="42.360073515181384" lon="13.509728549757106"><ele>905.9999999999999</ele><time>2026-05-03T07:33:51Z</time></trkpt><trkpt lat="42.360011962631916" lon="13.509671627324385"><ele>906.0</ele><time>2026-05-03T07:33:53Z</time></trkpt><trkpt lat="42.35995825560147" lon="13.509554903975449"><ele>906.0</ele><time>2026-05-03T07:33:55Z</time></trkpt><trkpt lat="42.359911570405906" lon="13.509378846925507"><ele>905.8333333333334</ele><time>2026-05-03T07:33:57Z</time></trkpt><trkpt lat="42.35988566067077" lon="13.509282200338104"><ele>905.6666666666667</ele><time>2026-05-03T07:33:58Z</time></trkpt><trkpt lat="42.35985110274467" lon="13.509187211269143"><ele>905.5</ele><time>2026-05-03T07:33:59Z</time></trkpt><trkpt lat="42.35982094216833" lon="13.509093334570135"><ele>905.3333333333334</ele><time>2026-05-03T07:34:00Z</time></trkpt><trkpt lat="42.35979633072875" lon="13.508983381303436"><ele>905.1666666666667</ele><time>2026-05-03T07:34:01Z</time></trkpt><trkpt lat="42.35978221521989" lon="13.508872653173196"><ele>905.0</ele><time>2026-05-03T07:34:02Z</time></trkpt><trkpt lat="42.35976488053385" lon="13.508773801387912"><ele>905.1666666666667</ele><time>2026-05-03T07:34:03Z</time></trkpt><trkpt lat="42.359738093737256" lon="13.508665470287731"><ele>905.3333333333334</ele><time>2026-05-03T07:34:04Z</time></trkpt><trkpt lat="42.35971519445851" lon="13.508548781934202"><ele>905.5</ele><time>2026-05-03T07:34:05Z</time></trkpt><trkpt lat="42.35969021200411" lon="13.508424051609772"><ele>905.6666666666667</ele><time>2026-05-03T07:34:06Z</time></trkpt><trkpt lat="42.35967090252946" lon="13.508328705527259"><ele>905.8333333333334</ele><time>2026-05-03T07:34:07Z</time></trkpt><trkpt lat="42.35965508670141" lon="13.508223122021919"><ele>906.0</ele><time>2026-05-03T07:34:08Z</time></trkpt><trkpt lat="42.35964070724642" lon="13.508124867038044"><ele>903.5999999999999</ele><time>2026-05-03T07:34:09Z</time></trkpt><trkpt lat="42.35961925161679" lon="13.508017948916178"><ele>901.1999999999999</ele><time>2026-05-03T07:34:10Z</time></trkpt><trkpt lat="42.35960278432301" lon="13.507895842913332"><ele>898.8000000000001</ele><time>2026-05-03T07:34:11Z</time></trkpt><trkpt lat="42.35957764531831" lon="13.507779647801536"><ele>896.4000000000001</ele><time>2026-05-03T07:34:12Z</time></trkpt><trkpt lat="42.35955799282445" lon="13.5076662062127"><ele>894.0</ele><time>2026-05-03T07:34:13Z</time></trkpt><trkpt lat="42.35954602685268" lon="13.5074981389052"><ele>892.8333333333334</ele><time>2026-05-03T07:34:15Z</time></trkpt><trkpt lat="42.35955606797745" lon="13.507412727105471"><ele>891.6666666666667</ele><time>2026-05-03T07:34:16Z</time></trkpt><trkpt lat="42.359544682284366" lon="13.507251053768625"><ele>890.5</ele><time>2026-05-03T07:34:18Z</time></trkpt><trkpt lat="42.35952243156536" lon="13.507168441541063"><ele>889.3333333333334</ele><time>2026-05-03T07:34:19Z</time></trkpt><trkpt lat="42.35948848525635" lon="13.507092559448749"><ele>888.1666666666667</ele><time>2026-05-03T07:34:20Z</time></trkpt><trkpt lat="42.359481202051676" lon="13.506960523049571"><ele>887.0</ele><time>2026-05-03T07:34:22Z</time></trkpt><trkpt lat="42.35948964194285" lon="13.506783568371812"><ele>886.0000000000001</ele><time>2026-05-03T07:34:24Z</time></trkpt><trkpt lat="42.35948261113243" lon="13.506619406187149"><ele>885.0</ele><time>2026-05-03T07:34:26Z</time></trkpt><trkpt lat="42.3594548410461" lon="13.506525868715364"><ele>884.0</ele><time>2026-05-03T07:34:27Z</time></trkpt><trkpt lat="42.359424425507335" lon="13.506425179518164"><ele>883.0</ele><time>2026-05-03T07:34:28Z</time></trkpt><trkpt lat="42.35940590234339" lon="13.506341918735139"><ele>882.0000000000001</ele><time>2026-05-03T07:34:29Z</time></trkpt><trkpt lat="42.35938063122942" lon="13.506263086566193"><ele>881.0</ele><time>2026-05-03T07:34:31Z</time></trkpt><trkpt lat="42.35931682227869" lon="13.50622255003752"><ele>881.0</ele><time>2026-05-03T07:34:34Z</time></trkpt><trkpt lat="42.3592561666985" lon="13.506268843960505"><ele>880.9999999999999</ele><time>2026-05-03T07:34:36Z</time></trkpt><trkpt lat="42.35913486988561" lon="13.506247913378717"><ele>880.9999999999999</ele><time>2026-05-03T07:34:38Z</time></trkpt><trkpt lat="42.3590510507036" lon="13.506212164291085"><ele>881.0</ele><time>2026-05-03T07:34:39Z</time></trkpt><trkpt lat="42.358970885107254" lon="13.506161988192787"><ele>881.0</ele><time>2026-05-03T07:34:40Z</time></trkpt><trkpt lat="42.35890055564233" lon="13.506093856639433"><ele>882.6666666666667</ele><time>2026-05-03T07:34:41Z</time></trkpt><trkpt lat="42.35884002634859" lon="13.50601729835"><ele>884.3333333333334</ele><time>2026-05-03T07:34:42Z</time></trkpt><trkpt lat="42.35878521269376" lon="13.505928102089106"><ele>886.0</ele><time>2026-05-03T07:34:42.999Z</time></trkpt><trkpt lat="42.35873529258603" lon="13.505842354634174"><ele>887.6666666666667</ele><time>2026-05-03T07:34:43.999Z</time></trkpt><trkpt lat="42.35868962312454" lon="13.505761271541818"><ele>889.3333333333334</ele><time>2026-05-03T07:34:44.999Z</time></trkpt><trkpt lat="42.35863583790868" lon="13.505668197892032"><ele>891.0</ele><time>2026-05-03T07:34:45.999Z</time></trkpt><trkpt lat="42.35858071746499" lon="13.505566269193228"><ele>891.0</ele><time>2026-05-03T07:34:46.999Z</time></trkpt><trkpt lat="42.358525680319275" lon="13.505452793136588"><ele>890.9999999999999</ele><time>2026-05-03T07:34:47.999Z</time></trkpt><trkpt lat="42.35846657319214" lon="13.505333598322588"><ele>890.9999999999999</ele><time>2026-05-03T07:34:48.999Z</time></trkpt><trkpt lat="42.358408748262335" lon="13.505211177211267"><ele>891.0</ele><time>2026-05-03T07:34:49.999Z</time></trkpt><trkpt lat="42.3583379341415" lon="13.505102619861225"><ele>891.0</ele><time>2026-05-03T07:34:50.999Z</time></trkpt><trkpt lat="42.35825495106101" lon="13.505011746401618"><ele>893.0</ele><time>2026-05-03T07:34:51.999Z</time></trkpt><trkpt lat="42.35817460043469" lon="13.504902449739117"><ele>895.0</ele><time>2026-05-03T07:34:52.999Z</time></trkpt><trkpt lat="42.35807521716995" lon="13.504821118662502"><ele>897.0</ele><time>2026-05-03T07:34:53.999Z</time></trkpt><trkpt lat="42.35797246332944" lon="13.50474273803154"><ele>899.0</ele><time>2026-05-03T07:34:54.999Z</time></trkpt><trkpt lat="42.357874543243696" lon="13.50466505411923"><ele>899.0</ele><time>2026-05-03T07:34:55.999Z</time></trkpt><trkpt lat="42.357778449679536" lon="13.504598019011166"><ele>899.0000000000001</ele><time>2026-05-03T07:34:56.999Z</time></trkpt><trkpt lat="42.35768431174744" lon="13.504550521905566"><ele>899.0000000000001</ele><time>2026-05-03T07:34:57.999Z</time></trkpt><trkpt lat="42.357597594787556" lon="13.504505723076718"><ele>899.0</ele><time>2026-05-03T07:34:58.999Z</time></trkpt><trkpt lat="42.357509097768954" lon="13.504471950659648"><ele>899.0</ele><time>2026-05-03T07:34:59.999Z</time></trkpt><trkpt lat="42.35741335139554" lon="13.504430618301155"><ele>895.2</ele><time>2026-05-03T07:35:00.999Z</time></trkpt><trkpt lat="42.35730790580612" lon="13.504433924243086"><ele>891.4000000000001</ele><time>2026-05-03T07:35:01.999Z</time></trkpt><trkpt lat="42.35720180824556" lon="13.504436855620122"><ele>887.6</ele><time>2026-05-03T07:35:02.999Z</time></trkpt><trkpt lat="42.357097908195165" lon="13.504446222565043"><ele>883.8</ele><time>2026-05-03T07:35:03.999Z</time></trkpt><trkpt lat="42.3569948625874" lon="13.504483484634463"><ele>880.0</ele><time>2026-05-03T07:35:04.999Z</time></trkpt><trkpt lat="42.356896725566656" lon="13.504532406827046"><ele>883.6</ele><time>2026-05-03T07:35:05.999Z</time></trkpt><trkpt lat="42.35680782940779" lon="13.50459652301633"><ele>887.2</ele><time>2026-05-03T07:35:06.999Z</time></trkpt><trkpt lat="42.35672798402731" lon="13.504669233763007"><ele>890.8</ele><time>2026-05-03T07:35:07.999Z</time></trkpt><trkpt lat="42.35666592667469" lon="13.504767344461328"><ele>894.4</ele><time>2026-05-03T07:35:08.999Z</time></trkpt><trkpt lat="42.35660996829145" lon="13.504875849642227"><ele>898.0</ele><time>2026-05-03T07:35:09.999Z</time></trkpt><trkpt lat="42.35656034463402" lon="13.505001191983636"><ele>897.9999999999999</ele><time>2026-05-03T07:35:10.999Z</time></trkpt><trkpt lat="42.35652235877901" lon="13.505122734075911"><ele>898.0</ele><time>2026-05-03T07:35:11.999Z</time></trkpt><trkpt lat="42.356490318438134" lon="13.505216987140301"><ele>898.0</ele><time>2026-05-03T07:35:12.999Z</time></trkpt><trkpt lat="42.356455796905415" lon="13.505317454880757"><ele>898.0</ele><time>2026-05-03T07:35:14.999Z</time></trkpt><trkpt lat="42.35635480167897" lon="13.505421150562684"><ele>897.9999999999999</ele><time>2026-05-03T07:38:17.999Z</time></trkpt><trkpt lat="42.3563276781277" lon="13.505498522383482"><ele>898.0</ele><time>2026-05-03T07:39:09.999Z</time></trkpt><trkpt lat="42.3563860844109" lon="13.505582987876764"><ele>900.4</ele><time>2026-05-03T07:39:11.999Z</time></trkpt><trkpt lat="42.35648138735386" lon="13.505680300756346"><ele>902.8</ele><time>2026-05-03T07:39:13.999Z</time></trkpt><trkpt lat="42.356562698928165" lon="13.50569371113347"><ele>905.2</ele><time>2026-05-03T07:39:14.999Z</time></trkpt><trkpt lat="42.35661851735318" lon="13.505761611073128"><ele>907.6</ele><time>2026-05-03T07:39:15.999Z</time></trkpt><trkpt lat="42.35667016407489" lon="13.505825567567173"><ele>910.0</ele><time>2026-05-03T07:39:16.999Z</time></trkpt><trkpt lat="42.356771262797984" lon="13.505927586256044"><ele>910.0</ele><time>2026-05-03T07:39:18.999Z</time></trkpt><trkpt lat="42.35682762249426" lon="13.505966990558452"><ele>910.0</ele><time>2026-05-03T07:39:19.999Z</time></trkpt><trkpt lat="42.35688617567556" lon="13.506007586993194"><ele>910.0</ele><time>2026-05-03T07:39:20.999Z</time></trkpt><trkpt lat="42.35692456064293" lon="13.506078303974988"><ele>910.0</ele><time>2026-05-03T07:39:21.999Z</time></trkpt><trkpt lat="42.35697470261785" lon="13.506152034728693"><ele>910.0</ele><time>2026-05-03T07:39:22.999Z</time></trkpt><trkpt lat="42.356990639399896" lon="13.506243613141802"><ele>910.0</ele><time>2026-05-03T07:39:23.999Z</time></trkpt><trkpt lat="42.35699891106154" lon="13.506335748039543"><ele>910.0</ele><time>2026-05-03T07:39:24.999Z</time></trkpt><trkpt lat="42.35694507824364" lon="13.506415333642853"><ele>911.6666666666666</ele><time>2026-05-03T07:39:25.999Z</time></trkpt><trkpt lat="42.3569547477572" lon="13.506575253224504"><ele>913.3333333333333</ele><time>2026-05-03T07:39:27.999Z</time></trkpt><trkpt lat="42.35699400016942" lon="13.506678915101102"><ele>915.0</ele><time>2026-05-03T07:39:29.999Z</time></trkpt><trkpt lat="42.357089400571304" lon="13.506732209281244"><ele>916.6666666666667</ele><time>2026-05-03T07:39:32.999Z</time></trkpt><trkpt lat="42.35715112006189" lon="13.506695576394643"><ele>918.3333333333334</ele><time>2026-05-03T07:39:33.999Z</time></trkpt><trkpt lat="42.357211502283896" lon="13.506659839871823"><ele>920.0</ele><time>2026-05-03T07:39:34.999Z</time></trkpt><trkpt lat="42.35731001557925" lon="13.506594759325278"><ele>920.8333333333334</ele><time>2026-05-03T07:39:36.999Z</time></trkpt><trkpt lat="42.35739290096359" lon="13.506558567030364"><ele>921.6666666666667</ele><time>2026-05-03T07:39:38.999Z</time></trkpt><trkpt lat="42.35746310018416" lon="13.50660275567289"><ele>922.5</ele><time>2026-05-03T07:39:40.999Z</time></trkpt><trkpt lat="42.35748992912411" lon="13.506680519038"><ele>923.3333333333333</ele><time>2026-05-03T07:39:42.999Z</time></trkpt><trkpt lat="42.357513861844176" lon="13.506802051356921"><ele>924.1666666666666</ele><time>2026-05-03T07:39:44.999Z</time></trkpt><trkpt lat="42.35754283490718" lon="13.506935679701957"><ele>925.0</ele><time>2026-05-03T07:39:46.999Z</time></trkpt><trkpt lat="42.35754816641207" lon="13.50704219980277"><ele>926.0</ele><time>2026-05-03T07:39:47.999Z</time></trkpt><trkpt lat="42.35754406306062" lon="13.507195183019824"><ele>927.0</ele><time>2026-05-03T07:39:48.999Z</time></trkpt><trkpt lat="42.357541526073845" lon="13.507343656672898"><ele>928.0</ele><time>2026-05-03T07:39:49.999Z</time></trkpt><trkpt lat="42.35754223936361" lon="13.50749787139352"><ele>929.0</ele><time>2026-05-03T07:39:50.999Z</time></trkpt><trkpt lat="42.35754506351069" lon="13.507622105397692"><ele>930.0</ele><time>2026-05-03T07:39:51.999Z</time></trkpt><trkpt lat="42.35754538225211" lon="13.507729660647348"><ele>930.0</ele><time>2026-05-03T07:39:53Z</time></trkpt><trkpt lat="42.357541404532384" lon="13.507815508901976"><ele>930.0</ele><time>2026-05-03T07:39:54Z</time></trkpt><trkpt lat="42.35754383283309" lon="13.507905758419293"><ele>930.0</ele><time>2026-05-03T07:39:55Z</time></trkpt><trkpt lat="42.3575484374157" lon="13.508014962879132"><ele>930.0</ele><time>2026-05-03T07:39:56Z</time></trkpt><trkpt lat="42.35755419941346" lon="13.50812776513152"><ele>930.0</ele><time>2026-05-03T07:39:57Z</time></trkpt><trkpt lat="42.35755908742034" lon="13.508227098235494"><ele>930.0</ele><time>2026-05-03T07:39:58Z</time></trkpt><trkpt lat="42.35756046478503" lon="13.50831631762647"><ele>930.0</ele><time>2026-05-03T07:39:59Z</time></trkpt><trkpt lat="42.35751216427383" lon="13.508480578731547"><ele>931.3333333333334</ele><time>2026-05-03T07:40:01Z</time></trkpt><trkpt lat="42.35750148909746" lon="13.508579476631468"><ele>932.6666666666667</ele><time>2026-05-03T07:40:02Z</time></trkpt><trkpt lat="42.357488979322554" lon="13.508672744234383"><ele>934.0</ele><time>2026-05-03T07:40:03Z</time></trkpt><trkpt lat="42.35747675140463" lon="13.508765785612075"><ele>935.3333333333334</ele><time>2026-05-03T07:40:04Z</time></trkpt><trkpt lat="42.35746143113594" lon="13.508882356509826"><ele>936.6666666666667</ele><time>2026-05-03T07:40:06Z</time></trkpt><trkpt lat="42.35745037210605" lon="13.508966503978188"><ele>938.0</ele><time>2026-05-03T07:40:15Z</time></trkpt><trkpt lat="42.35756440746203" lon="13.509128543238138"><ele>941.0</ele><time>2026-05-03T07:41:51Z</time></trkpt><trkpt lat="42.35763593858963" lon="13.509216363448147"><ele>944.0</ele><time>2026-05-03T07:41:52Z</time></trkpt><trkpt lat="42.35770998091101" lon="13.509331892347317"><ele>947.0</ele><time>2026-05-03T07:41:53Z</time></trkpt><trkpt lat="42.35777525908898" lon="13.509456647135238"><ele>950.0</ele><time>2026-05-03T07:41:54Z</time></trkpt><trkpt lat="42.35784048333407" lon="13.509594721677079"><ele>953.0</ele><time>2026-05-03T07:41:55Z</time></trkpt><trkpt lat="42.35788960276868" lon="13.50974102260515"><ele>955.75</ele><time>2026-05-03T07:41:56Z</time></trkpt><trkpt lat="42.35792427645969" lon="13.509891350582086"><ele>958.5</ele><time>2026-05-03T07:41:57Z</time></trkpt><trkpt lat="42.35794510532133" lon="13.51004877757381"><ele>961.25</ele><time>2026-05-03T07:41:58Z</time></trkpt><trkpt lat="42.35795051329845" lon="13.510191501301591"><ele>964.0</ele><time>2026-05-03T07:41:59Z</time></trkpt><trkpt lat="42.35794466576738" lon="13.51036919151905"><ele>964.3333333333333</ele><time>2026-05-03T07:42:00Z</time></trkpt><trkpt lat="42.35791225449022" lon="13.510444604787578"><ele>964.6666666666666</ele><time>2026-05-03T07:42:01Z</time></trkpt><trkpt lat="42.357840531328584" lon="13.510538942202578"><ele>965.0</ele><time>2026-05-03T07:42:03Z</time></trkpt><trkpt lat="42.357736894360755" lon="13.51053965839574"><ele>965.3333333333333</ele><time>2026-05-03T07:42:04Z</time></trkpt><trkpt lat="42.357668091579676" lon="13.51052429265638"><ele>965.6666666666666</ele><time>2026-05-03T07:42:05Z</time></trkpt><trkpt lat="42.35757418568311" lon="13.510550913055209"><ele>966.0</ele><time>2026-05-03T07:42:07Z</time></trkpt><trkpt lat="42.357567305140044" lon="13.510764762236363"><ele>966.0</ele><time>2026-05-03T07:42:11Z</time></trkpt><trkpt lat="42.35762254332349" lon="13.510853514115665"><ele>965.9999999999999</ele><time>2026-05-03T07:42:12Z</time></trkpt><trkpt lat="42.35767342452989" lon="13.51097677234838"><ele>965.9999999999999</ele><time>2026-05-03T07:42:13Z</time></trkpt><trkpt lat="42.357728779772366" lon="13.511117851629717"><ele>966.0</ele><time>2026-05-03T07:42:14Z</time></trkpt><trkpt lat="42.357787089585486" lon="13.511274173526274"><ele>966.0</ele><time>2026-05-03T07:42:15Z</time></trkpt><trkpt lat="42.35784885641308" lon="13.511443842848385"><ele>966.0</ele><time>2026-05-03T07:42:16Z</time></trkpt><trkpt lat="42.35791524481403" lon="13.51162230944477"><ele>966.0</ele><time>2026-05-03T07:42:17Z</time></trkpt><trkpt lat="42.357983450104385" lon="13.511805563519063"><ele>966.0</ele><time>2026-05-03T07:42:18Z</time></trkpt><trkpt lat="42.3580518257675" lon="13.511994239974507"><ele>967.0</ele><time>2026-05-03T07:42:19Z</time></trkpt><trkpt lat="42.35813461652188" lon="13.51217703812692"><ele>968.0</ele><time>2026-05-03T07:42:20Z</time></trkpt><trkpt lat="42.35820301527363" lon="13.512378897493448"><ele>969.0</ele><time>2026-05-03T07:42:21Z</time></trkpt><trkpt lat="42.358281861978924" lon="13.512577536643164"><ele>969.0</ele><time>2026-05-03T07:42:22Z</time></trkpt><trkpt lat="42.3583413665525" lon="13.512797739453529"><ele>969.0</ele><time>2026-05-03T07:42:23Z</time></trkpt><trkpt lat="42.35840985759205" lon="13.512992034748814"><ele>969.0</ele><time>2026-05-03T07:42:24Z</time></trkpt><trkpt lat="42.358475952648924" lon="13.513167185028955"><ele>969.4000000000001</ele><time>2026-05-03T07:42:25Z</time></trkpt><trkpt lat="42.35852772494775" lon="13.51333266443378"><ele>969.8000000000001</ele><time>2026-05-03T07:42:26Z</time></trkpt><trkpt lat="42.35859621071411" lon="13.513481499371057"><ele>970.1999999999999</ele><time>2026-05-03T07:42:27Z</time></trkpt><trkpt lat="42.35864493099713" lon="13.513591432481979"><ele>970.5999999999999</ele><time>2026-05-03T07:42:28Z</time></trkpt><trkpt lat="42.35867002478608" lon="13.51369945229816"><ele>971.0</ele><time>2026-05-03T07:42:29Z</time></trkpt><trkpt lat="42.358708903941896" lon="13.513799328570363"><ele>971.1666666666667</ele><time>2026-05-03T07:42:30Z</time></trkpt><trkpt lat="42.358748018256655" lon="13.513911507470361"><ele>971.3333333333334</ele><time>2026-05-03T07:42:31Z</time></trkpt><trkpt lat="42.358795286886085" lon="13.51400498816872"><ele>971.5</ele><time>2026-05-03T07:42:32Z</time></trkpt><trkpt lat="42.35881897569845" lon="13.514105444156197"><ele>971.6666666666667</ele><time>2026-05-03T07:42:33Z</time></trkpt><trkpt lat="42.35886670841446" lon="13.514173549692268"><ele>971.8333333333334</ele><time>2026-05-03T07:42:34Z</time></trkpt><trkpt lat="42.35890543913653" lon="13.514259970336322"><ele>972.0</ele><time>2026-05-03T07:42:36Z</time></trkpt><trkpt lat="42.358872898020806" lon="13.514178588496748"><ele>972.0</ele><time>2026-05-03T07:42:39Z</time></trkpt><trkpt lat="42.358833093972414" lon="13.514049939339353"><ele>972.0</ele><time>2026-05-03T07:42:41Z</time></trkpt><trkpt lat="42.358793346531776" lon="13.513948789617634"><ele>972.0</ele><time>2026-05-03T07:42:42Z</time></trkpt><trkpt lat="42.35882057015523" lon="13.513797973433755"><ele>972.0</ele><time>2026-05-03T07:42:43Z</time></trkpt><trkpt lat="42.35874886419064" lon="13.513747090248625"><ele>972.0</ele><time>2026-05-03T07:42:45Z</time></trkpt><trkpt lat="42.35871707884382" lon="13.513843794852846"><ele>972.0</ele><time>2026-05-03T07:42:47Z</time></trkpt><trkpt lat="42.35875717129577" lon="13.513913747401528"><ele>972.0</ele><time>2026-05-03T07:42:48Z</time></trkpt><trkpt lat="42.35880091190658" lon="13.514018501757635"><ele>972.0</ele><time>2026-05-03T07:42:49Z</time></trkpt><trkpt lat="42.35885194975494" lon="13.514141099399621"><ele>972.0</ele><time>2026-05-03T07:42:50Z</time></trkpt><trkpt lat="42.35890838388503" lon="13.514266542918863"><ele>972.0</ele><time>2026-05-03T07:42:51Z</time></trkpt><trkpt lat="42.35897589376663" lon="13.514417179235744"><ele>975.25</ele><time>2026-05-03T07:42:52Z</time></trkpt><trkpt lat="42.359045021260506" lon="13.514576691465049"><ele>978.5</ele><time>2026-05-03T07:42:53Z</time></trkpt><trkpt lat="42.35910147784398" lon="13.514711269405081"><ele>981.75</ele><time>2026-05-03T07:42:54Z</time></trkpt><trkpt lat="42.359155202747765" lon="13.514829622812892"><ele>985.0</ele><time>2026-05-03T07:42:55Z</time></trkpt><trkpt lat="42.35921412477153" lon="13.514951890005907"><ele>985.0</ele><time>2026-05-03T07:42:56Z</time></trkpt><trkpt lat="42.35926303293379" lon="13.515028342044076"><ele>985.0</ele><time>2026-05-03T07:42:57Z</time></trkpt><trkpt lat="42.35932157529055" lon="13.515120772339"><ele>985.0</ele><time>2026-05-03T07:42:58Z</time></trkpt><trkpt lat="42.35938015971898" lon="13.515213268981505"><ele>985.0</ele><time>2026-05-03T07:42:59Z</time></trkpt><trkpt lat="42.35942584068847" lon="13.515285392879335"><ele>985.0</ele><time>2026-05-03T07:43:00Z</time></trkpt><trkpt lat="42.35923089885313" lon="13.51559885508854"><ele>986.0</ele><time>2026-05-03T07:43:02Z</time></trkpt><trkpt lat="42.359188015711695" lon="13.51569804203886"><ele>987.0</ele><time>2026-05-03T07:43:03Z</time></trkpt><trkpt lat="42.35913170952178" lon="13.51580866167498"><ele>988.0</ele><time>2026-05-03T07:43:04Z</time></trkpt><trkpt lat="42.359093653492856" lon="13.515937147907705"><ele>989.0</ele><time>2026-05-03T07:43:05Z</time></trkpt><trkpt lat="42.35907240465625" lon="13.516037663493782"><ele>990.0</ele><time>2026-05-03T07:43:06Z</time></trkpt><trkpt lat="42.35905702444989" lon="13.516201978155294"><ele>993.0</ele><time>2026-05-03T07:43:08Z</time></trkpt><trkpt lat="42.3590493517691" lon="13.516317072573987"><ele>996.0</ele><time>2026-05-03T07:43:09Z</time></trkpt><trkpt lat="42.35904485130022" lon="13.516451759120253"><ele>999.0</ele><time>2026-05-03T07:43:10Z</time></trkpt><trkpt lat="42.35903604861294" lon="13.516587114645729"><ele>1002.0</ele><time>2026-05-03T07:43:11Z</time></trkpt><trkpt lat="42.35901305543962" lon="13.516724444609277"><ele>1005.0</ele><time>2026-05-03T07:43:12Z</time></trkpt><trkpt lat="42.358985282891105" lon="13.516866549617696"><ele>1005.0</ele><time>2026-05-03T07:43:13Z</time></trkpt><trkpt lat="42.35893929065483" lon="13.51700010976927"><ele>1005.0</ele><time>2026-05-03T07:43:14Z</time></trkpt><trkpt lat="42.35890556197946" lon="13.517127050224703"><ele>1005.0</ele><time>2026-05-03T07:43:15Z</time></trkpt><trkpt lat="42.35883686448265" lon="13.517230059264442"><ele>1005.0</ele><time>2026-05-03T07:43:16Z</time></trkpt><trkpt lat="42.35877815142424" lon="13.517295917613323"><ele>1005.0</ele><time>2026-05-03T07:43:17Z</time></trkpt><trkpt lat="42.358720132245374" lon="13.517363421123461"><ele>1004.0</ele><time>2026-05-03T07:43:18Z</time></trkpt><trkpt lat="42.35866742000782" lon="13.517465748628048"><ele>1003.0</ele><time>2026-05-03T07:43:19Z</time></trkpt><trkpt lat="42.358627982028615" lon="13.517551372654701"><ele>1002.0</ele><time>2026-05-03T07:43:20Z</time></trkpt><trkpt lat="42.358586233735146" lon="13.517622875631734"><ele>1001.0</ele><time>2026-05-03T07:43:21Z</time></trkpt><trkpt lat="42.358569646224986" lon="13.51772051102521"><ele>1000.0</ele><time>2026-05-03T07:43:23Z</time></trkpt><trkpt lat="42.35863787672808" lon="13.517737920722727"><ele>999.0</ele><time>2026-05-03T07:43:25Z</time></trkpt><trkpt lat="42.35874791406735" lon="13.51763375065242"><ele>999.0</ele><time>2026-05-03T07:43:27Z</time></trkpt><trkpt lat="42.35881401786514" lon="13.517545813493467"><ele>999.0</ele><time>2026-05-03T07:43:28Z</time></trkpt><trkpt lat="42.35886891857227" lon="13.517461014958661"><ele>999.0</ele><time>2026-05-03T07:43:29Z</time></trkpt><trkpt lat="42.35892973675676" lon="13.517389267965328"><ele>999.0</ele><time>2026-05-03T07:43:30Z</time></trkpt><trkpt lat="42.35898884939888" lon="13.517325488905785"><ele>999.0</ele><time>2026-05-03T07:43:31Z</time></trkpt><trkpt lat="42.35905202938454" lon="13.517274160965188"><ele>999.0</ele><time>2026-05-03T07:43:32Z</time></trkpt><trkpt lat="42.359116471868546" lon="13.517215442021932"><ele>1000.0</ele><time>2026-05-03T07:43:33Z</time></trkpt><trkpt lat="42.359172036637084" lon="13.517119549086642"><ele>1001.0</ele><time>2026-05-03T07:43:34Z</time></trkpt><trkpt lat="42.359208184347395" lon="13.517030573041016"><ele>1002.0</ele><time>2026-05-03T07:43:35Z</time></trkpt><trkpt lat="42.35924207755815" lon="13.516952913218843"><ele>1003.0</ele><time>2026-05-03T07:43:36Z</time></trkpt><trkpt lat="42.35933426500676" lon="13.516840334505071"><ele>1004.0</ele><time>2026-05-03T07:43:38Z</time></trkpt><trkpt lat="42.35938056093481" lon="13.516775053481322"><ele>1005.0</ele><time>2026-05-03T07:43:39Z</time></trkpt><trkpt lat="42.359472958425386" lon="13.5166865219396"><ele>1005.0</ele><time>2026-05-03T07:43:41Z</time></trkpt><trkpt lat="42.35954345194031" lon="13.516628865575486"><ele>1005.0</ele><time>2026-05-03T07:43:42Z</time></trkpt><trkpt lat="42.359610377313416" lon="13.516603947320752"><ele>1005.0</ele><time>2026-05-03T07:43:43Z</time></trkpt><trkpt lat="42.3596782832751" lon="13.516581049216894"><ele>1005.0</ele><time>2026-05-03T07:43:44Z</time></trkpt><trkpt lat="42.359772981904904" lon="13.516546753561057"><ele>1005.0</ele><time>2026-05-03T07:43:46Z</time></trkpt><trkpt lat="42.35987091999062" lon="13.51649792257224"><ele>1005.0</ele><time>2026-05-03T07:43:48Z</time></trkpt><trkpt lat="42.359959189997156" lon="13.516536847972498"><ele>1007.8333333333334</ele><time>2026-05-03T07:43:50Z</time></trkpt><trkpt lat="42.360024963278235" lon="13.516492041300815"><ele>1010.6666666666667</ele><time>2026-05-03T07:43:51Z</time></trkpt><trkpt lat="42.36010777304388" lon="13.516452259881211"><ele>1013.5</ele><time>2026-05-03T07:43:52Z</time></trkpt><trkpt lat="42.36019025919917" lon="13.516444163468833"><ele>1016.3333333333334</ele><time>2026-05-03T07:43:53Z</time></trkpt><trkpt lat="42.36027953614919" lon="13.516439360101256"><ele>1019.1666666666667</ele><time>2026-05-03T07:43:54Z</time></trkpt><trkpt lat="42.36035694187369" lon="13.516447502652483"><ele>1022.0</ele><time>2026-05-03T07:43:55Z</time></trkpt><trkpt lat="42.36042816240914" lon="13.516497546180982"><ele>1022.0</ele><time>2026-05-03T07:43:56Z</time></trkpt><trkpt lat="42.360512062508455" lon="13.516467157529643"><ele>1022.0</ele><time>2026-05-03T07:43:57Z</time></trkpt><trkpt lat="42.360588540892714" lon="13.516470812603037"><ele>1022.0</ele><time>2026-05-03T07:43:58Z</time></trkpt><trkpt lat="42.36071216290197" lon="13.516555162800051"><ele>1022.0</ele><time>2026-05-03T07:44:00Z</time></trkpt><trkpt lat="42.36079497043065" lon="13.516598573030972"><ele>1022.0</ele><time>2026-05-03T07:44:01Z</time></trkpt><trkpt lat="42.360884555694916" lon="13.516636123194564"><ele>1023.5000000000001</ele><time>2026-05-03T07:44:02Z</time></trkpt><trkpt lat="42.36097581968148" lon="13.516652960420451"><ele>1025.0</ele><time>2026-05-03T07:44:03Z</time></trkpt><trkpt lat="42.36108478575707" lon="13.516651597866499"><ele>1026.5</ele><time>2026-05-03T07:44:04Z</time></trkpt><trkpt lat="42.361184930043514" lon="13.516645071048641"><ele>1028.0</ele><time>2026-05-03T07:44:05Z</time></trkpt><trkpt lat="42.361261115654564" lon="13.516629929111662"><ele>1029.5</ele><time>2026-05-03T07:44:06Z</time></trkpt><trkpt lat="42.361328695895935" lon="13.516618713015493"><ele>1031.0</ele><time>2026-05-03T07:44:07Z</time></trkpt><trkpt lat="42.36139561508815" lon="13.516668209840574"><ele>1032.2</ele><time>2026-05-03T07:44:08Z</time></trkpt><trkpt lat="42.36148619608703" lon="13.516643957945782"><ele>1033.3999999999999</ele><time>2026-05-03T07:44:09Z</time></trkpt><trkpt lat="42.3615953110764" lon="13.516642391804625"><ele>1034.6</ele><time>2026-05-03T07:44:10Z</time></trkpt><trkpt lat="42.361686846280364" lon="13.516592837013299"><ele>1035.8</ele><time>2026-05-03T07:44:11Z</time></trkpt><trkpt lat="42.36176955211066" lon="13.516585671020065"><ele>1037.0</ele><time>2026-05-03T07:44:12Z</time></trkpt><trkpt lat="42.36187237824161" lon="13.516561170381463"><ele>1037.0</ele><time>2026-05-03T07:44:13Z</time></trkpt><trkpt lat="42.36196812359078" lon="13.516634507352432"><ele>1037.0</ele><time>2026-05-03T07:44:14Z</time></trkpt><trkpt lat="42.36205472267191" lon="13.516597303260927"><ele>1037.0</ele><time>2026-05-03T07:44:15Z</time></trkpt><trkpt lat="42.36213928283262" lon="13.516579248319053"><ele>1037.0</ele><time>2026-05-03T07:44:16Z</time></trkpt><trkpt lat="42.36221237828313" lon="13.516588083501174"><ele>1037.0</ele><time>2026-05-03T07:44:17Z</time></trkpt><trkpt lat="42.36229732319416" lon="13.516579700646096"><ele>1037.0</ele><time>2026-05-03T07:44:18Z</time></trkpt><trkpt lat="42.36238901348897" lon="13.516582470710034"><ele>1038.0</ele><time>2026-05-03T07:44:19Z</time></trkpt><trkpt lat="42.362505646411314" lon="13.516597513544351"><ele>1039.0</ele><time>2026-05-03T07:44:20Z</time></trkpt><trkpt lat="42.36260511389656" lon="13.516622215264412"><ele>1040.0</ele><time>2026-05-03T07:44:21Z</time></trkpt><trkpt lat="42.362689370048884" lon="13.516680931370043"><ele>1041.0</ele><time>2026-05-03T07:44:22Z</time></trkpt><trkpt lat="42.362777754011944" lon="13.516695632302698"><ele>1042.0</ele><time>2026-05-03T07:44:23Z</time></trkpt><trkpt lat="42.36287064823989" lon="13.516761977475275"><ele>1042.0</ele><time>2026-05-03T07:44:24Z</time></trkpt><trkpt lat="42.36296217687736" lon="13.516799668658532"><ele>1042.0</ele><time>2026-05-03T07:44:25Z</time></trkpt><trkpt lat="42.36303444895952" lon="13.516843744034931"><ele>1042.0</ele><time>2026-05-03T07:44:26Z</time></trkpt><trkpt lat="42.36310308775406" lon="13.51688221976025"><ele>1042.0</ele><time>2026-05-03T07:44:27Z</time></trkpt><trkpt lat="42.36317042766124" lon="13.516931830176429"><ele>1042.0</ele><time>2026-05-03T07:44:28Z</time></trkpt><trkpt lat="42.36325101712099" lon="13.516982825886823"><ele>1042.0</ele><time>2026-05-03T07:44:29Z</time></trkpt><trkpt lat="42.363333570127594" lon="13.517041009100112"><ele>1044.3333333333333</ele><time>2026-05-03T07:44:30Z</time></trkpt><trkpt lat="42.36342510622757" lon="13.517080115836972"><ele>1046.6666666666665</ele><time>2026-05-03T07:44:31Z</time></trkpt><trkpt lat="42.363510678750224" lon="13.517127468429774"><ele>1049.0</ele><time>2026-05-03T07:44:32Z</time></trkpt><trkpt lat="42.363591754856195" lon="13.517180158526216"><ele>1051.3333333333333</ele><time>2026-05-03T07:44:33Z</time></trkpt><trkpt lat="42.36366837324333" lon="13.517224917516305"><ele>1053.6666666666667</ele><time>2026-05-03T07:44:34Z</time></trkpt><trkpt lat="42.36374511041273" lon="13.517259348293496"><ele>1056.0</ele><time>2026-05-03T07:44:35Z</time></trkpt><trkpt lat="42.36382566522738" lon="13.517300037792552"><ele>1056.0</ele><time>2026-05-03T07:44:36Z</time></trkpt><trkpt lat="42.36390220527377" lon="13.517316167097208"><ele>1056.0</ele><time>2026-05-03T07:44:37Z</time></trkpt><trkpt lat="42.36397349740978" lon="13.517307362154556"><ele>1056.0</ele><time>2026-05-03T07:44:38Z</time></trkpt><trkpt lat="42.364042836342975" lon="13.517319709852094"><ele>1056.0</ele><time>2026-05-03T07:44:39Z</time></trkpt><trkpt lat="42.36410863102537" lon="13.51734960984596"><ele>1056.0</ele><time>2026-05-03T07:44:40Z</time></trkpt><trkpt lat="42.364181941871806" lon="13.51736711909645"><ele>1056.0</ele><time>2026-05-03T07:44:41Z</time></trkpt><trkpt lat="42.36425755077344" lon="13.517383461820328"><ele>1056.0</ele><time>2026-05-03T07:44:42Z</time></trkpt><trkpt lat="42.364330827311484" lon="13.51739533882933"><ele>1056.0</ele><time>2026-05-03T07:44:43Z</time></trkpt><trkpt lat="42.36440374846045" lon="13.517407290299612"><ele>1056.0</ele><time>2026-05-03T07:44:44Z</time></trkpt><trkpt lat="42.36447728454327" lon="13.517422601764988"><ele>1056.0</ele><time>2026-05-03T07:44:45Z</time></trkpt><trkpt lat="42.36453941915191" lon="13.517442129216509"><ele>1056.0</ele><time>2026-05-03T07:44:46Z</time></trkpt><trkpt lat="42.36466277519644" lon="13.517484302993422"><ele>1056.0</ele><time>2026-05-03T07:44:48Z</time></trkpt><trkpt lat="42.364734222112205" lon="13.517510935624776"><ele>1056.0</ele><time>2026-05-03T07:44:49Z</time></trkpt><trkpt lat="42.36481129751995" lon="13.517541253791148"><ele>1056.6666666666667</ele><time>2026-05-03T07:44:50Z</time></trkpt><trkpt lat="42.364894669951404" lon="13.517551618578153"><ele>1057.3333333333333</ele><time>2026-05-03T07:44:51Z</time></trkpt><trkpt lat="42.36496871472444" lon="13.51759478188097"><ele>1058.0</ele><time>2026-05-03T07:44:52Z</time></trkpt><trkpt lat="42.36503823499204" lon="13.517641291270522"><ele>1058.6666666666665</ele><time>2026-05-03T07:44:53Z</time></trkpt><trkpt lat="42.365106709393864" lon="13.517678568576457"><ele>1059.3333333333333</ele><time>2026-05-03T07:44:54Z</time></trkpt><trkpt lat="42.365176051669025" lon="13.517717506220704"><ele>1060.0</ele><time>2026-05-03T07:44:55Z</time></trkpt><trkpt lat="42.36524552783898" lon="13.517756462219129"><ele>1059.9999999999998</ele><time>2026-05-03T07:44:56Z</time></trkpt><trkpt lat="42.365310610308036" lon="13.51779455277462"><ele>1060.0</ele><time>2026-05-03T07:44:57Z</time></trkpt><trkpt lat="42.36537332896823" lon="13.517831809685841"><ele>1060.0</ele><time>2026-05-03T07:44:58Z</time></trkpt><trkpt lat="42.36543557863617" lon="13.517870596847887"><ele>1060.0</ele><time>2026-05-03T07:44:59Z</time></trkpt><trkpt lat="42.36550819781813" lon="13.517892724825607"><ele>1060.0</ele><time>2026-05-03T07:45:00Z</time></trkpt><trkpt lat="42.365575286612405" lon="13.517936620214936"><ele>1059.9999999999998</ele><time>2026-05-03T07:45:01Z</time></trkpt><trkpt lat="42.365635529613456" lon="13.517974603795714"><ele>1060.0</ele><time>2026-05-03T07:45:02Z</time></trkpt><trkpt lat="42.36570108827669" lon="13.517998548338047"><ele>1062.25</ele><time>2026-05-03T07:45:03Z</time></trkpt><trkpt lat="42.36577318349953" lon="13.518142996547082"><ele>1064.5</ele><time>2026-05-03T07:45:05Z</time></trkpt><trkpt lat="42.36569296945344" lon="13.518185394742657"><ele>1066.75</ele><time>2026-05-03T07:45:07Z</time></trkpt><trkpt lat="42.36559446264279" lon="13.518152422000862"><ele>1069.0</ele><time>2026-05-03T07:45:09Z</time></trkpt><trkpt lat="42.365461089011234" lon="13.518102012290264"><ele>1070.3333333333333</ele><time>2026-05-03T07:45:11Z</time></trkpt><trkpt lat="42.365376961652316" lon="13.518066896804187"><ele>1071.6666666666665</ele><time>2026-05-03T07:45:12Z</time></trkpt><trkpt lat="42.36529222120044" lon="13.518057631230644"><ele>1073.0</ele><time>2026-05-03T07:45:13Z</time></trkpt><trkpt lat="42.365202907796984" lon="13.5180905337302"><ele>1074.3333333333333</ele><time>2026-05-03T07:45:14Z</time></trkpt><trkpt lat="42.36512967170779" lon="13.518079905521239"><ele>1075.6666666666667</ele><time>2026-05-03T07:45:15Z</time></trkpt><trkpt lat="42.36504334041503" lon="13.518108631255952"><ele>1077.0</ele><time>2026-05-03T07:45:16Z</time></trkpt><trkpt lat="42.36495148374481" lon="13.518135778091095"><ele>1077.0</ele><time>2026-05-03T07:45:17Z</time></trkpt><trkpt lat="42.36487129415395" lon="13.518151135713618"><ele>1077.0</ele><time>2026-05-03T07:45:18Z</time></trkpt><trkpt lat="42.364788700704295" lon="13.518168959624862"><ele>1077.0</ele><time>2026-05-03T07:45:19Z</time></trkpt><trkpt lat="42.364721722057666" lon="13.518201755954921"><ele>1077.0</ele><time>2026-05-03T07:45:20Z</time></trkpt><trkpt lat="42.36467956160003" lon="13.518332570909093"><ele>1077.0</ele><time>2026-05-03T07:45:22Z</time></trkpt><trkpt lat="42.36472527697236" lon="13.51844791534512"><ele>1077.0</ele><time>2026-05-03T07:45:24Z</time></trkpt><trkpt lat="42.364839398415064" lon="13.518439429611881"><ele>1077.0</ele><time>2026-05-03T07:45:26Z</time></trkpt><trkpt lat="42.36492075317292" lon="13.518430461311132"><ele>1077.0</ele><time>2026-05-03T07:45:27Z</time></trkpt><trkpt lat="42.365012461590204" lon="13.518443997085502"><ele>1077.0</ele><time>2026-05-03T07:45:28Z</time></trkpt><trkpt lat="42.36508968689648" lon="13.518469867038462"><ele>1077.0</ele><time>2026-05-03T07:45:29Z</time></trkpt><trkpt lat="42.36515480191188" lon="13.518505155991281"><ele>1077.0</ele><time>2026-05-03T07:45:30Z</time></trkpt><trkpt lat="42.36522803381598" lon="13.518550350443354"><ele>1077.0</ele><time>2026-05-03T07:45:31Z</time></trkpt><trkpt lat="42.3652937122571" lon="13.518619119071333"><ele>1077.0</ele><time>2026-05-03T07:45:32Z</time></trkpt><trkpt lat="42.36537267957979" lon="13.518720306134567"><ele>1077.0</ele><time>2026-05-03T07:45:33Z</time></trkpt><trkpt lat="42.36546429978507" lon="13.518831736358809"><ele>1077.0</ele><time>2026-05-03T07:45:34Z</time></trkpt><trkpt lat="42.36554410029431" lon="13.51892080351368"><ele>1077.0</ele><time>2026-05-03T07:45:35Z</time></trkpt><trkpt lat="42.36562267169655" lon="13.518995597675248"><ele>1077.0</ele><time>2026-05-03T07:45:36Z</time></trkpt><trkpt lat="42.36568786711452" lon="13.51906652724773"><ele>1078.3333333333333</ele><time>2026-05-03T07:45:37Z</time></trkpt><trkpt lat="42.36574616086376" lon="13.519160974823427"><ele>1079.6666666666667</ele><time>2026-05-03T07:45:38Z</time></trkpt><trkpt lat="42.365791647580906" lon="13.519243721503509"><ele>1081.0</ele><time>2026-05-03T07:45:39Z</time></trkpt><trkpt lat="42.36582154337866" lon="13.519340133783698"><ele>1082.3333333333335</ele><time>2026-05-03T07:45:40Z</time></trkpt><trkpt lat="42.36581836010496" lon="13.519439772334128"><ele>1083.6666666666667</ele><time>2026-05-03T07:45:41Z</time></trkpt><trkpt lat="42.36582103055591" lon="13.519546835593845"><ele>1085.0</ele><time>2026-05-03T07:45:42Z</time></trkpt><trkpt lat="42.365827662637614" lon="13.519655395648499"><ele>1087.2</ele><time>2026-05-03T07:45:43Z</time></trkpt><trkpt lat="42.36583143284763" lon="13.519777511371181"><ele>1089.4</ele><time>2026-05-03T07:45:44Z</time></trkpt><trkpt lat="42.36579535033533" lon="13.519887521379703"><ele>1091.6</ele><time>2026-05-03T07:45:44.999Z</time></trkpt><trkpt lat="42.36579393083409" lon="13.520014801892282"><ele>1093.8</ele><time>2026-05-03T07:45:45.999Z</time></trkpt><trkpt lat="42.36583370822535" lon="13.52013807648042"><ele>1096.0</ele><time>2026-05-03T07:45:46.999Z</time></trkpt><trkpt lat="42.36582968548348" lon="13.520265725229471"><ele>1096.0</ele><time>2026-05-03T07:45:47.999Z</time></trkpt><trkpt lat="42.36582269723763" lon="13.52037291909809"><ele>1096.0</ele><time>2026-05-03T07:45:48.999Z</time></trkpt><trkpt lat="42.365824576331086" lon="13.520480214989135"><ele>1096.0</ele><time>2026-05-03T07:45:49.999Z</time></trkpt><trkpt lat="42.365837753653175" lon="13.520607891585167"><ele>1096.0</ele><time>2026-05-03T07:45:50.999Z</time></trkpt><trkpt lat="42.36585731403503" lon="13.520738879700357"><ele>1096.0</ele><time>2026-05-03T07:45:51.999Z</time></trkpt><trkpt lat="42.365872841768635" lon="13.520859129278096"><ele>1096.0</ele><time>2026-05-03T07:45:52.999Z</time></trkpt><trkpt lat="42.36588492851694" lon="13.520964638960553"><ele>1096.5</ele><time>2026-05-03T07:45:53.999Z</time></trkpt><trkpt lat="42.36585828429345" lon="13.521061898683493"><ele>1097.0</ele><time>2026-05-03T07:45:54.999Z</time></trkpt><trkpt lat="42.36587569055533" lon="13.521166353421796"><ele>1097.5</ele><time>2026-05-03T07:45:55.999Z</time></trkpt><trkpt lat="42.36586999879623" lon="13.521278865418411"><ele>1098.0</ele><time>2026-05-03T07:45:56.999Z</time></trkpt><trkpt lat="42.365861739902456" lon="13.521399826148624"><ele>1098.5</ele><time>2026-05-03T07:45:57.999Z</time></trkpt><trkpt lat="42.3658500552849" lon="13.521522544096792"><ele>1099.0</ele><time>2026-05-03T07:45:58.999Z</time></trkpt><trkpt lat="42.36583363061472" lon="13.521657994674385"><ele>1099.3333333333333</ele><time>2026-05-03T07:45:59.999Z</time></trkpt><trkpt lat="42.36581223725376" lon="13.521765919793214"><ele>1099.6666666666665</ele><time>2026-05-03T07:46:00.999Z</time></trkpt><trkpt lat="42.36579083863271" lon="13.521877067162626"><ele>1100.0</ele><time>2026-05-03T07:46:01.999Z</time></trkpt><trkpt lat="42.36577469094119" lon="13.521968755291319"><ele>1100.3333333333333</ele><time>2026-05-03T07:46:02.999Z</time></trkpt><trkpt lat="42.36577905614202" lon="13.52206349731532"><ele>1100.6666666666667</ele><time>2026-05-03T07:46:03.999Z</time></trkpt><trkpt lat="42.36578302918143" lon="13.52217586342323"><ele>1101.0</ele><time>2026-05-03T07:46:04.999Z</time></trkpt><trkpt lat="42.365776722639026" lon="13.52229069063986"><ele>1102.1666666666667</ele><time>2026-05-03T07:46:05.999Z</time></trkpt><trkpt lat="42.36575959138356" lon="13.522375040591202"><ele>1103.3333333333333</ele><time>2026-05-03T07:46:06.999Z</time></trkpt><trkpt lat="42.36571825953597" lon="13.522466028995748"><ele>1104.5</ele><time>2026-05-03T07:46:07.999Z</time></trkpt><trkpt lat="42.36565911723816" lon="13.52254443019105"><ele>1105.6666666666665</ele><time>2026-05-03T07:46:08.999Z</time></trkpt><trkpt lat="42.36559992825831" lon="13.522631453078226"><ele>1106.8333333333333</ele><time>2026-05-03T07:46:09.999Z</time></trkpt><trkpt lat="42.36553376266465" lon="13.522731446585532"><ele>1108.0</ele><time>2026-05-03T07:46:10.999Z</time></trkpt><trkpt lat="42.3654692910511" lon="13.522831477588177"><ele>1109.0</ele><time>2026-05-03T07:46:11.999Z</time></trkpt><trkpt lat="42.365393005353006" lon="13.522900491768398"><ele>1110.0</ele><time>2026-05-03T07:46:12.999Z</time></trkpt><trkpt lat="42.36534448009674" lon="13.522976369073138"><ele>1111.0</ele><time>2026-05-03T07:46:13.999Z</time></trkpt><trkpt lat="42.36529820660535" lon="13.523045911965095"><ele>1112.0</ele><time>2026-05-03T07:46:14.999Z</time></trkpt><trkpt lat="42.36524813316893" lon="13.52311815767564"><ele>1113.0</ele><time>2026-05-03T07:46:15.999Z</time></trkpt><trkpt lat="42.365191495592946" lon="13.523196891240628"><ele>1114.0</ele><time>2026-05-03T07:46:16.999Z</time></trkpt><trkpt lat="42.3651310013882" lon="13.523280985961414"><ele>1114.0</ele><time>2026-05-03T07:46:17.999Z</time></trkpt><trkpt lat="42.36507148816474" lon="13.523363717066847"><ele>1114.0</ele><time>2026-05-03T07:46:18.999Z</time></trkpt><trkpt lat="42.36501103384486" lon="13.523447756342115"><ele>1114.0</ele><time>2026-05-03T07:46:19.999Z</time></trkpt><trkpt lat="42.364947158502666" lon="13.523536763805495"><ele>1114.0</ele><time>2026-05-03T07:46:20.999Z</time></trkpt><trkpt lat="42.364885165436895" lon="13.523623774091496"><ele>1114.0</ele><time>2026-05-03T07:46:21.999Z</time></trkpt><trkpt lat="42.36482762554274" lon="13.523707260688415"><ele>1114.0</ele><time>2026-05-03T07:46:22.999Z</time></trkpt><trkpt lat="42.36481031842746" lon="13.523838084428172"><ele>1115.6000000000001</ele><time>2026-05-03T07:46:23.999Z</time></trkpt><trkpt lat="42.364755832862194" lon="13.523938910274936"><ele>1117.2</ele><time>2026-05-03T07:46:24.999Z</time></trkpt><trkpt lat="42.364658217932885" lon="13.524030165062767"><ele>1118.8000000000002</ele><time>2026-05-03T07:46:25.999Z</time></trkpt><trkpt lat="42.364614951015824" lon="13.52415409134426"><ele>1120.4</ele><time>2026-05-03T07:46:26.999Z</time></trkpt><trkpt lat="42.36457427413512" lon="13.524290113465367"><ele>1122.0</ele><time>2026-05-03T07:46:27.999Z</time></trkpt><trkpt lat="42.36453572217007" lon="13.524437862266861"><ele>1122.2</ele><time>2026-05-03T07:46:28.999Z</time></trkpt><trkpt lat="42.36450388770718" lon="13.524580945396266"><ele>1122.4</ele><time>2026-05-03T07:46:29.999Z</time></trkpt><trkpt lat="42.364482370152764" lon="13.524711564106733"><ele>1122.6</ele><time>2026-05-03T07:46:30.999Z</time></trkpt><trkpt lat="42.36447019576016" lon="13.524833008611795"><ele>1122.8</ele><time>2026-05-03T07:46:31.999Z</time></trkpt><trkpt lat="42.36446755351651" lon="13.524945325414244"><ele>1123.0</ele><time>2026-05-03T07:46:32.999Z</time></trkpt><trkpt lat="42.36447471456247" lon="13.525066778260845"><ele>1123.0</ele><time>2026-05-03T07:46:33.999Z</time></trkpt><trkpt lat="42.36449700472418" lon="13.525187825307784"><ele>1123.0</ele><time>2026-05-03T07:46:34.999Z</time></trkpt><trkpt lat="42.36452302499526" lon="13.525320190092199"><ele>1123.0</ele><time>2026-05-03T07:46:35.999Z</time></trkpt><trkpt lat="42.36454810917683" lon="13.525449080115019"><ele>1123.0</ele><time>2026-05-03T07:46:36.999Z</time></trkpt><trkpt lat="42.364568163583115" lon="13.525587547036029"><ele>1123.0</ele><time>2026-05-03T07:46:37.999Z</time></trkpt><trkpt lat="42.36457336890001" lon="13.525716062817425"><ele>1123.2</ele><time>2026-05-03T07:46:38.999Z</time></trkpt><trkpt lat="42.36457319649082" lon="13.525839290977656"><ele>1123.4</ele><time>2026-05-03T07:46:39.999Z</time></trkpt><trkpt lat="42.36457039355971" lon="13.525961037442835"><ele>1123.6000000000001</ele><time>2026-05-03T07:46:40.999Z</time></trkpt><trkpt lat="42.36456289651887" lon="13.526083720654361"><ele>1123.8</ele><time>2026-05-03T07:46:41.999Z</time></trkpt><trkpt lat="42.364546760702716" lon="13.526207945598717"><ele>1124.0</ele><time>2026-05-03T07:46:42.999Z</time></trkpt><trkpt lat="42.36452760587282" lon="13.526336246647377"><ele>1124.3333333333335</ele><time>2026-05-03T07:46:43.999Z</time></trkpt><trkpt lat="42.36450969693216" lon="13.526469756127732"><ele>1124.6666666666667</ele><time>2026-05-03T07:46:44.999Z</time></trkpt><trkpt lat="42.36450680365295" lon="13.526589016225017"><ele>1125.0</ele><time>2026-05-03T07:46:45.999Z</time></trkpt><trkpt lat="42.364508978309075" lon="13.526700439525015"><ele>1125.3333333333333</ele><time>2026-05-03T07:46:46.999Z</time></trkpt><trkpt lat="42.364514903986425" lon="13.526813974967487"><ele>1125.6666666666665</ele><time>2026-05-03T07:46:47.999Z</time></trkpt><trkpt lat="42.36452512685402" lon="13.526926895643857"><ele>1126.0</ele><time>2026-05-03T07:46:49Z</time></trkpt><trkpt lat="42.364536730284" lon="13.527038034411662"><ele>1127.0</ele><time>2026-05-03T07:46:50Z</time></trkpt><trkpt lat="42.3645521108713" lon="13.527152707626424"><ele>1128.0</ele><time>2026-05-03T07:46:51Z</time></trkpt><trkpt lat="42.36456981607727" lon="13.527268084795182"><ele>1129.0</ele><time>2026-05-03T07:46:52Z</time></trkpt><trkpt lat="42.36459016679787" lon="13.527383004003138"><ele>1130.0</ele><time>2026-05-03T07:46:53Z</time></trkpt><trkpt lat="42.36460657714861" lon="13.527490278857275"><ele>1131.0</ele><time>2026-05-03T07:46:54Z</time></trkpt><trkpt lat="42.364606155902564" lon="13.52759207451597"><ele>1132.0</ele><time>2026-05-03T07:46:55Z</time></trkpt><trkpt lat="42.3646006435967" lon="13.527717040692215"><ele>1132.0</ele><time>2026-05-03T07:46:56Z</time></trkpt><trkpt lat="42.36459716907999" lon="13.527830184957997"><ele>1132.0</ele><time>2026-05-03T07:46:57Z</time></trkpt><trkpt lat="42.364587993160555" lon="13.527941092985188"><ele>1132.0</ele><time>2026-05-03T07:46:58Z</time></trkpt><trkpt lat="42.36457061951928" lon="13.52806001655163"><ele>1132.0</ele><time>2026-05-03T07:46:59Z</time></trkpt><trkpt lat="42.3645508124441" lon="13.528183207048507"><ele>1132.0</ele><time>2026-05-03T07:47:00Z</time></trkpt><trkpt lat="42.364533566115114" lon="13.528297085379355"><ele>1132.0</ele><time>2026-05-03T07:47:01Z</time></trkpt><trkpt lat="42.36451643192606" lon="13.52841022304359"><ele>1133.0</ele><time>2026-05-03T07:47:02Z</time></trkpt><trkpt lat="42.364508136495694" lon="13.528534426848825"><ele>1134.0</ele><time>2026-05-03T07:47:03Z</time></trkpt><trkpt lat="42.36450663074357" lon="13.528654024654914"><ele>1135.0</ele><time>2026-05-03T07:47:04Z</time></trkpt><trkpt lat="42.36450818407197" lon="13.528778877046408"><ele>1136.0</ele><time>2026-05-03T07:47:05Z</time></trkpt><trkpt lat="42.36451901988476" lon="13.528900373952562"><ele>1137.0</ele><time>2026-05-03T07:47:06Z</time></trkpt><trkpt lat="42.364528722999516" lon="13.529008920470051"><ele>1138.0</ele><time>2026-05-03T07:47:07Z</time></trkpt><trkpt lat="42.36452644761018" lon="13.529109349865301"><ele>1139.6666666666665</ele><time>2026-05-03T07:47:08Z</time></trkpt><trkpt lat="42.36452425181911" lon="13.529222810303773"><ele>1141.3333333333333</ele><time>2026-05-03T07:47:09Z</time></trkpt><trkpt lat="42.364533992993216" lon="13.52933412480914"><ele>1143.0</ele><time>2026-05-03T07:47:10Z</time></trkpt><trkpt lat="42.36457156401002" lon="13.529428639651362"><ele>1144.6666666666667</ele><time>2026-05-03T07:47:11Z</time></trkpt><trkpt lat="42.36465061117728" lon="13.529468859499225"><ele>1146.3333333333335</ele><time>2026-05-03T07:47:12Z</time></trkpt><trkpt lat="42.36475900530881" lon="13.529408367221711"><ele>1148.0</ele><time>2026-05-03T07:47:14Z</time></trkpt><trkpt lat="42.36479764387047" lon="13.529335326133909"><ele>1149.3333333333335</ele><time>2026-05-03T07:47:15Z</time></trkpt><trkpt lat="42.36483528572438" lon="13.529238320157075"><ele>1150.6666666666667</ele><time>2026-05-03T07:47:16Z</time></trkpt><trkpt lat="42.36487595906878" lon="13.529140142082632"><ele>1152.0</ele><time>2026-05-03T07:47:17Z</time></trkpt><trkpt lat="42.364922771516376" lon="13.52904960109809"><ele>1153.3333333333333</ele><time>2026-05-03T07:47:18Z</time></trkpt><trkpt lat="42.364982566581624" lon="13.528950676675338"><ele>1154.6666666666665</ele><time>2026-05-03T07:47:19Z</time></trkpt><trkpt lat="42.365067197714545" lon="13.528872694654062"><ele>1156.0</ele><time>2026-05-03T07:47:20Z</time></trkpt><trkpt lat="42.36516972930235" lon="13.528802391709569"><ele>1156.0</ele><time>2026-05-03T07:47:21Z</time></trkpt><trkpt lat="42.36527749756137" lon="13.528732941924703"><ele>1156.0</ele><time>2026-05-03T07:47:22Z</time></trkpt><trkpt lat="42.36536512076057" lon="13.528672785300262"><ele>1156.0</ele><time>2026-05-03T07:47:23Z</time></trkpt><trkpt lat="42.365428528492274" lon="13.528625106847068"><ele>1156.0</ele><time>2026-05-03T07:47:24Z</time></trkpt><trkpt lat="42.36550649031055" lon="13.528644524941111"><ele>1156.0</ele><time>2026-05-03T07:47:26Z</time></trkpt><trkpt lat="42.3655580987858" lon="13.528704006894756"><ele>1156.0</ele><time>2026-05-03T07:47:29Z</time></trkpt><trkpt lat="42.36547155742374" lon="13.52877695748319"><ele>1156.0</ele><time>2026-05-03T07:47:31Z</time></trkpt><trkpt lat="42.36540626774781" lon="13.528827878088565"><ele>1156.0</ele><time>2026-05-03T07:47:32Z</time></trkpt><trkpt lat="42.36532973424014" lon="13.52889678730555"><ele>1156.0</ele><time>2026-05-03T07:47:33Z</time></trkpt><trkpt lat="42.365240028494256" lon="13.528958010718679"><ele>1156.0</ele><time>2026-05-03T07:47:34Z</time></trkpt><trkpt lat="42.36517138084013" lon="13.529053476250345"><ele>1156.0</ele><time>2026-05-03T07:47:35Z</time></trkpt><trkpt lat="42.36511863814592" lon="13.529154273028103"><ele>1156.0</ele><time>2026-05-03T07:47:36Z</time></trkpt><trkpt lat="42.36507635274797" lon="13.529270141555042"><ele>1156.0</ele><time>2026-05-03T07:47:37Z</time></trkpt><trkpt lat="42.36505801893536" lon="13.529395242265839"><ele>1156.0</ele><time>2026-05-03T07:47:38Z</time></trkpt><trkpt lat="42.36505433952901" lon="13.52952430822682"><ele>1156.0</ele><time>2026-05-03T07:47:39Z</time></trkpt><trkpt lat="42.36506578826783" lon="13.529640719164762"><ele>1156.0</ele><time>2026-05-03T07:47:40Z</time></trkpt><trkpt lat="42.36509376306507" lon="13.529754562799765"><ele>1157.0</ele><time>2026-05-03T07:47:41Z</time></trkpt><trkpt lat="42.36515101701268" lon="13.52985467622001"><ele>1158.0</ele><time>2026-05-03T07:47:42Z</time></trkpt><trkpt lat="42.36522397588917" lon="13.529953260880788"><ele>1159.0</ele><time>2026-05-03T07:47:43Z</time></trkpt><trkpt lat="42.36529963680292" lon="13.53004492103866"><ele>1160.0</ele><time>2026-05-03T07:47:44Z</time></trkpt><trkpt lat="42.36537271241675" lon="13.530133594033448"><ele>1161.0</ele><time>2026-05-03T07:47:45Z</time></trkpt><trkpt lat="42.36543987125213" lon="13.530215922606809"><ele>1161.0</ele><time>2026-05-03T07:47:46Z</time></trkpt><trkpt lat="42.36549796214151" lon="13.530301031888035"><ele>1161.0</ele><time>2026-05-03T07:47:47Z</time></trkpt><trkpt lat="42.365543744734076" lon="13.530389197163899"><ele>1161.0</ele><time>2026-05-03T07:47:48Z</time></trkpt><trkpt lat="42.365577062209496" lon="13.530502470504855"><ele>1161.0</ele><time>2026-05-03T07:47:49Z</time></trkpt><trkpt lat="42.36559885327682" lon="13.530622085212404"><ele>1161.0</ele><time>2026-05-03T07:47:50Z</time></trkpt><trkpt lat="42.36561231161666" lon="13.530774177392347"><ele>1163.3999999999999</ele><time>2026-05-03T07:47:51Z</time></trkpt><trkpt lat="42.365632140382495" lon="13.530931848610614"><ele>1165.8</ele><time>2026-05-03T07:47:52Z</time></trkpt><trkpt lat="42.36566716739577" lon="13.531081874707603"><ele>1168.1999999999998</ele><time>2026-05-03T07:47:53Z</time></trkpt><trkpt lat="42.36571341248642" lon="13.53118743643612"><ele>1170.6</ele><time>2026-05-03T07:47:54Z</time></trkpt><trkpt lat="42.36575925555346" lon="13.531288374697118"><ele>1173.0</ele><time>2026-05-03T07:47:55Z</time></trkpt><trkpt lat="42.36580597606273" lon="13.53139470228357"><ele>1174.0</ele><time>2026-05-03T07:47:56Z</time></trkpt><trkpt lat="42.36585003266991" lon="13.531500329916794"><ele>1175.0</ele><time>2026-05-03T07:47:57Z</time></trkpt><trkpt lat="42.3658913122839" lon="13.531612485711937"><ele>1176.0</ele><time>2026-05-03T07:47:58Z</time></trkpt><trkpt lat="42.36593321973807" lon="13.531735528176842"><ele>1177.0</ele><time>2026-05-03T07:47:59Z</time></trkpt><trkpt lat="42.36596771686724" lon="13.53185020377726"><ele>1178.0</ele><time>2026-05-03T07:48:00Z</time></trkpt><trkpt lat="42.365997217824855" lon="13.53194826240369"><ele>1178.1666666666667</ele><time>2026-05-03T07:48:01Z</time></trkpt><trkpt lat="42.36600879138382" lon="13.532064003094357"><ele>1178.3333333333335</ele><time>2026-05-03T07:48:02Z</time></trkpt><trkpt lat="42.36600495248988" lon="13.53218888038923"><ele>1178.5</ele><time>2026-05-03T07:48:03Z</time></trkpt><trkpt lat="42.36599273458004" lon="13.532291160602663"><ele>1178.6666666666667</ele><time>2026-05-03T07:48:04Z</time></trkpt><trkpt lat="42.365986213925844" lon="13.532389590105947"><ele>1178.8333333333333</ele><time>2026-05-03T07:48:05Z</time></trkpt><trkpt lat="42.36593517127321" lon="13.532480605866105"><ele>1179.0</ele><time>2026-05-03T07:48:06Z</time></trkpt><trkpt lat="42.36587976041449" lon="13.532606855316017"><ele>1179.0</ele><time>2026-05-03T07:48:07Z</time></trkpt><trkpt lat="42.36580563103124" lon="13.53270326954875"><ele>1179.0</ele><time>2026-05-03T07:48:08Z</time></trkpt><trkpt lat="42.365734657623534" lon="13.532781644155007"><ele>1179.0</ele><time>2026-05-03T07:48:09Z</time></trkpt><trkpt lat="42.36565171706608" lon="13.532851081023976"><ele>1179.0</ele><time>2026-05-03T07:48:10Z</time></trkpt><trkpt lat="42.365557775804284" lon="13.532907492824073"><ele>1179.0</ele><time>2026-05-03T07:48:11Z</time></trkpt><trkpt lat="42.36546064682122" lon="13.53297655799378"><ele>1183.8</ele><time>2026-05-03T07:48:12Z</time></trkpt><trkpt lat="42.36537173476802" lon="13.533066473992589"><ele>1188.6000000000001</ele><time>2026-05-03T07:48:13Z</time></trkpt><trkpt lat="42.365296027348606" lon="13.533171397451255"><ele>1193.4</ele><time>2026-05-03T07:48:14Z</time></trkpt><trkpt lat="42.365227735323664" lon="13.533289199082846"><ele>1198.2</ele><time>2026-05-03T07:48:15Z</time></trkpt><trkpt lat="42.365153273326854" lon="13.533399806884333"><ele>1203.0</ele><time>2026-05-03T07:48:16Z</time></trkpt><trkpt lat="42.365101801223446" lon="13.533522847358746"><ele>1203.0</ele><time>2026-05-03T07:48:17Z</time></trkpt><trkpt lat="42.36506393712203" lon="13.533655532381012"><ele>1203.0</ele><time>2026-05-03T07:48:18Z</time></trkpt><trkpt lat="42.36504365436422" lon="13.533787866494308"><ele>1203.0</ele><time>2026-05-03T07:48:19Z</time></trkpt><trkpt lat="42.36502722103728" lon="13.533930383086236"><ele>1203.0</ele><time>2026-05-03T07:48:20Z</time></trkpt><trkpt lat="42.365013068739344" lon="13.53408699608307"><ele>1203.0</ele><time>2026-05-03T07:48:21Z</time></trkpt><trkpt lat="42.36500100002239" lon="13.534251321056566"><ele>1204.25</ele><time>2026-05-03T07:48:22Z</time></trkpt><trkpt lat="42.36498974292316" lon="13.534421121246885"><ele>1205.5</ele><time>2026-05-03T07:48:23Z</time></trkpt><trkpt lat="42.364973705832526" lon="13.534607580365808"><ele>1206.75</ele><time>2026-05-03T07:48:24Z</time></trkpt><trkpt lat="42.36496408559309" lon="13.53478893947358"><ele>1208.0</ele><time>2026-05-03T07:48:25Z</time></trkpt><trkpt lat="42.364958644049835" lon="13.53494267818742"><ele>1209.0</ele><time>2026-05-03T07:48:26Z</time></trkpt><trkpt lat="42.36495802641779" lon="13.53508208228799"><ele>1210.0</ele><time>2026-05-03T07:48:27Z</time></trkpt><trkpt lat="42.36494442420148" lon="13.53520065036829"><ele>1211.0</ele><time>2026-05-03T07:48:28Z</time></trkpt><trkpt lat="42.364919381736065" lon="13.535348493394162"><ele>1212.0</ele><time>2026-05-03T07:48:29Z</time></trkpt><trkpt lat="42.36489445895704" lon="13.535494622482235"><ele>1213.0</ele><time>2026-05-03T07:48:30Z</time></trkpt><trkpt lat="42.364863175402604" lon="13.535642418883958"><ele>1213.2</ele><time>2026-05-03T07:48:31Z</time></trkpt><trkpt lat="42.36483147093275" lon="13.535793270423921"><ele>1213.4</ele><time>2026-05-03T07:48:32Z</time></trkpt><trkpt lat="42.364804466410334" lon="13.535939464602551"><ele>1213.6000000000001</ele><time>2026-05-03T07:48:33Z</time></trkpt><trkpt lat="42.36477698151007" lon="13.536075806619369"><ele>1213.8</ele><time>2026-05-03T07:48:34Z</time></trkpt><trkpt lat="42.3647311309032" lon="13.536212966491657"><ele>1214.0</ele><time>2026-05-03T07:48:35Z</time></trkpt><trkpt lat="42.36470158312485" lon="13.53635871320631"><ele>1214.4</ele><time>2026-05-03T07:48:36Z</time></trkpt><trkpt lat="42.36467786845466" lon="13.536499566067178"><ele>1214.8000000000002</ele><time>2026-05-03T07:48:37Z</time></trkpt><trkpt lat="42.36465779249622" lon="13.536636359259747"><ele>1215.1999999999998</ele><time>2026-05-03T07:48:38Z</time></trkpt><trkpt lat="42.36463467482079" lon="13.536742936759858"><ele>1215.6</ele><time>2026-05-03T07:48:39Z</time></trkpt><trkpt lat="42.364601907049185" lon="13.536847870698203"><ele>1216.0</ele><time>2026-05-03T07:48:40Z</time></trkpt><trkpt lat="42.36455208254453" lon="13.536969202378428"><ele>1216.6</ele><time>2026-05-03T07:48:41Z</time></trkpt><trkpt lat="42.36449665254354" lon="13.537091403221417"><ele>1217.1999999999998</ele><time>2026-05-03T07:48:42Z</time></trkpt><trkpt lat="42.36443272171849" lon="13.537220504234055"><ele>1217.8000000000002</ele><time>2026-05-03T07:48:43Z</time></trkpt><trkpt lat="42.36436904710278" lon="13.537343644405498"><ele>1218.4</ele><time>2026-05-03T07:48:44Z</time></trkpt><trkpt lat="42.36430225176293" lon="13.537468973661637"><ele>1219.0</ele><time>2026-05-03T07:48:45Z</time></trkpt><trkpt lat="42.36423189662537" lon="13.537600982076512"><ele>1219.0</ele><time>2026-05-03T07:48:46Z</time></trkpt><trkpt lat="42.364158995411515" lon="13.537744652420992"><ele>1219.0</ele><time>2026-05-03T07:48:47Z</time></trkpt><trkpt lat="42.364096029992524" lon="13.537873590412095"><ele>1219.0</ele><time>2026-05-03T07:48:48Z</time></trkpt><trkpt lat="42.36404164365566" lon="13.53798427864325"><ele>1219.0</ele><time>2026-05-03T07:48:49Z</time></trkpt><trkpt lat="42.36399080569153" lon="13.538081272355877"><ele>1219.0</ele><time>2026-05-03T07:48:50Z</time></trkpt><trkpt lat="42.36392030878457" lon="13.538178347308952"><ele>1220.25</ele><time>2026-05-03T07:48:51Z</time></trkpt><trkpt lat="42.36383683607659" lon="13.538282295859457"><ele>1221.5</ele><time>2026-05-03T07:48:52Z</time></trkpt><trkpt lat="42.36374800214554" lon="13.538392260161432"><ele>1222.75</ele><time>2026-05-03T07:48:53Z</time></trkpt><trkpt lat="42.363656863337454" lon="13.538503304828144"><ele>1224.0</ele><time>2026-05-03T07:48:54Z</time></trkpt><trkpt lat="42.36356106670906" lon="13.538618700553503"><ele>1225.0</ele><time>2026-05-03T07:48:55Z</time></trkpt><trkpt lat="42.36346346024076" lon="13.538739801136025"><ele>1226.0</ele><time>2026-05-03T07:48:56Z</time></trkpt><trkpt lat="42.36336809953782" lon="13.53886523773938"><ele>1227.0</ele><time>2026-05-03T07:48:57Z</time></trkpt><trkpt lat="42.36327247615013" lon="13.538991093337712"><ele>1228.0</ele><time>2026-05-03T07:48:58Z</time></trkpt><trkpt lat="42.36317877940803" lon="13.539123813483204"><ele>1228.0</ele><time>2026-05-03T07:48:59Z</time></trkpt><trkpt lat="42.363083846418554" lon="13.539263325573378"><ele>1228.0</ele><time>2026-05-03T07:49:00Z</time></trkpt><trkpt lat="42.36298655303056" lon="13.539404691829557"><ele>1228.0</ele><time>2026-05-03T07:49:01Z</time></trkpt><trkpt lat="42.36288551971389" lon="13.539546062940587"><ele>1228.0</ele><time>2026-05-03T07:49:02Z</time></trkpt><trkpt lat="42.36279319122432" lon="13.539669358879387"><ele>1227.5</ele><time>2026-05-03T07:49:03Z</time></trkpt><trkpt lat="42.36270748876516" lon="13.53978768821835"><ele>1227.0</ele><time>2026-05-03T07:49:04Z</time></trkpt><trkpt lat="42.36263023819067" lon="13.53991092522498"><ele>1226.5</ele><time>2026-05-03T07:49:05Z</time></trkpt><trkpt lat="42.36255795368412" lon="13.54004943389077"><ele>1226.0</ele><time>2026-05-03T07:49:06Z</time></trkpt><trkpt lat="42.362489314588736" lon="13.540205180087588"><ele>1226.0</ele><time>2026-05-03T07:49:07Z</time></trkpt><trkpt lat="42.36243037789611" lon="13.540381080044995"><ele>1226.0</ele><time>2026-05-03T07:49:08Z</time></trkpt><trkpt lat="42.362383277460104" lon="13.540542926028998"><ele>1226.0</ele><time>2026-05-03T07:49:09Z</time></trkpt><trkpt lat="42.362339184745004" lon="13.540705254494583"><ele>1226.0</ele><time>2026-05-03T07:49:10Z</time></trkpt><trkpt lat="42.362297513799966" lon="13.540866424488309"><ele>1227.0</ele><time>2026-05-03T07:49:11Z</time></trkpt><trkpt lat="42.36226647542101" lon="13.541035504267482"><ele>1228.0</ele><time>2026-05-03T07:49:12Z</time></trkpt><trkpt lat="42.36220809066013" lon="13.541193877415028"><ele>1229.0</ele><time>2026-05-03T07:49:13Z</time></trkpt><trkpt lat="42.362159114890154" lon="13.541359539007976"><ele>1230.0</ele><time>2026-05-03T07:49:14Z</time></trkpt><trkpt lat="42.36210912820726" lon="13.541525832987626"><ele>1230.0</ele><time>2026-05-03T07:49:15Z</time></trkpt><trkpt lat="42.36206237729443" lon="13.541694027498767"><ele>1230.0</ele><time>2026-05-03T07:49:16Z</time></trkpt><trkpt lat="42.36201654337462" lon="13.541863489578141"><ele>1230.0</ele><time>2026-05-03T07:49:17Z</time></trkpt><trkpt lat="42.36198073136215" lon="13.542042513168173"><ele>1230.0</ele><time>2026-05-03T07:49:18Z</time></trkpt><trkpt lat="42.36192891910232" lon="13.542216114636028"><ele>1230.0</ele><time>2026-05-03T07:49:19Z</time></trkpt><trkpt lat="42.361881294609454" lon="13.542384811046006"><ele>1230.0</ele><time>2026-05-03T07:49:20Z</time></trkpt><trkpt lat="42.36182628416619" lon="13.542529422401579"><ele>1230.0</ele><time>2026-05-03T07:49:21Z</time></trkpt><trkpt lat="42.36178577197107" lon="13.542669783694802"><ele>1230.0</ele><time>2026-05-03T07:49:21.999Z</time></trkpt><trkpt lat="42.36176675544905" lon="13.542823867656386"><ele>1230.0</ele><time>2026-05-03T07:49:22.999Z</time></trkpt><trkpt lat="42.361781453418736" lon="13.542996031794868"><ele>1230.0</ele><time>2026-05-03T07:49:23.999Z</time></trkpt><trkpt lat="42.3617674166611" lon="13.543166424693563"><ele>1230.0</ele><time>2026-05-03T07:49:24.999Z</time></trkpt><trkpt lat="42.36175944312674" lon="13.543325752150238"><ele>1230.0</ele><time>2026-05-03T07:49:25.999Z</time></trkpt><trkpt lat="42.361751549428234" lon="13.543475866216946"><ele>1230.0</ele><time>2026-05-03T07:49:26.999Z</time></trkpt><trkpt lat="42.36173360465065" lon="13.543612480038536"><ele>1230.0</ele><time>2026-05-03T07:49:27.999Z</time></trkpt><trkpt lat="42.36170208153857" lon="13.543741581870458"><ele>1230.0</ele><time>2026-05-03T07:49:28.999Z</time></trkpt><trkpt lat="42.361658920529166" lon="13.543882563415307"><ele>1230.0</ele><time>2026-05-03T07:49:29.999Z</time></trkpt><trkpt lat="42.36162017362028" lon="13.544041734430186"><ele>1230.0</ele><time>2026-05-03T07:49:30.999Z</time></trkpt><trkpt lat="42.361586703727426" lon="13.544202665398716"><ele>1230.6</ele><time>2026-05-03T07:49:31.999Z</time></trkpt><trkpt lat="42.36155878093104" lon="13.544364325417638"><ele>1231.2</ele><time>2026-05-03T07:49:32.999Z</time></trkpt><trkpt lat="42.36153824417161" lon="13.54450452136265"><ele>1231.8</ele><time>2026-05-03T07:49:33.999Z</time></trkpt><trkpt lat="42.36152437728581" lon="13.544620030213984"><ele>1232.4</ele><time>2026-05-03T07:49:34.999Z</time></trkpt><trkpt lat="42.36151524736137" lon="13.544717914378728"><ele>1233.0</ele><time>2026-05-03T07:49:35.999Z</time></trkpt><trkpt lat="42.3615097327634" lon="13.544875982465754"><ele>1236.0</ele><time>2026-05-03T07:49:37.999Z</time></trkpt><trkpt lat="42.3615133203762" lon="13.545004551563336"><ele>1236.0</ele><time>2026-05-03T07:49:39.999Z</time></trkpt></trkseg></trk></gpx>